<?xml version="1.0" encoding="UTF-8" standalone="no" ?>
<gpx xmlns="http://www.topografix.com/GPX/1/1" xmlns:xsi="http://www.w3.org/2001/XMLSchema-instance" xsi:schemaLocation="http://www.topografix.com/GPX/1/1 http://www.topografix.com/GPX/1/1/gpx.xsd" version="1.1" creator="VisuGPX - https://www.visugpx.com">
  <metadata>
    <name>Traversée Roche Parnal - Sous Dine</name>
    <desc><![CDATA[Très belle traversée de deux sommets aux panoramas magnifiques]]></desc>
  </metadata>
  <trk>
    <name><![CDATA[Traversee Roche Parnal - Sous Dine]]></name>
    <trkseg>
      <trkpt lat="46.02176" lon="6.30955">
        <ele>1048.454834</ele>
        <time>2011-06-14T08:32:43Z</time>
      </trkpt>
      <trkpt lat="46.02171" lon="6.30963">
        <ele>1048.935547</ele>
        <time>2011-06-14T08:32:51Z</time>
      </trkpt>
      <trkpt lat="46.02167" lon="6.30974">
        <ele>1050.377686</ele>
        <time>2011-06-14T08:33:00Z</time>
      </trkpt>
      <trkpt lat="46.02161" lon="6.30989">
        <ele>1051.338867</ele>
        <time>2011-06-14T08:33:10Z</time>
      </trkpt>
      <trkpt lat="46.02159" lon="6.31006">
        <ele>1052.300293</ele>
        <time>2011-06-14T08:33:19Z</time>
      </trkpt>
      <trkpt lat="46.02156" lon="6.31026">
        <ele>1053.742432</ele>
        <time>2011-06-14T08:33:30Z</time>
      </trkpt>
      <trkpt lat="46.02153" lon="6.31044">
        <ele>1054.703613</ele>
        <time>2011-06-14T08:33:41Z</time>
      </trkpt>
      <trkpt lat="46.02149" lon="6.31062">
        <ele>1055.665039</ele>
        <time>2011-06-14T08:33:52Z</time>
      </trkpt>
      <trkpt lat="46.02144" lon="6.31085">
        <ele>1056.626221</ele>
        <time>2011-06-14T08:34:05Z</time>
      </trkpt>
      <trkpt lat="46.0214" lon="6.31103">
        <ele>1057.106934</ele>
        <time>2011-06-14T08:34:17Z</time>
      </trkpt>
      <trkpt lat="46.02137" lon="6.31112">
        <ele>1057.106934</ele>
        <time>2011-06-14T08:34:25Z</time>
      </trkpt>
      <trkpt lat="46.02132" lon="6.31125">
        <ele>1057.587646</ele>
        <time>2011-06-14T08:34:35Z</time>
      </trkpt>
      <trkpt lat="46.02125" lon="6.31137">
        <ele>1058.068359</ele>
        <time>2011-06-14T08:34:45Z</time>
      </trkpt>
      <trkpt lat="46.02116" lon="6.31147">
        <ele>1058.548828</ele>
        <time>2011-06-14T08:34:56Z</time>
      </trkpt>
      <trkpt lat="46.02104" lon="6.3116">
        <ele>1059.029541</ele>
        <time>2011-06-14T08:35:09Z</time>
      </trkpt>
      <trkpt lat="46.02095" lon="6.31169">
        <ele>1059.510254</ele>
        <time>2011-06-14T08:35:20Z</time>
      </trkpt>
      <trkpt lat="46.0208" lon="6.31182">
        <ele>1061.432861</ele>
        <time>2011-06-14T08:35:35Z</time>
      </trkpt>
      <trkpt lat="46.02068" lon="6.31196">
        <ele>1063.835938</ele>
        <time>2011-06-14T08:35:49Z</time>
      </trkpt>
      <trkpt lat="46.0206" lon="6.31209">
        <ele>1064.797363</ele>
        <time>2011-06-14T08:36:01Z</time>
      </trkpt>
      <trkpt lat="46.02055" lon="6.31217">
        <ele>1067.200684</ele>
        <time>2011-06-14T08:36:11Z</time>
      </trkpt>
      <trkpt lat="46.02052" lon="6.31224">
        <ele>1067.681152</ele>
        <time>2011-06-14T08:36:20Z</time>
      </trkpt>
      <trkpt lat="46.02046" lon="6.31238">
        <ele>1068.162109</ele>
        <time>2011-06-14T08:36:31Z</time>
      </trkpt>
      <trkpt lat="46.02044" lon="6.31241">
        <ele>1069.604248</ele>
        <time>2011-06-14T08:36:34Z</time>
      </trkpt>
      <trkpt lat="46.02034" lon="6.31256">
        <ele>1072.007324</ele>
        <time>2011-06-14T08:36:48Z</time>
      </trkpt>
      <trkpt lat="46.02024" lon="6.31267">
        <ele>1072.96875</ele>
        <time>2011-06-14T08:37:01Z</time>
      </trkpt>
      <trkpt lat="46.02015" lon="6.31275">
        <ele>1074.891357</ele>
        <time>2011-06-14T08:37:12Z</time>
      </trkpt>
      <trkpt lat="46.02007" lon="6.31284">
        <ele>1076.813965</ele>
        <time>2011-06-14T08:37:24Z</time>
      </trkpt>
      <trkpt lat="46.01997" lon="6.31298">
        <ele>1079.217041</ele>
        <time>2011-06-14T08:37:38Z</time>
      </trkpt>
      <trkpt lat="46.01991" lon="6.31306">
        <ele>1081.620361</ele>
        <time>2011-06-14T08:37:47Z</time>
      </trkpt>
      <trkpt lat="46.01981" lon="6.31318">
        <ele>1084.023926</ele>
        <time>2011-06-14T08:38:00Z</time>
      </trkpt>
      <trkpt lat="46.01973" lon="6.31328">
        <ele>1084.985352</ele>
        <time>2011-06-14T08:38:12Z</time>
      </trkpt>
      <trkpt lat="46.01964" lon="6.31335">
        <ele>1086.907715</ele>
        <time>2011-06-14T08:38:22Z</time>
      </trkpt>
      <trkpt lat="46.01954" lon="6.3134">
        <ele>1089.311035</ele>
        <time>2011-06-14T08:38:33Z</time>
      </trkpt>
      <trkpt lat="46.01951" lon="6.31341">
        <ele>1090.75293</ele>
        <time>2011-06-14T08:38:37Z</time>
      </trkpt>
      <trkpt lat="46.01939" lon="6.31344">
        <ele>1092.195068</ele>
        <time>2011-06-14T08:38:50Z</time>
      </trkpt>
      <trkpt lat="46.01931" lon="6.31346">
        <ele>1093.15625</ele>
        <time>2011-06-14T08:38:59Z</time>
      </trkpt>
      <trkpt lat="46.01924" lon="6.31346">
        <ele>1094.598145</ele>
        <time>2011-06-14T08:39:07Z</time>
      </trkpt>
      <trkpt lat="46.01912" lon="6.31348">
        <ele>1095.55957</ele>
        <time>2011-06-14T08:39:19Z</time>
      </trkpt>
      <trkpt lat="46.01903" lon="6.31349">
        <ele>1097.001465</ele>
        <time>2011-06-14T08:39:29Z</time>
      </trkpt>
      <trkpt lat="46.01893" lon="6.31355">
        <ele>1097.482178</ele>
        <time>2011-06-14T08:39:40Z</time>
      </trkpt>
      <trkpt lat="46.01886" lon="6.3136">
        <ele>1099.404785</ele>
        <time>2011-06-14T08:39:48Z</time>
      </trkpt>
      <trkpt lat="46.01878" lon="6.31368">
        <ele>1100.366455</ele>
        <time>2011-06-14T08:39:59Z</time>
      </trkpt>
      <trkpt lat="46.01877" lon="6.31378">
        <ele>1102.288818</ele>
        <time>2011-06-14T08:40:07Z</time>
      </trkpt>
      <trkpt lat="46.01874" lon="6.3139">
        <ele>1102.769531</ele>
        <time>2011-06-14T08:40:16Z</time>
      </trkpt>
      <trkpt lat="46.01871" lon="6.31404">
        <ele>1104.21167</ele>
        <time>2011-06-14T08:40:25Z</time>
      </trkpt>
      <trkpt lat="46.01868" lon="6.31423">
        <ele>1105.653564</ele>
        <time>2011-06-14T08:40:36Z</time>
      </trkpt>
      <trkpt lat="46.01865" lon="6.31429">
        <ele>1106.134033</ele>
        <time>2011-06-14T08:40:40Z</time>
      </trkpt>
      <trkpt lat="46.01864" lon="6.31436">
        <ele>1106.134033</ele>
        <time>2011-06-14T08:40:45Z</time>
      </trkpt>
      <trkpt lat="46.01859" lon="6.31448">
        <ele>1107.095459</ele>
        <time>2011-06-14T08:40:54Z</time>
      </trkpt>
      <trkpt lat="46.01853" lon="6.31466">
        <ele>1108.537354</ele>
        <time>2011-06-14T08:41:05Z</time>
      </trkpt>
      <trkpt lat="46.01849" lon="6.31477">
        <ele>1109.979248</ele>
        <time>2011-06-14T08:41:13Z</time>
      </trkpt>
      <trkpt lat="46.01843" lon="6.3149">
        <ele>1110.459961</ele>
        <time>2011-06-14T08:41:21Z</time>
      </trkpt>
      <trkpt lat="46.0183" lon="6.31501">
        <ele>1110.940674</ele>
        <time>2011-06-14T08:41:32Z</time>
      </trkpt>
      <trkpt lat="46.0182" lon="6.31514">
        <ele>1110.940674</ele>
        <time>2011-06-14T08:41:42Z</time>
      </trkpt>
      <trkpt lat="46.0181" lon="6.31522">
        <ele>1111.421387</ele>
        <time>2011-06-14T08:41:52Z</time>
      </trkpt>
      <trkpt lat="46.018" lon="6.31531">
        <ele>1112.863281</ele>
        <time>2011-06-14T08:42:02Z</time>
      </trkpt>
      <trkpt lat="46.0179" lon="6.31542">
        <ele>1113.343994</ele>
        <time>2011-06-14T08:42:12Z</time>
      </trkpt>
      <trkpt lat="46.01779" lon="6.31554">
        <ele>1114.305176</ele>
        <time>2011-06-14T08:42:22Z</time>
      </trkpt>
      <trkpt lat="46.0177" lon="6.31561">
        <ele>1114.305176</ele>
        <time>2011-06-14T08:42:31Z</time>
      </trkpt>
      <trkpt lat="46.01761" lon="6.3157">
        <ele>1114.785889</ele>
        <time>2011-06-14T08:42:40Z</time>
      </trkpt>
      <trkpt lat="46.01756" lon="6.31578">
        <ele>1115.266602</ele>
        <time>2011-06-14T08:42:48Z</time>
      </trkpt>
      <trkpt lat="46.01751" lon="6.31584">
        <ele>1115.266602</ele>
        <time>2011-06-14T08:42:56Z</time>
      </trkpt>
      <trkpt lat="46.01748" lon="6.31589">
        <ele>1115.747314</ele>
        <time>2011-06-14T08:43:02Z</time>
      </trkpt>
      <trkpt lat="46.01742" lon="6.31597">
        <ele>1117.189453</ele>
        <time>2011-06-14T08:43:10Z</time>
      </trkpt>
      <trkpt lat="46.01738" lon="6.31609">
        <ele>1117.669922</ele>
        <time>2011-06-14T08:43:19Z</time>
      </trkpt>
      <trkpt lat="46.01735" lon="6.31621">
        <ele>1118.631348</ele>
        <time>2011-06-14T08:43:28Z</time>
      </trkpt>
      <trkpt lat="46.01735" lon="6.31632">
        <ele>1119.592773</ele>
        <time>2011-06-14T08:43:35Z</time>
      </trkpt>
      <trkpt lat="46.01736" lon="6.31641">
        <ele>1120.553955</ele>
        <time>2011-06-14T08:43:43Z</time>
      </trkpt>
      <trkpt lat="46.01733" lon="6.31645">
        <ele>1121.034668</ele>
        <time>2011-06-14T08:43:50Z</time>
      </trkpt>
      <trkpt lat="46.0173" lon="6.31647">
        <ele>1121.99585</ele>
        <time>2011-06-14T08:43:57Z</time>
      </trkpt>
      <trkpt lat="46.01727" lon="6.31653">
        <ele>1122.957275</ele>
        <time>2011-06-14T08:44:09Z</time>
      </trkpt>
      <trkpt lat="46.01722" lon="6.31652">
        <ele>1123.437988</ele>
        <time>2011-06-14T08:44:19Z</time>
      </trkpt>
      <trkpt lat="46.01717" lon="6.31655">
        <ele>1123.918457</ele>
        <time>2011-06-14T08:44:26Z</time>
      </trkpt>
      <trkpt lat="46.01711" lon="6.31662">
        <ele>1126.321777</ele>
        <time>2011-06-14T08:44:35Z</time>
      </trkpt>
      <trkpt lat="46.01705" lon="6.31665">
        <ele>1128.244385</ele>
        <time>2011-06-14T08:44:45Z</time>
      </trkpt>
      <trkpt lat="46.01699" lon="6.31673">
        <ele>1131.608887</ele>
        <time>2011-06-14T08:45:00Z</time>
      </trkpt>
      <trkpt lat="46.01689" lon="6.31678">
        <ele>1133.531738</ele>
        <time>2011-06-14T08:45:11Z</time>
      </trkpt>
      <trkpt lat="46.01681" lon="6.31684">
        <ele>1135.454346</ele>
        <time>2011-06-14T08:45:24Z</time>
      </trkpt>
      <trkpt lat="46.01676" lon="6.31684">
        <ele>1136.415771</ele>
        <time>2011-06-14T08:45:31Z</time>
      </trkpt>
      <trkpt lat="46.0167" lon="6.31688">
        <ele>1137.376953</ele>
        <time>2011-06-14T08:45:38Z</time>
      </trkpt>
      <trkpt lat="46.01663" lon="6.31688">
        <ele>1139.780273</ele>
        <time>2011-06-14T08:45:46Z</time>
      </trkpt>
      <trkpt lat="46.01657" lon="6.31691">
        <ele>1140.741455</ele>
        <time>2011-06-14T08:45:53Z</time>
      </trkpt>
      <trkpt lat="46.01653" lon="6.31695">
        <ele>1141.702881</ele>
        <time>2011-06-14T08:46:00Z</time>
      </trkpt>
      <trkpt lat="46.01651" lon="6.31695">
        <ele>1143.144775</ele>
        <time>2011-06-14T08:46:07Z</time>
      </trkpt>
      <trkpt lat="46.01642" lon="6.31694">
        <ele>1145.067383</ele>
        <time>2011-06-14T08:46:18Z</time>
      </trkpt>
      <trkpt lat="46.01639" lon="6.31703">
        <ele>1146.98999</ele>
        <time>2011-06-14T08:46:27Z</time>
      </trkpt>
      <trkpt lat="46.01634" lon="6.31711">
        <ele>1148.432129</ele>
        <time>2011-06-14T08:46:37Z</time>
      </trkpt>
      <trkpt lat="46.0163" lon="6.31716">
        <ele>1150.35498</ele>
        <time>2011-06-14T08:46:49Z</time>
      </trkpt>
      <trkpt lat="46.0163" lon="6.31726">
        <ele>1151.316162</ele>
        <time>2011-06-14T08:46:56Z</time>
      </trkpt>
      <trkpt lat="46.01628" lon="6.31736">
        <ele>1151.316162</ele>
        <time>2011-06-14T08:47:03Z</time>
      </trkpt>
      <trkpt lat="46.01623" lon="6.31745">
        <ele>1152.277344</ele>
        <time>2011-06-14T08:47:11Z</time>
      </trkpt>
      <trkpt lat="46.01619" lon="6.31755">
        <ele>1152.758057</ele>
        <time>2011-06-14T08:47:19Z</time>
      </trkpt>
      <trkpt lat="46.01618" lon="6.31766">
        <ele>1153.719482</ele>
        <time>2011-06-14T08:47:26Z</time>
      </trkpt>
      <trkpt lat="46.01616" lon="6.31775">
        <ele>1154.680664</ele>
        <time>2011-06-14T08:47:33Z</time>
      </trkpt>
      <trkpt lat="46.01615" lon="6.31782">
        <ele>1154.680664</ele>
        <time>2011-06-14T08:47:40Z</time>
      </trkpt>
      <trkpt lat="46.01612" lon="6.3179">
        <ele>1155.161377</ele>
        <time>2011-06-14T08:47:46Z</time>
      </trkpt>
      <trkpt lat="46.01611" lon="6.31802">
        <ele>1155.161377</ele>
        <time>2011-06-14T08:47:54Z</time>
      </trkpt>
      <trkpt lat="46.01605" lon="6.31813">
        <ele>1156.122559</ele>
        <time>2011-06-14T08:48:02Z</time>
      </trkpt>
      <trkpt lat="46.01602" lon="6.3183">
        <ele>1156.603271</ele>
        <time>2011-06-14T08:48:10Z</time>
      </trkpt>
      <trkpt lat="46.01598" lon="6.31844">
        <ele>1157.564697</ele>
        <time>2011-06-14T08:48:19Z</time>
      </trkpt>
      <trkpt lat="46.01597" lon="6.31851">
        <ele>1157.564697</ele>
        <time>2011-06-14T08:48:25Z</time>
      </trkpt>
      <trkpt lat="46.0159" lon="6.31859">
        <ele>1158.525879</ele>
        <time>2011-06-14T08:48:33Z</time>
      </trkpt>
      <trkpt lat="46.01584" lon="6.31866">
        <ele>1159.967773</ele>
        <time>2011-06-14T08:48:41Z</time>
      </trkpt>
      <trkpt lat="46.01578" lon="6.31869">
        <ele>1160.448486</ele>
        <time>2011-06-14T08:48:49Z</time>
      </trkpt>
      <trkpt lat="46.01571" lon="6.31876">
        <ele>1161.409912</ele>
        <time>2011-06-14T08:48:56Z</time>
      </trkpt>
      <trkpt lat="46.01567" lon="6.31885">
        <ele>1162.851807</ele>
        <time>2011-06-14T08:49:06Z</time>
      </trkpt>
      <trkpt lat="46.01569" lon="6.31891">
        <ele>1163.33252</ele>
        <time>2011-06-14T08:49:12Z</time>
      </trkpt>
      <trkpt lat="46.01564" lon="6.319">
        <ele>1164.293945</ele>
        <time>2011-06-14T08:49:20Z</time>
      </trkpt>
      <trkpt lat="46.01569" lon="6.31908">
        <ele>1165.255371</ele>
        <time>2011-06-14T08:49:29Z</time>
      </trkpt>
      <trkpt lat="46.01565" lon="6.31915">
        <ele>1166.697266</ele>
        <time>2011-06-14T08:49:37Z</time>
      </trkpt>
      <trkpt lat="46.01565" lon="6.31921">
        <ele>1168.13916</ele>
        <time>2011-06-14T08:49:45Z</time>
      </trkpt>
      <trkpt lat="46.01564" lon="6.31925">
        <ele>1168.619873</ele>
        <time>2011-06-14T08:49:51Z</time>
      </trkpt>
      <trkpt lat="46.0156" lon="6.3193">
        <ele>1170.061768</ele>
        <time>2011-06-14T08:49:59Z</time>
      </trkpt>
      <trkpt lat="46.01561" lon="6.31935">
        <ele>1171.984375</ele>
        <time>2011-06-14T08:50:09Z</time>
      </trkpt>
      <trkpt lat="46.01561" lon="6.31942">
        <ele>1173.426514</ele>
        <time>2011-06-14T08:50:16Z</time>
      </trkpt>
      <trkpt lat="46.01558" lon="6.31954">
        <ele>1174.387695</ele>
        <time>2011-06-14T08:50:26Z</time>
      </trkpt>
      <trkpt lat="46.01558" lon="6.31963">
        <ele>1175.82959</ele>
        <time>2011-06-14T08:50:34Z</time>
      </trkpt>
      <trkpt lat="46.01557" lon="6.31972">
        <ele>1177.271729</ele>
        <time>2011-06-14T08:50:41Z</time>
      </trkpt>
      <trkpt lat="46.01555" lon="6.3198">
        <ele>1179.194092</ele>
        <time>2011-06-14T08:50:49Z</time>
      </trkpt>
      <trkpt lat="46.01553" lon="6.31987">
        <ele>1180.636475</ele>
        <time>2011-06-14T08:50:56Z</time>
      </trkpt>
      <trkpt lat="46.01548" lon="6.31993">
        <ele>1181.597656</ele>
        <time>2011-06-14T08:51:02Z</time>
      </trkpt>
      <trkpt lat="46.01546" lon="6.32001">
        <ele>1182.559082</ele>
        <time>2011-06-14T08:51:10Z</time>
      </trkpt>
      <trkpt lat="46.0154" lon="6.3201">
        <ele>1183.039551</ele>
        <time>2011-06-14T08:51:18Z</time>
      </trkpt>
      <trkpt lat="46.01532" lon="6.32017">
        <ele>1183.520264</ele>
        <time>2011-06-14T08:51:25Z</time>
      </trkpt>
      <trkpt lat="46.01525" lon="6.32021">
        <ele>1184.962402</ele>
        <time>2011-06-14T08:51:33Z</time>
      </trkpt>
      <trkpt lat="46.01516" lon="6.32024">
        <ele>1185.923584</ele>
        <time>2011-06-14T08:51:41Z</time>
      </trkpt>
      <trkpt lat="46.01508" lon="6.32029">
        <ele>1186.884766</ele>
        <time>2011-06-14T08:51:49Z</time>
      </trkpt>
      <trkpt lat="46.01504" lon="6.32036">
        <ele>1186.404297</ele>
        <time>2011-06-14T08:51:55Z</time>
      </trkpt>
      <trkpt lat="46.01501" lon="6.32042">
        <ele>1187.365479</ele>
        <time>2011-06-14T08:52:02Z</time>
      </trkpt>
      <trkpt lat="46.01491" lon="6.32048">
        <ele>1188.326904</ele>
        <time>2011-06-14T08:52:11Z</time>
      </trkpt>
      <trkpt lat="46.0148" lon="6.32058">
        <ele>1188.807617</ele>
        <time>2011-06-14T08:52:22Z</time>
      </trkpt>
      <trkpt lat="46.01474" lon="6.32066">
        <ele>1188.807617</ele>
        <time>2011-06-14T08:52:29Z</time>
      </trkpt>
      <trkpt lat="46.01469" lon="6.32071">
        <ele>1188.807617</ele>
        <time>2011-06-14T08:52:37Z</time>
      </trkpt>
      <trkpt lat="46.01466" lon="6.32073">
        <ele>1189.288086</ele>
        <time>2011-06-14T08:52:40Z</time>
      </trkpt>
      <trkpt lat="46.01454" lon="6.3208">
        <ele>1190.249512</ele>
        <time>2011-06-14T08:52:51Z</time>
      </trkpt>
      <trkpt lat="46.01443" lon="6.32092">
        <ele>1190.72998</ele>
        <time>2011-06-14T08:53:01Z</time>
      </trkpt>
      <trkpt lat="46.01442" lon="6.32105">
        <ele>1191.210693</ele>
        <time>2011-06-14T08:53:20Z</time>
      </trkpt>
      <trkpt lat="46.01449" lon="6.32108">
        <ele>1192.652832</ele>
        <time>2011-06-14T08:53:29Z</time>
      </trkpt>
      <trkpt lat="46.01459" lon="6.32111">
        <ele>1194.094727</ele>
        <time>2011-06-14T08:53:40Z</time>
      </trkpt>
      <trkpt lat="46.01467" lon="6.32117">
        <ele>1195.536621</ele>
        <time>2011-06-14T08:53:49Z</time>
      </trkpt>
      <trkpt lat="46.01473" lon="6.32127">
        <ele>1196.97876</ele>
        <time>2011-06-14T08:53:57Z</time>
      </trkpt>
      <trkpt lat="46.01481" lon="6.32136">
        <ele>1197.940186</ele>
        <time>2011-06-14T08:54:04Z</time>
      </trkpt>
      <trkpt lat="46.01484" lon="6.32141">
        <ele>1197.940186</ele>
        <time>2011-06-14T08:54:08Z</time>
      </trkpt>
      <trkpt lat="46.01484" lon="6.32144">
        <ele>1197.459473</ele>
        <time>2011-06-14T08:54:10Z</time>
      </trkpt>
      <trkpt lat="46.01481" lon="6.32155">
        <ele>1197.459473</ele>
        <time>2011-06-14T08:54:18Z</time>
      </trkpt>
      <trkpt lat="46.01477" lon="6.32162">
        <ele>1197.940186</ele>
        <time>2011-06-14T08:54:25Z</time>
      </trkpt>
      <trkpt lat="46.0147" lon="6.32173">
        <ele>1197.940186</ele>
        <time>2011-06-14T08:54:33Z</time>
      </trkpt>
      <trkpt lat="46.01464" lon="6.32186">
        <ele>1198.901367</ele>
        <time>2011-06-14T08:54:41Z</time>
      </trkpt>
      <trkpt lat="46.0146" lon="6.32195">
        <ele>1199.38208</ele>
        <time>2011-06-14T08:54:48Z</time>
      </trkpt>
      <trkpt lat="46.0146" lon="6.32199">
        <ele>1199.38208</ele>
        <time>2011-06-14T08:54:51Z</time>
      </trkpt>
      <trkpt lat="46.01459" lon="6.32215">
        <ele>1199.862793</ele>
        <time>2011-06-14T08:55:01Z</time>
      </trkpt>
      <trkpt lat="46.01458" lon="6.32224">
        <ele>1200.823975</ele>
        <time>2011-06-14T08:55:08Z</time>
      </trkpt>
      <trkpt lat="46.01453" lon="6.32229">
        <ele>1201.304688</ele>
        <time>2011-06-14T08:55:12Z</time>
      </trkpt>
      <trkpt lat="46.01451" lon="6.3224">
        <ele>1201.304688</ele>
        <time>2011-06-14T08:55:19Z</time>
      </trkpt>
      <trkpt lat="46.01449" lon="6.32251">
        <ele>1201.7854</ele>
        <time>2011-06-14T08:55:28Z</time>
      </trkpt>
      <trkpt lat="46.01444" lon="6.32266">
        <ele>1202.746582</ele>
        <time>2011-06-14T08:55:38Z</time>
      </trkpt>
      <trkpt lat="46.01441" lon="6.3228">
        <ele>1203.227295</ele>
        <time>2011-06-14T08:55:47Z</time>
      </trkpt>
      <trkpt lat="46.01438" lon="6.32288">
        <ele>1204.188721</ele>
        <time>2011-06-14T08:55:53Z</time>
      </trkpt>
      <trkpt lat="46.01432" lon="6.32301">
        <ele>1205.630615</ele>
        <time>2011-06-14T08:56:03Z</time>
      </trkpt>
      <trkpt lat="46.01429" lon="6.32313">
        <ele>1206.591797</ele>
        <time>2011-06-14T08:56:13Z</time>
      </trkpt>
      <trkpt lat="46.01421" lon="6.32325">
        <ele>1207.07251</ele>
        <time>2011-06-14T08:56:23Z</time>
      </trkpt>
      <trkpt lat="46.01414" lon="6.32335">
        <ele>1207.553223</ele>
        <time>2011-06-14T08:56:30Z</time>
      </trkpt>
      <trkpt lat="46.01412" lon="6.32347">
        <ele>1208.033936</ele>
        <time>2011-06-14T08:56:38Z</time>
      </trkpt>
      <trkpt lat="46.01415" lon="6.32362">
        <ele>1208.514404</ele>
        <time>2011-06-14T08:56:48Z</time>
      </trkpt>
      <trkpt lat="46.01413" lon="6.32373">
        <ele>1208.995117</ele>
        <time>2011-06-14T08:56:56Z</time>
      </trkpt>
      <trkpt lat="46.01408" lon="6.32386">
        <ele>1208.995117</ele>
        <time>2011-06-14T08:57:04Z</time>
      </trkpt>
      <trkpt lat="46.01404" lon="6.32399">
        <ele>1208.995117</ele>
        <time>2011-06-14T08:57:13Z</time>
      </trkpt>
      <trkpt lat="46.01402" lon="6.32407">
        <ele>1209.47583</ele>
        <time>2011-06-14T08:57:19Z</time>
      </trkpt>
      <trkpt lat="46.01399" lon="6.32422">
        <ele>1209.956299</ele>
        <time>2011-06-14T08:57:29Z</time>
      </trkpt>
      <trkpt lat="46.01396" lon="6.32432">
        <ele>1210.437012</ele>
        <time>2011-06-14T08:57:35Z</time>
      </trkpt>
      <trkpt lat="46.01396" lon="6.32445">
        <ele>1209.956299</ele>
        <time>2011-06-14T08:57:43Z</time>
      </trkpt>
      <trkpt lat="46.01392" lon="6.32461">
        <ele>1210.437012</ele>
        <time>2011-06-14T08:57:53Z</time>
      </trkpt>
      <trkpt lat="46.0139" lon="6.32472">
        <ele>1210.437012</ele>
        <time>2011-06-14T08:58:01Z</time>
      </trkpt>
      <trkpt lat="46.01384" lon="6.32481">
        <ele>1210.437012</ele>
        <time>2011-06-14T08:58:09Z</time>
      </trkpt>
      <trkpt lat="46.01379" lon="6.3249">
        <ele>1210.437012</ele>
        <time>2011-06-14T08:58:15Z</time>
      </trkpt>
      <trkpt lat="46.01376" lon="6.32501">
        <ele>1210.917725</ele>
        <time>2011-06-14T08:58:22Z</time>
      </trkpt>
      <trkpt lat="46.01371" lon="6.32512">
        <ele>1211.398438</ele>
        <time>2011-06-14T08:58:30Z</time>
      </trkpt>
      <trkpt lat="46.01362" lon="6.32526">
        <ele>1211.398438</ele>
        <time>2011-06-14T08:58:40Z</time>
      </trkpt>
      <trkpt lat="46.01359" lon="6.32532">
        <ele>1211.87915</ele>
        <time>2011-06-14T08:58:45Z</time>
      </trkpt>
      <trkpt lat="46.01355" lon="6.3255">
        <ele>1211.87915</ele>
        <time>2011-06-14T08:58:57Z</time>
      </trkpt>
      <trkpt lat="46.01353" lon="6.32568">
        <ele>1211.87915</ele>
        <time>2011-06-14T08:59:08Z</time>
      </trkpt>
      <trkpt lat="46.01354" lon="6.32581">
        <ele>1212.359863</ele>
        <time>2011-06-14T08:59:16Z</time>
      </trkpt>
      <trkpt lat="46.01353" lon="6.326">
        <ele>1212.840576</ele>
        <time>2011-06-14T08:59:28Z</time>
      </trkpt>
      <trkpt lat="46.01353" lon="6.32619">
        <ele>1213.321289</ele>
        <time>2011-06-14T08:59:40Z</time>
      </trkpt>
      <trkpt lat="46.01351" lon="6.32634">
        <ele>1213.801758</ele>
        <time>2011-06-14T08:59:50Z</time>
      </trkpt>
      <trkpt lat="46.01343" lon="6.32646">
        <ele>1214.282471</ele>
        <time>2011-06-14T09:00:01Z</time>
      </trkpt>
      <trkpt lat="46.01337" lon="6.32658">
        <ele>1215.243896</ele>
        <time>2011-06-14T09:00:11Z</time>
      </trkpt>
      <trkpt lat="46.01333" lon="6.32672">
        <ele>1215.243896</ele>
        <time>2011-06-14T09:00:20Z</time>
      </trkpt>
      <trkpt lat="46.01329" lon="6.32685">
        <ele>1215.243896</ele>
        <time>2011-06-14T09:00:29Z</time>
      </trkpt>
      <trkpt lat="46.01328" lon="6.32696">
        <ele>1215.724609</ele>
        <time>2011-06-14T09:00:37Z</time>
      </trkpt>
      <trkpt lat="46.01325" lon="6.32709">
        <ele>1215.724609</ele>
        <time>2011-06-14T09:00:46Z</time>
      </trkpt>
      <trkpt lat="46.01326" lon="6.3272">
        <ele>1216.685791</ele>
        <time>2011-06-14T09:00:54Z</time>
      </trkpt>
      <trkpt lat="46.01328" lon="6.32727">
        <ele>1218.127686</ele>
        <time>2011-06-14T09:01:00Z</time>
      </trkpt>
      <trkpt lat="46.01333" lon="6.32733">
        <ele>1220.050293</ele>
        <time>2011-06-14T09:01:07Z</time>
      </trkpt>
      <trkpt lat="46.01337" lon="6.32734">
        <ele>1220.531006</ele>
        <time>2011-06-14T09:01:17Z</time>
      </trkpt>
      <trkpt lat="46.01333" lon="6.32737">
        <ele>1220.531006</ele>
        <time>2011-06-14T09:01:31Z</time>
      </trkpt>
      <trkpt lat="46.01332" lon="6.32749">
        <ele>1219.569824</ele>
        <time>2011-06-14T09:01:39Z</time>
      </trkpt>
      <trkpt lat="46.01323" lon="6.32762">
        <ele>1220.050293</ele>
        <time>2011-06-14T09:01:46Z</time>
      </trkpt>
      <trkpt lat="46.01317" lon="6.32771">
        <ele>1221.9729</ele>
        <time>2011-06-14T09:01:54Z</time>
      </trkpt>
      <trkpt lat="46.0131" lon="6.3278">
        <ele>1222.453613</ele>
        <time>2011-06-14T09:02:02Z</time>
      </trkpt>
      <trkpt lat="46.01306" lon="6.32792">
        <ele>1223.415039</ele>
        <time>2011-06-14T09:02:10Z</time>
      </trkpt>
      <trkpt lat="46.01305" lon="6.32802">
        <ele>1222.934326</ele>
        <time>2011-06-14T09:02:19Z</time>
      </trkpt>
      <trkpt lat="46.01302" lon="6.32809">
        <ele>1222.453613</ele>
        <time>2011-06-14T09:02:25Z</time>
      </trkpt>
      <trkpt lat="46.01293" lon="6.32819">
        <ele>1221.492188</ele>
        <time>2011-06-14T09:02:31Z</time>
      </trkpt>
      <trkpt lat="46.01289" lon="6.32825">
        <ele>1220.050293</ele>
        <time>2011-06-14T09:02:36Z</time>
      </trkpt>
      <trkpt lat="46.01287" lon="6.32826">
        <ele>1220.050293</ele>
        <time>2011-06-14T09:02:38Z</time>
      </trkpt>
      <trkpt lat="46.01277" lon="6.32831">
        <ele>1218.127686</ele>
        <time>2011-06-14T09:02:45Z</time>
      </trkpt>
      <trkpt lat="46.01268" lon="6.32836">
        <ele>1218.608398</ele>
        <time>2011-06-14T09:02:51Z</time>
      </trkpt>
      <trkpt lat="46.01256" lon="6.32842">
        <ele>1219.089111</ele>
        <time>2011-06-14T09:02:59Z</time>
      </trkpt>
      <trkpt lat="46.01255" lon="6.32847">
        <ele>1220.050293</ele>
        <time>2011-06-14T09:03:03Z</time>
      </trkpt>
      <trkpt lat="46.01264" lon="6.32854">
        <ele>1221.492188</ele>
        <time>2011-06-14T09:03:11Z</time>
      </trkpt>
      <trkpt lat="46.0127" lon="6.32856">
        <ele>1221.9729</ele>
        <time>2011-06-14T09:03:20Z</time>
      </trkpt>
      <trkpt lat="46.01275" lon="6.32862">
        <ele>1223.415039</ele>
        <time>2011-06-14T09:03:28Z</time>
      </trkpt>
      <trkpt lat="46.01281" lon="6.3287">
        <ele>1224.856934</ele>
        <time>2011-06-14T09:03:37Z</time>
      </trkpt>
      <trkpt lat="46.01284" lon="6.32876">
        <ele>1226.298828</ele>
        <time>2011-06-14T09:03:44Z</time>
      </trkpt>
      <trkpt lat="46.01288" lon="6.32881">
        <ele>1226.779541</ele>
        <time>2011-06-14T09:03:50Z</time>
      </trkpt>
      <trkpt lat="46.01294" lon="6.32883">
        <ele>1228.22168</ele>
        <time>2011-06-14T09:03:56Z</time>
      </trkpt>
      <trkpt lat="46.013" lon="6.32886">
        <ele>1229.182861</ele>
        <time>2011-06-14T09:04:04Z</time>
      </trkpt>
      <trkpt lat="46.01306" lon="6.32889">
        <ele>1231.105713</ele>
        <time>2011-06-14T09:04:12Z</time>
      </trkpt>
      <trkpt lat="46.01312" lon="6.32892">
        <ele>1232.547607</ele>
        <time>2011-06-14T09:04:20Z</time>
      </trkpt>
      <trkpt lat="46.01315" lon="6.32899">
        <ele>1233.989502</ele>
        <time>2011-06-14T09:04:27Z</time>
      </trkpt>
      <trkpt lat="46.01319" lon="6.32907">
        <ele>1234.950928</ele>
        <time>2011-06-14T09:04:34Z</time>
      </trkpt>
      <trkpt lat="46.01313" lon="6.32918">
        <ele>1236.392822</ele>
        <time>2011-06-14T09:04:42Z</time>
      </trkpt>
      <trkpt lat="46.01307" lon="6.32923">
        <ele>1236.873291</ele>
        <time>2011-06-14T09:04:51Z</time>
      </trkpt>
      <trkpt lat="46.01303" lon="6.32926">
        <ele>1238.796143</ele>
        <time>2011-06-14T09:05:00Z</time>
      </trkpt>
      <trkpt lat="46.01299" lon="6.32931">
        <ele>1240.238037</ele>
        <time>2011-06-14T09:05:06Z</time>
      </trkpt>
      <trkpt lat="46.01293" lon="6.32932">
        <ele>1241.679932</ele>
        <time>2011-06-14T09:05:15Z</time>
      </trkpt>
      <trkpt lat="46.01288" lon="6.32933">
        <ele>1244.083496</ele>
        <time>2011-06-14T09:05:24Z</time>
      </trkpt>
      <trkpt lat="46.01283" lon="6.32933">
        <ele>1246.006104</ele>
        <time>2011-06-14T09:05:35Z</time>
      </trkpt>
      <trkpt lat="46.01278" lon="6.32936">
        <ele>1246.967285</ele>
        <time>2011-06-14T09:05:42Z</time>
      </trkpt>
      <trkpt lat="46.01275" lon="6.32941">
        <ele>1249.851318</ele>
        <time>2011-06-14T09:05:56Z</time>
      </trkpt>
      <trkpt lat="46.01273" lon="6.32939">
        <ele>1252.735107</ele>
        <time>2011-06-14T09:06:06Z</time>
      </trkpt>
      <trkpt lat="46.01266" lon="6.32937">
        <ele>1253.696533</ele>
        <time>2011-06-14T09:06:13Z</time>
      </trkpt>
      <trkpt lat="46.01261" lon="6.32936">
        <ele>1255.138428</ele>
        <time>2011-06-14T09:06:19Z</time>
      </trkpt>
      <trkpt lat="46.01256" lon="6.32933">
        <ele>1257.061035</ele>
        <time>2011-06-14T09:06:29Z</time>
      </trkpt>
      <trkpt lat="46.01251" lon="6.32933">
        <ele>1258.50293</ele>
        <time>2011-06-14T09:06:36Z</time>
      </trkpt>
      <trkpt lat="46.01251" lon="6.32939">
        <ele>1259.944824</ele>
        <time>2011-06-14T09:06:45Z</time>
      </trkpt>
      <trkpt lat="46.01254" lon="6.32948">
        <ele>1261.387207</ele>
        <time>2011-06-14T09:06:53Z</time>
      </trkpt>
      <trkpt lat="46.01251" lon="6.32958">
        <ele>1262.829102</ele>
        <time>2011-06-14T09:07:03Z</time>
      </trkpt>
      <trkpt lat="46.01249" lon="6.32967">
        <ele>1265.232422</ele>
        <time>2011-06-14T09:07:10Z</time>
      </trkpt>
      <trkpt lat="46.0125" lon="6.32976">
        <ele>1268.596924</ele>
        <time>2011-06-14T09:07:22Z</time>
      </trkpt>
      <trkpt lat="46.01254" lon="6.32986">
        <ele>1269.55835</ele>
        <time>2011-06-14T09:07:31Z</time>
      </trkpt>
      <trkpt lat="46.01252" lon="6.32995">
        <ele>1271.961426</ele>
        <time>2011-06-14T09:07:42Z</time>
      </trkpt>
      <trkpt lat="46.01253" lon="6.33">
        <ele>1272.922852</ele>
        <time>2011-06-14T09:07:49Z</time>
      </trkpt>
      <trkpt lat="46.01253" lon="6.33008">
        <ele>1274.845459</ele>
        <time>2011-06-14T09:07:58Z</time>
      </trkpt>
      <trkpt lat="46.01259" lon="6.33015">
        <ele>1276.287598</ele>
        <time>2011-06-14T09:08:06Z</time>
      </trkpt>
      <trkpt lat="46.01259" lon="6.33018">
        <ele>1279.171387</ele>
        <time>2011-06-14T09:08:13Z</time>
      </trkpt>
      <trkpt lat="46.0126" lon="6.33023">
        <ele>1281.094238</ele>
        <time>2011-06-14T09:08:21Z</time>
      </trkpt>
      <trkpt lat="46.0126" lon="6.33031">
        <ele>1282.536133</ele>
        <time>2011-06-14T09:08:29Z</time>
      </trkpt>
      <trkpt lat="46.01261" lon="6.33038">
        <ele>1284.939453</ele>
        <time>2011-06-14T09:08:38Z</time>
      </trkpt>
      <trkpt lat="46.01265" lon="6.33043">
        <ele>1286.381348</ele>
        <time>2011-06-14T09:08:46Z</time>
      </trkpt>
      <trkpt lat="46.01269" lon="6.33051">
        <ele>1288.303955</ele>
        <time>2011-06-14T09:08:55Z</time>
      </trkpt>
      <trkpt lat="46.01269" lon="6.33061">
        <ele>1290.707031</ele>
        <time>2011-06-14T09:09:04Z</time>
      </trkpt>
      <trkpt lat="46.01264" lon="6.33068">
        <ele>1292.630127</ele>
        <time>2011-06-14T09:09:11Z</time>
      </trkpt>
      <trkpt lat="46.01264" lon="6.33076">
        <ele>1295.513916</ele>
        <time>2011-06-14T09:09:21Z</time>
      </trkpt>
      <trkpt lat="46.01262" lon="6.33082">
        <ele>1297.436523</ele>
        <time>2011-06-14T09:09:28Z</time>
      </trkpt>
      <trkpt lat="46.01265" lon="6.33086">
        <ele>1297.436523</ele>
        <time>2011-06-14T09:09:34Z</time>
      </trkpt>
      <trkpt lat="46.01265" lon="6.33094">
        <ele>1298.878418</ele>
        <time>2011-06-14T09:09:41Z</time>
      </trkpt>
      <trkpt lat="46.01266" lon="6.33102">
        <ele>1299.359131</ele>
        <time>2011-06-14T09:09:48Z</time>
      </trkpt>
      <trkpt lat="46.01263" lon="6.3311">
        <ele>1301.281738</ele>
        <time>2011-06-14T09:09:57Z</time>
      </trkpt>
      <trkpt lat="46.01261" lon="6.33116">
        <ele>1302.24292</ele>
        <time>2011-06-14T09:10:05Z</time>
      </trkpt>
      <trkpt lat="46.01257" lon="6.33117">
        <ele>1305.126953</ele>
        <time>2011-06-14T09:10:13Z</time>
      </trkpt>
      <trkpt lat="46.01252" lon="6.33121">
        <ele>1307.049561</ele>
        <time>2011-06-14T09:10:22Z</time>
      </trkpt>
      <trkpt lat="46.01248" lon="6.33127">
        <ele>1308.491699</ele>
        <time>2011-06-14T09:10:30Z</time>
      </trkpt>
      <trkpt lat="46.01248" lon="6.33136">
        <ele>1310.414307</ele>
        <time>2011-06-14T09:10:38Z</time>
      </trkpt>
      <trkpt lat="46.01251" lon="6.33143">
        <ele>1311.375732</ele>
        <time>2011-06-14T09:10:44Z</time>
      </trkpt>
      <trkpt lat="46.01246" lon="6.33144">
        <ele>1312.817627</ele>
        <time>2011-06-14T09:10:51Z</time>
      </trkpt>
      <trkpt lat="46.01242" lon="6.33143">
        <ele>1315.220947</ele>
        <time>2011-06-14T09:10:58Z</time>
      </trkpt>
      <trkpt lat="46.01235" lon="6.33142">
        <ele>1317.143555</ele>
        <time>2011-06-14T09:11:07Z</time>
      </trkpt>
      <trkpt lat="46.0123" lon="6.33142">
        <ele>1319.066162</ele>
        <time>2011-06-14T09:11:17Z</time>
      </trkpt>
      <trkpt lat="46.01219" lon="6.33142">
        <ele>1321.469238</ele>
        <time>2011-06-14T09:11:29Z</time>
      </trkpt>
      <trkpt lat="46.01214" lon="6.33137">
        <ele>1323.39209</ele>
        <time>2011-06-14T09:11:36Z</time>
      </trkpt>
      <trkpt lat="46.01208" lon="6.3314">
        <ele>1324.834229</ele>
        <time>2011-06-14T09:11:43Z</time>
      </trkpt>
      <trkpt lat="46.01203" lon="6.33142">
        <ele>1326.276123</ele>
        <time>2011-06-14T09:11:49Z</time>
      </trkpt>
      <trkpt lat="46.01201" lon="6.3314">
        <ele>1326.756836</ele>
        <time>2011-06-14T09:12:08Z</time>
      </trkpt>
      <trkpt lat="46.01198" lon="6.33136">
        <ele>1328.679443</ele>
        <time>2011-06-14T09:13:24Z</time>
      </trkpt>
      <trkpt lat="46.01191" lon="6.33128">
        <ele>1330.602051</ele>
        <time>2011-06-14T09:13:34Z</time>
      </trkpt>
      <trkpt lat="46.01183" lon="6.33119">
        <ele>1332.524658</ele>
        <time>2011-06-14T09:13:45Z</time>
      </trkpt>
      <trkpt lat="46.01177" lon="6.33112">
        <ele>1333.48584</ele>
        <time>2011-06-14T09:13:54Z</time>
      </trkpt>
      <trkpt lat="46.01174" lon="6.33106">
        <ele>1334.927979</ele>
        <time>2011-06-14T09:14:02Z</time>
      </trkpt>
      <trkpt lat="46.01168" lon="6.33094">
        <ele>1337.331055</ele>
        <time>2011-06-14T09:14:13Z</time>
      </trkpt>
      <trkpt lat="46.01167" lon="6.33087">
        <ele>1337.811768</ele>
        <time>2011-06-14T09:14:18Z</time>
      </trkpt>
      <trkpt lat="46.01168" lon="6.33078">
        <ele>1337.811768</ele>
        <time>2011-06-14T09:14:26Z</time>
      </trkpt>
      <trkpt lat="46.01168" lon="6.3307">
        <ele>1337.331055</ele>
        <time>2011-06-14T09:14:34Z</time>
      </trkpt>
      <trkpt lat="46.01164" lon="6.33059">
        <ele>1336.369873</ele>
        <time>2011-06-14T09:14:43Z</time>
      </trkpt>
      <trkpt lat="46.01161" lon="6.33047">
        <ele>1335.408447</ele>
        <time>2011-06-14T09:14:50Z</time>
      </trkpt>
      <trkpt lat="46.0116" lon="6.33035">
        <ele>1335.408447</ele>
        <time>2011-06-14T09:14:59Z</time>
      </trkpt>
      <trkpt lat="46.01162" lon="6.33028">
        <ele>1335.408447</ele>
        <time>2011-06-14T09:15:09Z</time>
      </trkpt>
      <trkpt lat="46.01162" lon="6.33019">
        <ele>1340.695801</ele>
        <time>2011-06-14T09:23:43Z</time>
      </trkpt>
      <trkpt lat="46.01161" lon="6.33016">
        <ele>1341.176514</ele>
        <time>2011-06-14T09:24:16Z</time>
      </trkpt>
      <trkpt lat="46.01158" lon="6.3301">
        <ele>1341.176514</ele>
        <time>2011-06-14T09:24:29Z</time>
      </trkpt>
      <trkpt lat="46.01152" lon="6.32998">
        <ele>1340.695801</ele>
        <time>2011-06-14T09:24:41Z</time>
      </trkpt>
      <trkpt lat="46.01148" lon="6.32989">
        <ele>1341.176514</ele>
        <time>2011-06-14T09:24:50Z</time>
      </trkpt>
      <trkpt lat="46.01142" lon="6.32978">
        <ele>1340.695801</ele>
        <time>2011-06-14T09:24:59Z</time>
      </trkpt>
      <trkpt lat="46.01135" lon="6.32967">
        <ele>1339.734375</ele>
        <time>2011-06-14T09:25:08Z</time>
      </trkpt>
      <trkpt lat="46.01125" lon="6.32963">
        <ele>1338.29248</ele>
        <time>2011-06-14T09:25:17Z</time>
      </trkpt>
      <trkpt lat="46.01118" lon="6.3296">
        <ele>1338.29248</ele>
        <time>2011-06-14T09:25:24Z</time>
      </trkpt>
      <trkpt lat="46.01111" lon="6.32955">
        <ele>1338.29248</ele>
        <time>2011-06-14T09:25:31Z</time>
      </trkpt>
      <trkpt lat="46.01102" lon="6.32951">
        <ele>1339.734375</ele>
        <time>2011-06-14T09:25:38Z</time>
      </trkpt>
      <trkpt lat="46.0109" lon="6.32943">
        <ele>1340.215332</ele>
        <time>2011-06-14T09:25:47Z</time>
      </trkpt>
      <trkpt lat="46.0108" lon="6.32934">
        <ele>1341.176514</ele>
        <time>2011-06-14T09:25:56Z</time>
      </trkpt>
      <trkpt lat="46.01071" lon="6.32931">
        <ele>1341.657227</ele>
        <time>2011-06-14T09:26:04Z</time>
      </trkpt>
      <trkpt lat="46.01064" lon="6.32927">
        <ele>1343.579834</ele>
        <time>2011-06-14T09:26:11Z</time>
      </trkpt>
      <trkpt lat="46.01062" lon="6.32926">
        <ele>1345.021729</ele>
        <time>2011-06-14T09:26:14Z</time>
      </trkpt>
      <trkpt lat="46.01054" lon="6.32916">
        <ele>1345.983154</ele>
        <time>2011-06-14T09:26:24Z</time>
      </trkpt>
      <trkpt lat="46.01043" lon="6.32916">
        <ele>1345.502441</ele>
        <time>2011-06-14T09:26:33Z</time>
      </trkpt>
      <trkpt lat="46.01031" lon="6.32924">
        <ele>1345.502441</ele>
        <time>2011-06-14T09:26:43Z</time>
      </trkpt>
      <trkpt lat="46.01023" lon="6.32934">
        <ele>1345.502441</ele>
        <time>2011-06-14T09:26:52Z</time>
      </trkpt>
      <trkpt lat="46.01018" lon="6.32939">
        <ele>1345.502441</ele>
        <time>2011-06-14T09:26:57Z</time>
      </trkpt>
      <trkpt lat="46.01016" lon="6.32942">
        <ele>1345.502441</ele>
        <time>2011-06-14T09:27:00Z</time>
      </trkpt>
      <trkpt lat="46.0101" lon="6.32956">
        <ele>1345.021729</ele>
        <time>2011-06-14T09:27:09Z</time>
      </trkpt>
      <trkpt lat="46.01002" lon="6.32968">
        <ele>1344.541016</ele>
        <time>2011-06-14T09:27:18Z</time>
      </trkpt>
      <trkpt lat="46.00993" lon="6.32979">
        <ele>1342.618652</ele>
        <time>2011-06-14T09:27:27Z</time>
      </trkpt>
      <trkpt lat="46.00984" lon="6.32988">
        <ele>1343.099121</ele>
        <time>2011-06-14T09:27:36Z</time>
      </trkpt>
      <trkpt lat="46.00975" lon="6.32994">
        <ele>1345.021729</ele>
        <time>2011-06-14T09:27:46Z</time>
      </trkpt>
      <trkpt lat="46.00964" lon="6.33004">
        <ele>1344.541016</ele>
        <time>2011-06-14T09:27:57Z</time>
      </trkpt>
      <trkpt lat="46.00953" lon="6.33021">
        <ele>1345.021729</ele>
        <time>2011-06-14T09:28:10Z</time>
      </trkpt>
      <trkpt lat="46.00947" lon="6.3303">
        <ele>1346.463867</ele>
        <time>2011-06-14T09:28:19Z</time>
      </trkpt>
      <trkpt lat="46.00941" lon="6.33042">
        <ele>1347.905762</ele>
        <time>2011-06-14T09:28:28Z</time>
      </trkpt>
      <trkpt lat="46.00936" lon="6.33058">
        <ele>1347.425049</ele>
        <time>2011-06-14T09:28:38Z</time>
      </trkpt>
      <trkpt lat="46.00934" lon="6.33072">
        <ele>1347.905762</ele>
        <time>2011-06-14T09:28:46Z</time>
      </trkpt>
      <trkpt lat="46.00934" lon="6.33075">
        <ele>1348.38623</ele>
        <time>2011-06-14T09:28:48Z</time>
      </trkpt>
      <trkpt lat="46.00935" lon="6.33088">
        <ele>1349.828369</ele>
        <time>2011-06-14T09:28:57Z</time>
      </trkpt>
      <trkpt lat="46.00931" lon="6.33096">
        <ele>1350.309082</ele>
        <time>2011-06-14T09:29:04Z</time>
      </trkpt>
      <trkpt lat="46.00927" lon="6.33101">
        <ele>1350.309082</ele>
        <time>2011-06-14T09:29:11Z</time>
      </trkpt>
      <trkpt lat="46.00921" lon="6.33111">
        <ele>1352.712158</ele>
        <time>2011-06-14T09:29:21Z</time>
      </trkpt>
      <trkpt lat="46.00917" lon="6.33127">
        <ele>1354.634766</ele>
        <time>2011-06-14T09:29:33Z</time>
      </trkpt>
      <trkpt lat="46.00914" lon="6.33143">
        <ele>1356.557617</ele>
        <time>2011-06-14T09:29:45Z</time>
      </trkpt>
      <trkpt lat="46.0091" lon="6.33155">
        <ele>1358.960938</ele>
        <time>2011-06-14T09:29:56Z</time>
      </trkpt>
      <trkpt lat="46.00907" lon="6.33161">
        <ele>1359.922119</ele>
        <time>2011-06-14T09:30:03Z</time>
      </trkpt>
      <trkpt lat="46.00903" lon="6.33169">
        <ele>1360.402832</ele>
        <time>2011-06-14T09:30:13Z</time>
      </trkpt>
      <trkpt lat="46.00901" lon="6.33178">
        <ele>1361.364258</ele>
        <time>2011-06-14T09:30:22Z</time>
      </trkpt>
      <trkpt lat="46.00898" lon="6.33185">
        <ele>1363.767334</ele>
        <time>2011-06-14T09:30:29Z</time>
      </trkpt>
      <trkpt lat="46.00895" lon="6.33194">
        <ele>1363.767334</ele>
        <time>2011-06-14T09:30:37Z</time>
      </trkpt>
      <trkpt lat="46.00893" lon="6.332">
        <ele>1365.690186</ele>
        <time>2011-06-14T09:30:43Z</time>
      </trkpt>
      <trkpt lat="46.00889" lon="6.33205">
        <ele>1366.651367</ele>
        <time>2011-06-14T09:30:50Z</time>
      </trkpt>
      <trkpt lat="46.00885" lon="6.3321">
        <ele>1368.093262</ele>
        <time>2011-06-14T09:30:56Z</time>
      </trkpt>
      <trkpt lat="46.00881" lon="6.33212">
        <ele>1369.5354</ele>
        <time>2011-06-14T09:31:01Z</time>
      </trkpt>
      <trkpt lat="46.00875" lon="6.33217">
        <ele>1370.977295</ele>
        <time>2011-06-14T09:31:10Z</time>
      </trkpt>
      <trkpt lat="46.00871" lon="6.33223">
        <ele>1372.419434</ele>
        <time>2011-06-14T09:31:18Z</time>
      </trkpt>
      <trkpt lat="46.00865" lon="6.33232">
        <ele>1374.342041</ele>
        <time>2011-06-14T09:31:29Z</time>
      </trkpt>
      <trkpt lat="46.00863" lon="6.33242">
        <ele>1377.226074</ele>
        <time>2011-06-14T09:31:39Z</time>
      </trkpt>
      <trkpt lat="46.0086" lon="6.33252">
        <ele>1378.187256</ele>
        <time>2011-06-14T09:31:48Z</time>
      </trkpt>
      <trkpt lat="46.00859" lon="6.33262">
        <ele>1380.109863</ele>
        <time>2011-06-14T09:31:58Z</time>
      </trkpt>
      <trkpt lat="46.00858" lon="6.33272">
        <ele>1382.032471</ele>
        <time>2011-06-14T09:32:08Z</time>
      </trkpt>
      <trkpt lat="46.00858" lon="6.33282">
        <ele>1383.955078</ele>
        <time>2011-06-14T09:32:18Z</time>
      </trkpt>
      <trkpt lat="46.00857" lon="6.33296">
        <ele>1386.358398</ele>
        <time>2011-06-14T09:32:31Z</time>
      </trkpt>
      <trkpt lat="46.00857" lon="6.33307">
        <ele>1388.28125</ele>
        <time>2011-06-14T09:32:41Z</time>
      </trkpt>
      <trkpt lat="46.00854" lon="6.33321">
        <ele>1392.126465</ele>
        <time>2011-06-14T09:32:53Z</time>
      </trkpt>
      <trkpt lat="46.00854" lon="6.33331">
        <ele>1394.049072</ele>
        <time>2011-06-14T09:33:02Z</time>
      </trkpt>
      <trkpt lat="46.00855" lon="6.33334">
        <ele>1395.010254</ele>
        <time>2011-06-14T09:33:05Z</time>
      </trkpt>
      <trkpt lat="46.00856" lon="6.33346">
        <ele>1395.97168</ele>
        <time>2011-06-14T09:33:15Z</time>
      </trkpt>
      <trkpt lat="46.00856" lon="6.33349">
        <ele>1396.452393</ele>
        <time>2011-06-14T09:33:18Z</time>
      </trkpt>
      <trkpt lat="46.00858" lon="6.33366">
        <ele>1398.855469</ele>
        <time>2011-06-14T09:33:31Z</time>
      </trkpt>
      <trkpt lat="46.00858" lon="6.33374">
        <ele>1400.297607</ele>
        <time>2011-06-14T09:33:39Z</time>
      </trkpt>
      <trkpt lat="46.00862" lon="6.33386">
        <ele>1402.219971</ele>
        <time>2011-06-14T09:33:49Z</time>
      </trkpt>
      <trkpt lat="46.00867" lon="6.33392">
        <ele>1403.662109</ele>
        <time>2011-06-14T09:33:55Z</time>
      </trkpt>
      <trkpt lat="46.0087" lon="6.33396">
        <ele>1404.623535</ele>
        <time>2011-06-14T09:34:00Z</time>
      </trkpt>
      <trkpt lat="46.00874" lon="6.334">
        <ele>1405.584961</ele>
        <time>2011-06-14T09:34:07Z</time>
      </trkpt>
      <trkpt lat="46.00878" lon="6.33402">
        <ele>1407.988281</ele>
        <time>2011-06-14T09:34:17Z</time>
      </trkpt>
      <trkpt lat="46.00882" lon="6.33407">
        <ele>1408.949463</ele>
        <time>2011-06-14T09:34:23Z</time>
      </trkpt>
      <trkpt lat="46.00891" lon="6.33417">
        <ele>1410.391357</ele>
        <time>2011-06-14T09:34:32Z</time>
      </trkpt>
      <trkpt lat="46.00901" lon="6.33426">
        <ele>1411.833496</ele>
        <time>2011-06-14T09:34:40Z</time>
      </trkpt>
      <trkpt lat="46.00904" lon="6.33437">
        <ele>1414.236572</ele>
        <time>2011-06-14T09:34:49Z</time>
      </trkpt>
      <trkpt lat="46.00897" lon="6.33448">
        <ele>1415.197998</ele>
        <time>2011-06-14T09:34:57Z</time>
      </trkpt>
      <trkpt lat="46.00889" lon="6.33457">
        <ele>1417.601074</ele>
        <time>2011-06-14T09:35:06Z</time>
      </trkpt>
      <trkpt lat="46.00885" lon="6.33464">
        <ele>1420.004639</ele>
        <time>2011-06-14T09:35:13Z</time>
      </trkpt>
      <trkpt lat="46.00887" lon="6.33472">
        <ele>1421.446533</ele>
        <time>2011-06-14T09:35:20Z</time>
      </trkpt>
      <trkpt lat="46.00892" lon="6.33475">
        <ele>1422.888672</ele>
        <time>2011-06-14T09:35:27Z</time>
      </trkpt>
      <trkpt lat="46.00893" lon="6.33476">
        <ele>1423.849854</ele>
        <time>2011-06-14T09:35:29Z</time>
      </trkpt>
      <trkpt lat="46.00897" lon="6.33482">
        <ele>1426.253174</ele>
        <time>2011-06-14T09:35:39Z</time>
      </trkpt>
      <trkpt lat="46.009" lon="6.3349">
        <ele>1428.175781</ele>
        <time>2011-06-14T09:35:46Z</time>
      </trkpt>
      <trkpt lat="46.00901" lon="6.33492">
        <ele>1428.656494</ele>
        <time>2011-06-14T09:35:48Z</time>
      </trkpt>
      <trkpt lat="46.00907" lon="6.33506">
        <ele>1430.579102</ele>
        <time>2011-06-14T09:35:57Z</time>
      </trkpt>
      <trkpt lat="46.00911" lon="6.33516">
        <ele>1431.540283</ele>
        <time>2011-06-14T09:36:05Z</time>
      </trkpt>
      <trkpt lat="46.0092" lon="6.3352">
        <ele>1432.501709</ele>
        <time>2011-06-14T09:36:16Z</time>
      </trkpt>
      <trkpt lat="46.00926" lon="6.33525">
        <ele>1433.462891</ele>
        <time>2011-06-14T09:36:24Z</time>
      </trkpt>
      <trkpt lat="46.0093" lon="6.33537">
        <ele>1433.943604</ele>
        <time>2011-06-14T09:36:33Z</time>
      </trkpt>
      <trkpt lat="46.0093" lon="6.33543">
        <ele>1434.424316</ele>
        <time>2011-06-14T09:36:37Z</time>
      </trkpt>
      <trkpt lat="46.00924" lon="6.33555">
        <ele>1435.385498</ele>
        <time>2011-06-14T09:36:46Z</time>
      </trkpt>
      <trkpt lat="46.00919" lon="6.33567">
        <ele>1435.866211</ele>
        <time>2011-06-14T09:36:55Z</time>
      </trkpt>
      <trkpt lat="46.00917" lon="6.33573">
        <ele>1435.866211</ele>
        <time>2011-06-14T09:36:59Z</time>
      </trkpt>
      <trkpt lat="46.00913" lon="6.33596">
        <ele>1435.385498</ele>
        <time>2011-06-14T09:37:11Z</time>
      </trkpt>
      <trkpt lat="46.00912" lon="6.33608">
        <ele>1435.866211</ele>
        <time>2011-06-14T09:37:18Z</time>
      </trkpt>
      <trkpt lat="46.0091" lon="6.33623">
        <ele>1436.347168</ele>
        <time>2011-06-14T09:37:29Z</time>
      </trkpt>
      <trkpt lat="46.0091" lon="6.33633">
        <ele>1437.789063</ele>
        <time>2011-06-14T09:37:38Z</time>
      </trkpt>
      <trkpt lat="46.00908" lon="6.33646">
        <ele>1438.269775</ele>
        <time>2011-06-14T09:37:46Z</time>
      </trkpt>
      <trkpt lat="46.00907" lon="6.33657">
        <ele>1438.269775</ele>
        <time>2011-06-14T09:37:53Z</time>
      </trkpt>
      <trkpt lat="46.00902" lon="6.33671">
        <ele>1438.269775</ele>
        <time>2011-06-14T09:38:01Z</time>
      </trkpt>
      <trkpt lat="46.00903" lon="6.33684">
        <ele>1438.750488</ele>
        <time>2011-06-14T09:38:08Z</time>
      </trkpt>
      <trkpt lat="46.00904" lon="6.337">
        <ele>1439.71167</ele>
        <time>2011-06-14T09:38:18Z</time>
      </trkpt>
      <trkpt lat="46.00906" lon="6.33713">
        <ele>1441.634277</ele>
        <time>2011-06-14T09:38:27Z</time>
      </trkpt>
      <trkpt lat="46.0091" lon="6.33723">
        <ele>1443.556885</ele>
        <time>2011-06-14T09:38:36Z</time>
      </trkpt>
      <trkpt lat="46.00912" lon="6.33737">
        <ele>1445.960205</ele>
        <time>2011-06-14T09:38:46Z</time>
      </trkpt>
      <trkpt lat="46.00915" lon="6.33747">
        <ele>1447.4021</ele>
        <time>2011-06-14T09:38:54Z</time>
      </trkpt>
      <trkpt lat="46.00917" lon="6.33752">
        <ele>1449.80542</ele>
        <time>2011-06-14T09:39:01Z</time>
      </trkpt>
      <trkpt lat="46.00921" lon="6.33757">
        <ele>1451.247314</ele>
        <time>2011-06-14T09:39:08Z</time>
      </trkpt>
      <trkpt lat="46.00929" lon="6.33769">
        <ele>1452.20874</ele>
        <time>2011-06-14T09:39:18Z</time>
      </trkpt>
      <trkpt lat="46.00935" lon="6.33778">
        <ele>1452.689453</ele>
        <time>2011-06-14T09:39:26Z</time>
      </trkpt>
      <trkpt lat="46.00942" lon="6.33786">
        <ele>1453.650879</ele>
        <time>2011-06-14T09:39:32Z</time>
      </trkpt>
      <trkpt lat="46.00946" lon="6.33804">
        <ele>1454.131592</ele>
        <time>2011-06-14T09:39:43Z</time>
      </trkpt>
      <trkpt lat="46.0095" lon="6.33816">
        <ele>1455.573486</ele>
        <time>2011-06-14T09:39:52Z</time>
      </trkpt>
      <trkpt lat="46.00952" lon="6.33832">
        <ele>1456.053955</ele>
        <time>2011-06-14T09:40:01Z</time>
      </trkpt>
      <trkpt lat="46.00956" lon="6.33848">
        <ele>1457.015381</ele>
        <time>2011-06-14T09:40:12Z</time>
      </trkpt>
      <trkpt lat="46.00961" lon="6.33864">
        <ele>1457.496094</ele>
        <time>2011-06-14T09:40:23Z</time>
      </trkpt>
      <trkpt lat="46.00962" lon="6.33877">
        <ele>1458.457275</ele>
        <time>2011-06-14T09:40:31Z</time>
      </trkpt>
      <trkpt lat="46.00961" lon="6.33892">
        <ele>1460.860596</ele>
        <time>2011-06-14T09:40:40Z</time>
      </trkpt>
      <trkpt lat="46.00959" lon="6.33904">
        <ele>1461.341309</ele>
        <time>2011-06-14T09:40:50Z</time>
      </trkpt>
      <trkpt lat="46.00953" lon="6.3392">
        <ele>1461.822021</ele>
        <time>2011-06-14T09:41:00Z</time>
      </trkpt>
      <trkpt lat="46.00952" lon="6.3393">
        <ele>1462.783203</ele>
        <time>2011-06-14T09:41:06Z</time>
      </trkpt>
      <trkpt lat="46.00953" lon="6.33944">
        <ele>1464.225098</ele>
        <time>2011-06-14T09:41:15Z</time>
      </trkpt>
      <trkpt lat="46.00954" lon="6.3396">
        <ele>1465.186523</ele>
        <time>2011-06-14T09:41:25Z</time>
      </trkpt>
      <trkpt lat="46.00956" lon="6.33976">
        <ele>1466.628418</ele>
        <time>2011-06-14T09:41:35Z</time>
      </trkpt>
      <trkpt lat="46.00961" lon="6.33992">
        <ele>1469.031982</ele>
        <time>2011-06-14T09:41:47Z</time>
      </trkpt>
      <trkpt lat="46.00962" lon="6.33997">
        <ele>1469.993164</ele>
        <time>2011-06-14T09:41:51Z</time>
      </trkpt>
      <trkpt lat="46.00966" lon="6.34018">
        <ele>1472.396484</ele>
        <time>2011-06-14T09:42:05Z</time>
      </trkpt>
      <trkpt lat="46.00967" lon="6.34029">
        <ele>1473.35791</ele>
        <time>2011-06-14T09:42:13Z</time>
      </trkpt>
      <trkpt lat="46.00973" lon="6.34045">
        <ele>1474.319092</ele>
        <time>2011-06-14T09:42:26Z</time>
      </trkpt>
      <trkpt lat="46.0098" lon="6.34062">
        <ele>1475.760986</ele>
        <time>2011-06-14T09:42:39Z</time>
      </trkpt>
      <trkpt lat="46.00984" lon="6.34075">
        <ele>1478.164307</ele>
        <time>2011-06-14T09:42:49Z</time>
      </trkpt>
      <trkpt lat="46.00987" lon="6.34089">
        <ele>1480.567627</ele>
        <time>2011-06-14T09:43:01Z</time>
      </trkpt>
      <trkpt lat="46.00988" lon="6.341">
        <ele>1482.009521</ele>
        <time>2011-06-14T09:43:10Z</time>
      </trkpt>
      <trkpt lat="46.00988" lon="6.34118">
        <ele>1483.451416</ele>
        <time>2011-06-14T09:43:22Z</time>
      </trkpt>
      <trkpt lat="46.00987" lon="6.34125">
        <ele>1484.413086</ele>
        <time>2011-06-14T09:43:31Z</time>
      </trkpt>
      <trkpt lat="46.00987" lon="6.3413">
        <ele>1484.413086</ele>
        <time>2011-06-14T09:43:41Z</time>
      </trkpt>
      <trkpt lat="46.00986" lon="6.34143">
        <ele>1486.335693</ele>
        <time>2011-06-14T09:43:51Z</time>
      </trkpt>
      <trkpt lat="46.00985" lon="6.34161">
        <ele>1488.258301</ele>
        <time>2011-06-14T09:44:05Z</time>
      </trkpt>
      <trkpt lat="46.0098" lon="6.34171">
        <ele>1489.219482</ele>
        <time>2011-06-14T09:44:16Z</time>
      </trkpt>
      <trkpt lat="46.00976" lon="6.34178">
        <ele>1488.739014</ele>
        <time>2011-06-14T09:51:07Z</time>
      </trkpt>
      <trkpt lat="46.00973" lon="6.34185">
        <ele>1488.739014</ele>
        <time>2011-06-14T09:51:13Z</time>
      </trkpt>
      <trkpt lat="46.00976" lon="6.34195">
        <ele>1488.258301</ele>
        <time>2011-06-14T09:51:20Z</time>
      </trkpt>
      <trkpt lat="46.00985" lon="6.34207">
        <ele>1489.700195</ele>
        <time>2011-06-14T09:51:31Z</time>
      </trkpt>
      <trkpt lat="46.0099" lon="6.34219">
        <ele>1491.14209</ele>
        <time>2011-06-14T09:51:41Z</time>
      </trkpt>
      <trkpt lat="46.00995" lon="6.34236">
        <ele>1491.622803</ele>
        <time>2011-06-14T09:51:53Z</time>
      </trkpt>
      <trkpt lat="46.01" lon="6.34253">
        <ele>1491.14209</ele>
        <time>2011-06-14T09:52:06Z</time>
      </trkpt>
      <trkpt lat="46.01005" lon="6.34263">
        <ele>1491.622803</ele>
        <time>2011-06-14T09:52:17Z</time>
      </trkpt>
      <trkpt lat="46.01011" lon="6.34271">
        <ele>1493.064697</ele>
        <time>2011-06-14T09:52:26Z</time>
      </trkpt>
      <trkpt lat="46.01016" lon="6.34283">
        <ele>1494.987305</ele>
        <time>2011-06-14T09:52:37Z</time>
      </trkpt>
      <trkpt lat="46.01021" lon="6.34299">
        <ele>1495.94873</ele>
        <time>2011-06-14T09:52:49Z</time>
      </trkpt>
      <trkpt lat="46.01025" lon="6.3431">
        <ele>1496.429443</ele>
        <time>2011-06-14T09:52:58Z</time>
      </trkpt>
      <trkpt lat="46.01031" lon="6.34324">
        <ele>1496.909912</ele>
        <time>2011-06-14T09:53:09Z</time>
      </trkpt>
      <trkpt lat="46.01034" lon="6.34338">
        <ele>1496.909912</ele>
        <time>2011-06-14T09:53:18Z</time>
      </trkpt>
      <trkpt lat="46.01038" lon="6.34352">
        <ele>1498.351807</ele>
        <time>2011-06-14T09:53:29Z</time>
      </trkpt>
      <trkpt lat="46.01045" lon="6.34365">
        <ele>1499.793945</ele>
        <time>2011-06-14T09:53:40Z</time>
      </trkpt>
      <trkpt lat="46.01054" lon="6.34378">
        <ele>1499.793945</ele>
        <time>2011-06-14T09:53:52Z</time>
      </trkpt>
      <trkpt lat="46.01056" lon="6.3439">
        <ele>1499.313232</ele>
        <time>2011-06-14T09:54:00Z</time>
      </trkpt>
      <trkpt lat="46.01064" lon="6.34402">
        <ele>1498.83252</ele>
        <time>2011-06-14T09:54:11Z</time>
      </trkpt>
      <trkpt lat="46.01067" lon="6.34412">
        <ele>1499.793945</ele>
        <time>2011-06-14T09:54:20Z</time>
      </trkpt>
      <trkpt lat="46.01067" lon="6.34421">
        <ele>1500.755371</ele>
        <time>2011-06-14T09:54:27Z</time>
      </trkpt>
      <trkpt lat="46.01066" lon="6.34438">
        <ele>1503.639404</ele>
        <time>2011-06-14T09:54:39Z</time>
      </trkpt>
      <trkpt lat="46.01067" lon="6.34447">
        <ele>1505.081299</ele>
        <time>2011-06-14T09:54:47Z</time>
      </trkpt>
      <trkpt lat="46.01066" lon="6.3446">
        <ele>1506.523193</ele>
        <time>2011-06-14T09:54:57Z</time>
      </trkpt>
      <trkpt lat="46.01066" lon="6.34474">
        <ele>1507.965332</ele>
        <time>2011-06-14T09:55:08Z</time>
      </trkpt>
      <trkpt lat="46.01066" lon="6.34487">
        <ele>1510.849121</ele>
        <time>2011-06-14T09:55:19Z</time>
      </trkpt>
      <trkpt lat="46.01065" lon="6.34493">
        <ele>1511.810547</ele>
        <time>2011-06-14T09:55:23Z</time>
      </trkpt>
      <trkpt lat="46.01065" lon="6.34505">
        <ele>1513.73291</ele>
        <time>2011-06-14T09:55:33Z</time>
      </trkpt>
      <trkpt lat="46.01065" lon="6.34519">
        <ele>1515.655762</ele>
        <time>2011-06-14T09:55:45Z</time>
      </trkpt>
      <trkpt lat="46.01068" lon="6.34526">
        <ele>1517.0979</ele>
        <time>2011-06-14T09:55:51Z</time>
      </trkpt>
      <trkpt lat="46.01074" lon="6.34533">
        <ele>1519.020508</ele>
        <time>2011-06-14T09:56:00Z</time>
      </trkpt>
      <trkpt lat="46.01079" lon="6.3454">
        <ele>1521.904297</ele>
        <time>2011-06-14T09:56:09Z</time>
      </trkpt>
      <trkpt lat="46.01084" lon="6.3454">
        <ele>1523.346436</ele>
        <time>2011-06-14T09:56:14Z</time>
      </trkpt>
      <trkpt lat="46.01094" lon="6.34526">
        <ele>1524.307617</ele>
        <time>2011-06-14T09:56:27Z</time>
      </trkpt>
      <trkpt lat="46.01098" lon="6.3451">
        <ele>1524.78833</ele>
        <time>2011-06-14T09:56:37Z</time>
      </trkpt>
      <trkpt lat="46.01101" lon="6.3449">
        <ele>1525.268799</ele>
        <time>2011-06-14T09:56:49Z</time>
      </trkpt>
      <trkpt lat="46.01104" lon="6.3449">
        <ele>1526.230225</ele>
        <time>2011-06-14T09:56:55Z</time>
      </trkpt>
      <trkpt lat="46.01107" lon="6.34502">
        <ele>1528.633545</ele>
        <time>2011-06-14T09:57:06Z</time>
      </trkpt>
      <trkpt lat="46.01114" lon="6.34505">
        <ele>1531.517334</ele>
        <time>2011-06-14T09:57:17Z</time>
      </trkpt>
      <trkpt lat="46.01118" lon="6.34508">
        <ele>1532.959473</ele>
        <time>2011-06-14T09:57:25Z</time>
      </trkpt>
      <trkpt lat="46.01123" lon="6.34513">
        <ele>1534.882324</ele>
        <time>2011-06-14T09:57:34Z</time>
      </trkpt>
      <trkpt lat="46.01125" lon="6.34515">
        <ele>1536.804688</ele>
        <time>2011-06-14T09:57:38Z</time>
      </trkpt>
      <trkpt lat="46.01129" lon="6.3452">
        <ele>1540.169434</ele>
        <time>2011-06-14T09:57:47Z</time>
      </trkpt>
      <trkpt lat="46.01132" lon="6.34528">
        <ele>1542.572754</ele>
        <time>2011-06-14T09:57:56Z</time>
      </trkpt>
      <trkpt lat="46.01136" lon="6.34537">
        <ele>1545.456543</ele>
        <time>2011-06-14T09:58:07Z</time>
      </trkpt>
      <trkpt lat="46.0114" lon="6.34547">
        <ele>1547.37915</ele>
        <time>2011-06-14T09:58:17Z</time>
      </trkpt>
      <trkpt lat="46.01145" lon="6.34554">
        <ele>1550.263428</ele>
        <time>2011-06-14T09:58:26Z</time>
      </trkpt>
      <trkpt lat="46.01146" lon="6.34565">
        <ele>1552.666504</ele>
        <time>2011-06-14T09:58:37Z</time>
      </trkpt>
      <trkpt lat="46.01149" lon="6.34572">
        <ele>1554.589111</ele>
        <time>2011-06-14T09:58:45Z</time>
      </trkpt>
      <trkpt lat="46.0115" lon="6.34583">
        <ele>1557.473145</ele>
        <time>2011-06-14T09:58:56Z</time>
      </trkpt>
      <trkpt lat="46.01153" lon="6.34587">
        <ele>1559.876221</ele>
        <time>2011-06-14T09:59:03Z</time>
      </trkpt>
      <trkpt lat="46.01157" lon="6.34593">
        <ele>1562.279541</ele>
        <time>2011-06-14T09:59:12Z</time>
      </trkpt>
      <trkpt lat="46.01159" lon="6.34594">
        <ele>1564.202393</ele>
        <time>2011-06-14T09:59:15Z</time>
      </trkpt>
      <trkpt lat="46.01163" lon="6.346">
        <ele>1566.605713</ele>
        <time>2011-06-14T09:59:24Z</time>
      </trkpt>
      <trkpt lat="46.01164" lon="6.34612">
        <ele>1568.52832</ele>
        <time>2011-06-14T09:59:34Z</time>
      </trkpt>
      <trkpt lat="46.01166" lon="6.3463">
        <ele>1572.854248</ele>
        <time>2011-06-14T09:59:48Z</time>
      </trkpt>
      <trkpt lat="46.01169" lon="6.34644">
        <ele>1575.257324</ele>
        <time>2011-06-14T09:59:58Z</time>
      </trkpt>
      <trkpt lat="46.01171" lon="6.34662">
        <ele>1576.699463</ele>
        <time>2011-06-14T10:00:09Z</time>
      </trkpt>
      <trkpt lat="46.01172" lon="6.34668">
        <ele>1577.660645</ele>
        <time>2011-06-14T10:00:13Z</time>
      </trkpt>
      <trkpt lat="46.01172" lon="6.34687">
        <ele>1578.141357</ele>
        <time>2011-06-14T10:00:23Z</time>
      </trkpt>
      <trkpt lat="46.01174" lon="6.34705">
        <ele>1578.141357</ele>
        <time>2011-06-14T10:00:33Z</time>
      </trkpt>
      <trkpt lat="46.01177" lon="6.34723">
        <ele>1580.064209</ele>
        <time>2011-06-14T10:00:44Z</time>
      </trkpt>
      <trkpt lat="46.01182" lon="6.34745">
        <ele>1581.025635</ele>
        <time>2011-06-14T10:00:57Z</time>
      </trkpt>
      <trkpt lat="46.01185" lon="6.34769">
        <ele>1582.467529</ele>
        <time>2011-06-14T10:01:10Z</time>
      </trkpt>
      <trkpt lat="46.01188" lon="6.34791">
        <ele>1583.909424</ele>
        <time>2011-06-14T10:01:22Z</time>
      </trkpt>
      <trkpt lat="46.01188" lon="6.34811">
        <ele>1584.87085</ele>
        <time>2011-06-14T10:01:33Z</time>
      </trkpt>
      <trkpt lat="46.01188" lon="6.34828">
        <ele>1585.351318</ele>
        <time>2011-06-14T10:01:42Z</time>
      </trkpt>
      <trkpt lat="46.01187" lon="6.34839">
        <ele>1585.351318</ele>
        <time>2011-06-14T10:01:51Z</time>
      </trkpt>
      <trkpt lat="46.01187" lon="6.34845">
        <ele>1585.351318</ele>
        <time>2011-06-14T10:01:56Z</time>
      </trkpt>
      <trkpt lat="46.01184" lon="6.34848">
        <ele>1584.87085</ele>
        <time>2011-06-14T10:02:00Z</time>
      </trkpt>
      <trkpt lat="46.01176" lon="6.34859">
        <ele>1584.87085</ele>
        <time>2011-06-14T10:02:09Z</time>
      </trkpt>
      <trkpt lat="46.01171" lon="6.34874">
        <ele>1585.832031</ele>
        <time>2011-06-14T10:02:20Z</time>
      </trkpt>
      <trkpt lat="46.01168" lon="6.34884">
        <ele>1585.832031</ele>
        <time>2011-06-14T10:02:28Z</time>
      </trkpt>
      <trkpt lat="46.01163" lon="6.34891">
        <ele>1586.793213</ele>
        <time>2011-06-14T10:02:36Z</time>
      </trkpt>
      <trkpt lat="46.01157" lon="6.34893">
        <ele>1587.754639</ele>
        <time>2011-06-14T10:02:44Z</time>
      </trkpt>
      <trkpt lat="46.0115" lon="6.34893">
        <ele>1588.716064</ele>
        <time>2011-06-14T10:02:52Z</time>
      </trkpt>
      <trkpt lat="46.0114" lon="6.34896">
        <ele>1589.677246</ele>
        <time>2011-06-14T10:03:01Z</time>
      </trkpt>
      <trkpt lat="46.01133" lon="6.34898">
        <ele>1589.677246</ele>
        <time>2011-06-14T10:03:08Z</time>
      </trkpt>
      <trkpt lat="46.01124" lon="6.34905">
        <ele>1587.273926</ele>
        <time>2011-06-14T10:03:16Z</time>
      </trkpt>
      <trkpt lat="46.01118" lon="6.34915">
        <ele>1585.832031</ele>
        <time>2011-06-14T10:03:25Z</time>
      </trkpt>
      <trkpt lat="46.01105" lon="6.34921">
        <ele>1584.87085</ele>
        <time>2011-06-14T10:03:36Z</time>
      </trkpt>
      <trkpt lat="46.01092" lon="6.34929">
        <ele>1583.428711</ele>
        <time>2011-06-14T10:03:46Z</time>
      </trkpt>
      <trkpt lat="46.01085" lon="6.34934">
        <ele>1583.909424</ele>
        <time>2011-06-14T10:03:52Z</time>
      </trkpt>
      <trkpt lat="46.0108" lon="6.34948">
        <ele>1581.506104</ele>
        <time>2011-06-14T10:04:01Z</time>
      </trkpt>
      <trkpt lat="46.01077" lon="6.34957">
        <ele>1581.506104</ele>
        <time>2011-06-14T10:04:08Z</time>
      </trkpt>
      <trkpt lat="46.01072" lon="6.34974">
        <ele>1580.544922</ele>
        <time>2011-06-14T10:04:19Z</time>
      </trkpt>
      <trkpt lat="46.01068" lon="6.34985">
        <ele>1582.467529</ele>
        <time>2011-06-14T10:04:28Z</time>
      </trkpt>
      <trkpt lat="46.01062" lon="6.34996">
        <ele>1581.986816</ele>
        <time>2011-06-14T10:04:37Z</time>
      </trkpt>
      <trkpt lat="46.01058" lon="6.35004">
        <ele>1582.947998</ele>
        <time>2011-06-14T10:04:46Z</time>
      </trkpt>
      <trkpt lat="46.01054" lon="6.3501">
        <ele>1585.832031</ele>
        <time>2011-06-14T10:04:54Z</time>
      </trkpt>
      <trkpt lat="46.0105" lon="6.35014">
        <ele>1585.832031</ele>
        <time>2011-06-14T10:04:59Z</time>
      </trkpt>
      <trkpt lat="46.01041" lon="6.35026">
        <ele>1587.754639</ele>
        <time>2011-06-14T10:05:11Z</time>
      </trkpt>
      <trkpt lat="46.01033" lon="6.3504">
        <ele>1587.273926</ele>
        <time>2011-06-14T10:05:23Z</time>
      </trkpt>
      <trkpt lat="46.01023" lon="6.35054">
        <ele>1588.235352</ele>
        <time>2011-06-14T10:05:35Z</time>
      </trkpt>
      <trkpt lat="46.01013" lon="6.35065">
        <ele>1586.793213</ele>
        <time>2011-06-14T10:05:46Z</time>
      </trkpt>
      <trkpt lat="46.01003" lon="6.35079">
        <ele>1587.273926</ele>
        <time>2011-06-14T10:05:56Z</time>
      </trkpt>
      <trkpt lat="46.00987" lon="6.35095">
        <ele>1588.235352</ele>
        <time>2011-06-14T10:06:09Z</time>
      </trkpt>
      <trkpt lat="46.00982" lon="6.35101">
        <ele>1588.235352</ele>
        <time>2011-06-14T10:06:18Z</time>
      </trkpt>
      <trkpt lat="46.00976" lon="6.35106">
        <ele>1589.677246</ele>
        <time>2011-06-14T10:06:25Z</time>
      </trkpt>
      <trkpt lat="46.00971" lon="6.35112">
        <ele>1590.638428</ele>
        <time>2011-06-14T10:06:34Z</time>
      </trkpt>
      <trkpt lat="46.00968" lon="6.35118">
        <ele>1589.677246</ele>
        <time>2011-06-14T10:06:40Z</time>
      </trkpt>
      <trkpt lat="46.00962" lon="6.35126">
        <ele>1590.157959</ele>
        <time>2011-06-14T10:06:47Z</time>
      </trkpt>
      <trkpt lat="46.00958" lon="6.35134">
        <ele>1588.716064</ele>
        <time>2011-06-14T10:06:52Z</time>
      </trkpt>
      <trkpt lat="46.00956" lon="6.35138">
        <ele>1586.793213</ele>
        <time>2011-06-14T10:06:57Z</time>
      </trkpt>
      <trkpt lat="46.00952" lon="6.35141">
        <ele>1585.351318</ele>
        <time>2011-06-14T10:07:02Z</time>
      </trkpt>
      <trkpt lat="46.00936" lon="6.35153">
        <ele>1587.754639</ele>
        <time>2011-06-14T10:07:11Z</time>
      </trkpt>
      <trkpt lat="46.00922" lon="6.35161">
        <ele>1588.235352</ele>
        <time>2011-06-14T10:07:20Z</time>
      </trkpt>
      <trkpt lat="46.00907" lon="6.35169">
        <ele>1592.080566</ele>
        <time>2011-06-14T10:07:31Z</time>
      </trkpt>
      <trkpt lat="46.00903" lon="6.35167">
        <ele>1594.003174</ele>
        <time>2011-06-14T10:07:39Z</time>
      </trkpt>
      <trkpt lat="46.00903" lon="6.3516">
        <ele>1594.483643</ele>
        <time>2011-06-14T10:07:44Z</time>
      </trkpt>
      <trkpt lat="46.00893" lon="6.35163">
        <ele>1595.925781</ele>
        <time>2011-06-14T10:07:50Z</time>
      </trkpt>
      <trkpt lat="46.00885" lon="6.35164">
        <ele>1597.36792</ele>
        <time>2011-06-14T10:07:57Z</time>
      </trkpt>
      <trkpt lat="46.00881" lon="6.35164">
        <ele>1598.809814</ele>
        <time>2011-06-14T10:08:02Z</time>
      </trkpt>
      <trkpt lat="46.00883" lon="6.35167">
        <ele>1602.174316</ele>
        <time>2011-06-14T10:08:16Z</time>
      </trkpt>
      <trkpt lat="46.00879" lon="6.3517">
        <ele>1605.05835</ele>
        <time>2011-06-14T10:08:31Z</time>
      </trkpt>
      <trkpt lat="46.00875" lon="6.35179">
        <ele>1608.903564</ele>
        <time>2011-06-14T10:08:53Z</time>
      </trkpt>
      <trkpt lat="46.00875" lon="6.35185">
        <ele>1611.306885</ele>
        <time>2011-06-14T10:08:58Z</time>
      </trkpt>
      <trkpt lat="46.00871" lon="6.3519">
        <ele>1612.268311</ele>
        <time>2011-06-14T10:09:07Z</time>
      </trkpt>
      <trkpt lat="46.00888" lon="6.35218">
        <ele>1615.152344</ele>
        <time>2011-06-14T10:09:24Z</time>
      </trkpt>
      <trkpt lat="46.00898" lon="6.35236">
        <ele>1617.074951</ele>
        <time>2011-06-14T10:09:34Z</time>
      </trkpt>
      <trkpt lat="46.00902" lon="6.35246">
        <ele>1618.516846</ele>
        <time>2011-06-14T10:09:43Z</time>
      </trkpt>
      <trkpt lat="46.00905" lon="6.35256">
        <ele>1619.478271</ele>
        <time>2011-06-14T10:09:54Z</time>
      </trkpt>
      <trkpt lat="46.00899" lon="6.35266">
        <ele>1619.95874</ele>
        <time>2011-06-14T10:10:03Z</time>
      </trkpt>
      <trkpt lat="46.00897" lon="6.35268">
        <ele>1620.439453</ele>
        <time>2011-06-14T10:10:05Z</time>
      </trkpt>
      <trkpt lat="46.00893" lon="6.35273">
        <ele>1621.400635</ele>
        <time>2011-06-14T10:10:11Z</time>
      </trkpt>
      <trkpt lat="46.00894" lon="6.35284">
        <ele>1622.842773</ele>
        <time>2011-06-14T10:10:22Z</time>
      </trkpt>
      <trkpt lat="46.00892" lon="6.35291">
        <ele>1625.24585</ele>
        <time>2011-06-14T10:10:31Z</time>
      </trkpt>
      <trkpt lat="46.00886" lon="6.35302">
        <ele>1627.64917</ele>
        <time>2011-06-14T10:10:41Z</time>
      </trkpt>
      <trkpt lat="46.00878" lon="6.3531">
        <ele>1629.091309</ele>
        <time>2011-06-14T10:10:49Z</time>
      </trkpt>
      <trkpt lat="46.0087" lon="6.35315">
        <ele>1630.533447</ele>
        <time>2011-06-14T10:10:57Z</time>
      </trkpt>
      <trkpt lat="46.00866" lon="6.35319">
        <ele>1631.494629</ele>
        <time>2011-06-14T10:11:03Z</time>
      </trkpt>
      <trkpt lat="46.00863" lon="6.35323">
        <ele>1631.975342</ele>
        <time>2011-06-14T10:11:11Z</time>
      </trkpt>
      <trkpt lat="46.00857" lon="6.35329">
        <ele>1632.456055</ele>
        <time>2011-06-14T10:11:20Z</time>
      </trkpt>
      <trkpt lat="46.00855" lon="6.35338">
        <ele>1632.936523</ele>
        <time>2011-06-14T10:11:31Z</time>
      </trkpt>
      <trkpt lat="46.00853" lon="6.35342">
        <ele>1633.897949</ele>
        <time>2011-06-14T10:11:39Z</time>
      </trkpt>
      <trkpt lat="46.00851" lon="6.35349">
        <ele>1634.859375</ele>
        <time>2011-06-14T10:11:48Z</time>
      </trkpt>
      <trkpt lat="46.00848" lon="6.35358">
        <ele>1636.781738</ele>
        <time>2011-06-14T10:11:56Z</time>
      </trkpt>
      <trkpt lat="46.00845" lon="6.35363">
        <ele>1637.262451</ele>
        <time>2011-06-14T10:12:03Z</time>
      </trkpt>
      <trkpt lat="46.00841" lon="6.35367">
        <ele>1639.185059</ele>
        <time>2011-06-14T10:12:09Z</time>
      </trkpt>
      <trkpt lat="46.00838" lon="6.35374">
        <ele>1639.185059</ele>
        <time>2011-06-14T10:12:14Z</time>
      </trkpt>
      <trkpt lat="46.00842" lon="6.35382">
        <ele>1641.107666</ele>
        <time>2011-06-14T10:12:24Z</time>
      </trkpt>
      <trkpt lat="46.00853" lon="6.35393">
        <ele>1644.472412</ele>
        <time>2011-06-14T10:12:36Z</time>
      </trkpt>
      <trkpt lat="46.00845" lon="6.35411">
        <ele>1646.875732</ele>
        <time>2011-06-14T10:12:51Z</time>
      </trkpt>
      <trkpt lat="46.00844" lon="6.35418">
        <ele>1647.837158</ele>
        <time>2011-06-14T10:12:59Z</time>
      </trkpt>
      <trkpt lat="46.00845" lon="6.35424">
        <ele>1650.240479</ele>
        <time>2011-06-14T10:13:08Z</time>
      </trkpt>
      <trkpt lat="46.00842" lon="6.35429">
        <ele>1651.682373</ele>
        <time>2011-06-14T10:13:18Z</time>
      </trkpt>
      <trkpt lat="46.00841" lon="6.35435">
        <ele>1653.60498</ele>
        <time>2011-06-14T10:13:28Z</time>
      </trkpt>
      <trkpt lat="46.00838" lon="6.35434">
        <ele>1654.566162</ele>
        <time>2011-06-14T10:13:35Z</time>
      </trkpt>
      <trkpt lat="46.00835" lon="6.35433">
        <ele>1656.969482</ele>
        <time>2011-06-14T10:13:44Z</time>
      </trkpt>
      <trkpt lat="46.0083" lon="6.35438">
        <ele>1658.89209</ele>
        <time>2011-06-14T10:13:53Z</time>
      </trkpt>
      <trkpt lat="46.00829" lon="6.35433">
        <ele>1659.372803</ele>
        <time>2011-06-14T10:14:01Z</time>
      </trkpt>
      <trkpt lat="46.00826" lon="6.35434">
        <ele>1661.295654</ele>
        <time>2011-06-14T10:14:09Z</time>
      </trkpt>
      <trkpt lat="46.00824" lon="6.35428">
        <ele>1664.179443</ele>
        <time>2011-06-14T10:14:25Z</time>
      </trkpt>
      <trkpt lat="46.00822" lon="6.35421">
        <ele>1667.543945</ele>
        <time>2011-06-14T10:14:40Z</time>
      </trkpt>
      <trkpt lat="46.00819" lon="6.35425">
        <ele>1669.466797</ele>
        <time>2011-06-14T10:14:51Z</time>
      </trkpt>
      <trkpt lat="46.00826" lon="6.35429">
        <ele>1670.908691</ele>
        <time>2011-06-14T10:15:01Z</time>
      </trkpt>
      <trkpt lat="46.00834" lon="6.35433">
        <ele>1674.273193</ele>
        <time>2011-06-14T10:15:11Z</time>
      </trkpt>
      <trkpt lat="46.00833" lon="6.35439">
        <ele>1674.273193</ele>
        <time>2011-06-14T10:15:16Z</time>
      </trkpt>
      <trkpt lat="46.00826" lon="6.35443">
        <ele>1676.196045</ele>
        <time>2011-06-14T10:15:25Z</time>
      </trkpt>
      <trkpt lat="46.00824" lon="6.35447">
        <ele>1679.079834</ele>
        <time>2011-06-14T10:15:34Z</time>
      </trkpt>
      <trkpt lat="46.0082" lon="6.35453">
        <ele>1680.521973</ele>
        <time>2011-06-14T10:15:44Z</time>
      </trkpt>
      <trkpt lat="46.00816" lon="6.35458">
        <ele>1681.963867</ele>
        <time>2011-06-14T10:15:54Z</time>
      </trkpt>
      <trkpt lat="46.00815" lon="6.35461">
        <ele>1684.8479</ele>
        <time>2011-06-14T10:16:05Z</time>
      </trkpt>
      <trkpt lat="46.00817" lon="6.35463">
        <ele>1685.809082</ele>
        <time>2011-06-14T10:16:12Z</time>
      </trkpt>
      <trkpt lat="46.00818" lon="6.35464">
        <ele>1686.770264</ele>
        <time>2011-06-14T10:16:19Z</time>
      </trkpt>
      <trkpt lat="46.00817" lon="6.35471">
        <ele>1688.212402</ele>
        <time>2011-06-14T10:16:26Z</time>
      </trkpt>
      <trkpt lat="46.00816" lon="6.35477">
        <ele>1692.057861</ele>
        <time>2011-06-14T10:16:36Z</time>
      </trkpt>
      <trkpt lat="46.00812" lon="6.35481">
        <ele>1692.538574</ele>
        <time>2011-06-14T10:16:44Z</time>
      </trkpt>
      <trkpt lat="46.00805" lon="6.35484">
        <ele>1694.94165</ele>
        <time>2011-06-14T10:16:52Z</time>
      </trkpt>
      <trkpt lat="46.00801" lon="6.3548">
        <ele>1695.903076</ele>
        <time>2011-06-14T10:17:00Z</time>
      </trkpt>
      <trkpt lat="46.00798" lon="6.35482">
        <ele>1697.344971</ele>
        <time>2011-06-14T10:17:07Z</time>
      </trkpt>
      <trkpt lat="46.00791" lon="6.35492">
        <ele>1696.383789</ele>
        <time>2011-06-14T10:33:29Z</time>
      </trkpt>
      <trkpt lat="46.00792" lon="6.35488">
        <ele>1695.903076</ele>
        <time>2011-06-14T10:33:35Z</time>
      </trkpt>
      <trkpt lat="46.00793" lon="6.35484">
        <ele>1696.864258</ele>
        <time>2011-06-14T10:33:43Z</time>
      </trkpt>
      <trkpt lat="46.00794" lon="6.35478">
        <ele>1698.306152</ele>
        <time>2011-06-14T10:33:53Z</time>
      </trkpt>
      <trkpt lat="46.00792" lon="6.35476">
        <ele>1700.709473</ele>
        <time>2011-06-14T10:34:00Z</time>
      </trkpt>
      <trkpt lat="46.0079" lon="6.35471">
        <ele>1701.190186</ele>
        <time>2011-06-14T10:34:08Z</time>
      </trkpt>
      <trkpt lat="46.00787" lon="6.35465">
        <ele>1702.151367</ele>
        <time>2011-06-14T10:34:16Z</time>
      </trkpt>
      <trkpt lat="46.00786" lon="6.35458">
        <ele>1703.593506</ele>
        <time>2011-06-14T10:34:25Z</time>
      </trkpt>
      <trkpt lat="46.00784" lon="6.35454">
        <ele>1705.996582</ele>
        <time>2011-06-14T10:34:33Z</time>
      </trkpt>
      <trkpt lat="46.00784" lon="6.3545">
        <ele>1707.919434</ele>
        <time>2011-06-14T10:34:42Z</time>
      </trkpt>
      <trkpt lat="46.00783" lon="6.35451">
        <ele>1708.880859</ele>
        <time>2011-06-14T10:34:54Z</time>
      </trkpt>
      <trkpt lat="46.00782" lon="6.35446">
        <ele>1710.322754</ele>
        <time>2011-06-14T10:35:06Z</time>
      </trkpt>
      <trkpt lat="46.00782" lon="6.35442">
        <ele>1711.764893</ele>
        <time>2011-06-14T10:35:15Z</time>
      </trkpt>
      <trkpt lat="46.00782" lon="6.35436">
        <ele>1712.726074</ele>
        <time>2011-06-14T10:35:24Z</time>
      </trkpt>
      <trkpt lat="46.00779" lon="6.35427">
        <ele>1715.129395</ele>
        <time>2011-06-14T10:35:37Z</time>
      </trkpt>
      <trkpt lat="46.00777" lon="6.35422">
        <ele>1716.571289</ele>
        <time>2011-06-14T10:35:46Z</time>
      </trkpt>
      <trkpt lat="46.00775" lon="6.3541">
        <ele>1718.974609</ele>
        <time>2011-06-14T10:36:00Z</time>
      </trkpt>
      <trkpt lat="46.00775" lon="6.35403">
        <ele>1720.897217</ele>
        <time>2011-06-14T10:36:09Z</time>
      </trkpt>
      <trkpt lat="46.00778" lon="6.35398">
        <ele>1721.858398</ele>
        <time>2011-06-14T10:36:19Z</time>
      </trkpt>
      <trkpt lat="46.00778" lon="6.35395">
        <ele>1723.300537</ele>
        <time>2011-06-14T10:36:28Z</time>
      </trkpt>
      <trkpt lat="46.00777" lon="6.35396">
        <ele>1725.223145</ele>
        <time>2011-06-14T10:36:37Z</time>
      </trkpt>
      <trkpt lat="46.00777" lon="6.35389">
        <ele>1726.665283</ele>
        <time>2011-06-14T10:36:46Z</time>
      </trkpt>
      <trkpt lat="46.00777" lon="6.35381">
        <ele>1727.145996</ele>
        <time>2011-06-14T10:36:55Z</time>
      </trkpt>
      <trkpt lat="46.0078" lon="6.35377">
        <ele>1729.549072</ele>
        <time>2011-06-14T10:37:03Z</time>
      </trkpt>
      <trkpt lat="46.00783" lon="6.35375">
        <ele>1730.510498</ele>
        <time>2011-06-14T10:37:10Z</time>
      </trkpt>
      <trkpt lat="46.00783" lon="6.3537">
        <ele>1732.913574</ele>
        <time>2011-06-14T10:37:20Z</time>
      </trkpt>
      <trkpt lat="46.00785" lon="6.35365">
        <ele>1733.394287</ele>
        <time>2011-06-14T10:37:30Z</time>
      </trkpt>
      <trkpt lat="46.00785" lon="6.35362">
        <ele>1735.316895</ele>
        <time>2011-06-14T10:37:39Z</time>
      </trkpt>
      <trkpt lat="46.00787" lon="6.35361">
        <ele>1736.758789</ele>
        <time>2011-06-14T10:37:48Z</time>
      </trkpt>
      <trkpt lat="46.00785" lon="6.35352">
        <ele>1740.604248</ele>
        <time>2011-06-14T10:38:05Z</time>
      </trkpt>
      <trkpt lat="46.00788" lon="6.35348">
        <ele>1742.046387</ele>
        <time>2011-06-14T10:38:17Z</time>
      </trkpt>
      <trkpt lat="46.00785" lon="6.35343">
        <ele>1743.007568</ele>
        <time>2011-06-14T10:38:26Z</time>
      </trkpt>
      <trkpt lat="46.00784" lon="6.35336">
        <ele>1744.449463</ele>
        <time>2011-06-14T10:38:35Z</time>
      </trkpt>
      <trkpt lat="46.00783" lon="6.3533">
        <ele>1746.372314</ele>
        <time>2011-06-14T10:38:44Z</time>
      </trkpt>
      <trkpt lat="46.00783" lon="6.35323">
        <ele>1748.294678</ele>
        <time>2011-06-14T10:38:54Z</time>
      </trkpt>
      <trkpt lat="46.00783" lon="6.35318">
        <ele>1750.217529</ele>
        <time>2011-06-14T10:39:03Z</time>
      </trkpt>
      <trkpt lat="46.00783" lon="6.35311">
        <ele>1751.659424</ele>
        <time>2011-06-14T10:39:14Z</time>
      </trkpt>
      <trkpt lat="46.00782" lon="6.35308">
        <ele>1752.139893</ele>
        <time>2011-06-14T10:39:20Z</time>
      </trkpt>
      <trkpt lat="46.00783" lon="6.35304">
        <ele>1754.543213</ele>
        <time>2011-06-14T10:39:29Z</time>
      </trkpt>
      <trkpt lat="46.0078" lon="6.35298">
        <ele>1756.946777</ele>
        <time>2011-06-14T10:39:38Z</time>
      </trkpt>
      <trkpt lat="46.00779" lon="6.35293">
        <ele>1758.388672</ele>
        <time>2011-06-14T10:39:48Z</time>
      </trkpt>
      <trkpt lat="46.00777" lon="6.35286">
        <ele>1759.350098</ele>
        <time>2011-06-14T10:39:58Z</time>
      </trkpt>
      <trkpt lat="46.00776" lon="6.35283">
        <ele>1760.791992</ele>
        <time>2011-06-14T10:40:06Z</time>
      </trkpt>
      <trkpt lat="46.00773" lon="6.35276">
        <ele>1762.7146</ele>
        <time>2011-06-14T10:40:16Z</time>
      </trkpt>
      <trkpt lat="46.00772" lon="6.35272">
        <ele>1763.675781</ele>
        <time>2011-06-14T10:40:23Z</time>
      </trkpt>
      <trkpt lat="46.00771" lon="6.35267">
        <ele>1765.598633</ele>
        <time>2011-06-14T10:40:33Z</time>
      </trkpt>
      <trkpt lat="46.00769" lon="6.35262">
        <ele>1767.520996</ele>
        <time>2011-06-14T10:40:44Z</time>
      </trkpt>
      <trkpt lat="46.00768" lon="6.35258">
        <ele>1768.963135</ele>
        <time>2011-06-14T10:40:52Z</time>
      </trkpt>
      <trkpt lat="46.0077" lon="6.35253">
        <ele>1770.405029</ele>
        <time>2011-06-14T10:41:03Z</time>
      </trkpt>
      <trkpt lat="46.0077" lon="6.35248">
        <ele>1773.289307</ele>
        <time>2011-06-14T10:41:15Z</time>
      </trkpt>
      <trkpt lat="46.0077" lon="6.35242">
        <ele>1774.731201</ele>
        <time>2011-06-14T10:41:24Z</time>
      </trkpt>
      <trkpt lat="46.00768" lon="6.35236">
        <ele>1776.653809</ele>
        <time>2011-06-14T10:41:31Z</time>
      </trkpt>
      <trkpt lat="46.00769" lon="6.35228">
        <ele>1778.095703</ele>
        <time>2011-06-14T10:41:42Z</time>
      </trkpt>
      <trkpt lat="46.00768" lon="6.35222">
        <ele>1778.095703</ele>
        <time>2011-06-14T10:41:50Z</time>
      </trkpt>
      <trkpt lat="46.00768" lon="6.35217">
        <ele>1778.576416</ele>
        <time>2011-06-14T10:41:57Z</time>
      </trkpt>
      <trkpt lat="46.0077" lon="6.35213">
        <ele>1779.056885</ele>
        <time>2011-06-14T10:42:03Z</time>
      </trkpt>
      <trkpt lat="46.00774" lon="6.35207">
        <ele>1780.018311</ele>
        <time>2011-06-14T10:42:12Z</time>
      </trkpt>
      <trkpt lat="46.00776" lon="6.35198">
        <ele>1780.979736</ele>
        <time>2011-06-14T10:42:24Z</time>
      </trkpt>
      <trkpt lat="46.00777" lon="6.35194">
        <ele>1783.863525</ele>
        <time>2011-06-14T10:42:33Z</time>
      </trkpt>
      <trkpt lat="46.00777" lon="6.3519">
        <ele>1785.30542</ele>
        <time>2011-06-14T10:42:42Z</time>
      </trkpt>
      <trkpt lat="46.00781" lon="6.35188">
        <ele>1787.70874</ele>
        <time>2011-06-14T10:42:51Z</time>
      </trkpt>
      <trkpt lat="46.00785" lon="6.35188">
        <ele>1788.67041</ele>
        <time>2011-06-14T10:42:59Z</time>
      </trkpt>
      <trkpt lat="46.00789" lon="6.35189">
        <ele>1789.631592</ele>
        <time>2011-06-14T10:43:08Z</time>
      </trkpt>
      <trkpt lat="46.00789" lon="6.35182">
        <ele>1791.073486</ele>
        <time>2011-06-14T10:43:16Z</time>
      </trkpt>
      <trkpt lat="46.00788" lon="6.35177">
        <ele>1792.996094</ele>
        <time>2011-06-14T10:43:25Z</time>
      </trkpt>
      <trkpt lat="46.00786" lon="6.35173">
        <ele>1794.437988</ele>
        <time>2011-06-14T10:43:33Z</time>
      </trkpt>
      <trkpt lat="46.00787" lon="6.35167">
        <ele>1795.399414</ele>
        <time>2011-06-14T10:43:45Z</time>
      </trkpt>
      <trkpt lat="46.00787" lon="6.35163">
        <ele>1798.283203</ele>
        <time>2011-06-14T10:43:54Z</time>
      </trkpt>
      <trkpt lat="46.00786" lon="6.35157">
        <ele>1799.725342</ele>
        <time>2011-06-14T10:44:05Z</time>
      </trkpt>
      <trkpt lat="46.00783" lon="6.35152">
        <ele>1801.647949</ele>
        <time>2011-06-14T10:44:13Z</time>
      </trkpt>
      <trkpt lat="46.00782" lon="6.35148">
        <ele>1802.128418</ele>
        <time>2011-06-14T10:44:20Z</time>
      </trkpt>
      <trkpt lat="46.00782" lon="6.35143">
        <ele>1803.570557</ele>
        <time>2011-06-14T10:44:30Z</time>
      </trkpt>
      <trkpt lat="46.00782" lon="6.35139">
        <ele>1805.012695</ele>
        <time>2011-06-14T10:44:38Z</time>
      </trkpt>
      <trkpt lat="46.00782" lon="6.35137">
        <ele>1806.45459</ele>
        <time>2011-06-14T10:44:42Z</time>
      </trkpt>
      <trkpt lat="46.00783" lon="6.35132">
        <ele>1807.896729</ele>
        <time>2011-06-14T10:44:50Z</time>
      </trkpt>
      <trkpt lat="46.00783" lon="6.35128">
        <ele>1809.338623</ele>
        <time>2011-06-14T10:44:57Z</time>
      </trkpt>
      <trkpt lat="46.00781" lon="6.35121">
        <ele>1810.299805</ele>
        <time>2011-06-14T10:45:13Z</time>
      </trkpt>
      <trkpt lat="46.0078" lon="6.35115">
        <ele>1813.183838</ele>
        <time>2011-06-14T10:45:23Z</time>
      </trkpt>
      <trkpt lat="46.00781" lon="6.35111">
        <ele>1814.625732</ele>
        <time>2011-06-14T10:45:33Z</time>
      </trkpt>
      <trkpt lat="46.00783" lon="6.35109">
        <ele>1816.54834</ele>
        <time>2011-06-14T10:45:43Z</time>
      </trkpt>
      <trkpt lat="46.00783" lon="6.35106">
        <ele>1817.990234</ele>
        <time>2011-06-14T10:45:50Z</time>
      </trkpt>
      <trkpt lat="46.00783" lon="6.351">
        <ele>1820.393799</ele>
        <time>2011-06-14T10:46:00Z</time>
      </trkpt>
      <trkpt lat="46.00783" lon="6.35096">
        <ele>1822.316406</ele>
        <time>2011-06-14T10:46:07Z</time>
      </trkpt>
      <trkpt lat="46.00782" lon="6.3509">
        <ele>1823.758301</ele>
        <time>2011-06-14T10:46:16Z</time>
      </trkpt>
      <trkpt lat="46.00783" lon="6.35084">
        <ele>1825.200195</ele>
        <time>2011-06-14T10:46:25Z</time>
      </trkpt>
      <trkpt lat="46.0078" lon="6.35077">
        <ele>1825.680908</ele>
        <time>2011-06-14T10:46:35Z</time>
      </trkpt>
      <trkpt lat="46.00779" lon="6.35073">
        <ele>1826.642334</ele>
        <time>2011-06-14T10:46:43Z</time>
      </trkpt>
      <trkpt lat="46.00776" lon="6.35068">
        <ele>1828.564941</ele>
        <time>2011-06-14T10:46:52Z</time>
      </trkpt>
      <trkpt lat="46.00772" lon="6.35066">
        <ele>1831.44873</ele>
        <time>2011-06-14T10:47:02Z</time>
      </trkpt>
      <trkpt lat="46.0077" lon="6.35065">
        <ele>1832.890625</ele>
        <time>2011-06-14T10:47:10Z</time>
      </trkpt>
      <trkpt lat="46.00768" lon="6.35061">
        <ele>1835.293945</ele>
        <time>2011-06-14T10:47:19Z</time>
      </trkpt>
      <trkpt lat="46.00766" lon="6.3506">
        <ele>1835.774658</ele>
        <time>2011-06-14T10:47:30Z</time>
      </trkpt>
      <trkpt lat="46.00764" lon="6.35065">
        <ele>1835.774658</ele>
        <time>2011-06-14T10:47:38Z</time>
      </trkpt>
      <trkpt lat="46.00761" lon="6.35069">
        <ele>1837.216797</ele>
        <time>2011-06-14T10:47:48Z</time>
      </trkpt>
      <trkpt lat="46.00757" lon="6.35077">
        <ele>1837.69751</ele>
        <time>2011-06-14T10:47:58Z</time>
      </trkpt>
      <trkpt lat="46.00755" lon="6.35083">
        <ele>1839.139404</ele>
        <time>2011-06-14T10:48:06Z</time>
      </trkpt>
      <trkpt lat="46.00751" lon="6.35091">
        <ele>1839.139404</ele>
        <time>2011-06-14T10:48:16Z</time>
      </trkpt>
      <trkpt lat="46.00749" lon="6.35093">
        <ele>1839.139404</ele>
        <time>2011-06-14T10:48:19Z</time>
      </trkpt>
      <trkpt lat="46.00747" lon="6.35107">
        <ele>1839.139404</ele>
        <time>2011-06-14T10:48:30Z</time>
      </trkpt>
      <trkpt lat="46.00745" lon="6.35111">
        <ele>1839.620117</ele>
        <time>2011-06-14T10:48:39Z</time>
      </trkpt>
      <trkpt lat="46.00741" lon="6.3511">
        <ele>1842.50415</ele>
        <time>2011-06-14T10:48:49Z</time>
      </trkpt>
      <trkpt lat="46.0074" lon="6.35109">
        <ele>1842.50415</ele>
        <time>2011-06-14T10:48:58Z</time>
      </trkpt>
      <trkpt lat="46.00738" lon="6.3511">
        <ele>1842.50415</ele>
        <time>2011-06-14T10:49:45Z</time>
      </trkpt>
      <trkpt lat="46.00736" lon="6.35106">
        <ele>1842.984619</ele>
        <time>2011-06-14T10:50:25Z</time>
      </trkpt>
      <trkpt lat="46.00735" lon="6.351">
        <ele>1844.426514</ele>
        <time>2011-06-14T10:50:35Z</time>
      </trkpt>
      <trkpt lat="46.00733" lon="6.35093">
        <ele>1846.349365</ele>
        <time>2011-06-14T10:50:46Z</time>
      </trkpt>
      <trkpt lat="46.00733" lon="6.35088">
        <ele>1848.271729</ele>
        <time>2011-06-14T10:50:56Z</time>
      </trkpt>
      <trkpt lat="46.00732" lon="6.35082">
        <ele>1850.675049</ele>
        <time>2011-06-14T10:51:07Z</time>
      </trkpt>
      <trkpt lat="46.00732" lon="6.35076">
        <ele>1852.117188</ele>
        <time>2011-06-14T10:51:19Z</time>
      </trkpt>
      <trkpt lat="46.00733" lon="6.35071">
        <ele>1853.559326</ele>
        <time>2011-06-14T10:51:28Z</time>
      </trkpt>
      <trkpt lat="46.00733" lon="6.3507">
        <ele>1853.559326</ele>
        <time>2011-06-14T10:51:29Z</time>
      </trkpt>
      <trkpt lat="46.00734" lon="6.35065">
        <ele>1855.001221</ele>
        <time>2011-06-14T10:51:39Z</time>
      </trkpt>
      <trkpt lat="46.00734" lon="6.35058">
        <ele>1857.885254</ele>
        <time>2011-06-14T10:51:49Z</time>
      </trkpt>
      <trkpt lat="46.00735" lon="6.35052">
        <ele>1858.365723</ele>
        <time>2011-06-14T10:51:58Z</time>
      </trkpt>
      <trkpt lat="46.00735" lon="6.35049">
        <ele>1861.249756</ele>
        <time>2011-06-14T10:52:07Z</time>
      </trkpt>
      <trkpt lat="46.00734" lon="6.35048">
        <ele>1862.69165</ele>
        <time>2011-06-14T10:52:15Z</time>
      </trkpt>
      <trkpt lat="46.00732" lon="6.35045">
        <ele>1863.172363</ele>
        <time>2011-06-14T10:52:23Z</time>
      </trkpt>
      <trkpt lat="46.00733" lon="6.35043">
        <ele>1864.614258</ele>
        <time>2011-06-14T10:52:30Z</time>
      </trkpt>
      <trkpt lat="46.00732" lon="6.35039">
        <ele>1866.056152</ele>
        <time>2011-06-14T10:52:39Z</time>
      </trkpt>
      <trkpt lat="46.00731" lon="6.35036">
        <ele>1867.017578</ele>
        <time>2011-06-14T10:52:48Z</time>
      </trkpt>
      <trkpt lat="46.00733" lon="6.35034">
        <ele>1868.94043</ele>
        <time>2011-06-14T10:52:57Z</time>
      </trkpt>
      <trkpt lat="46.00734" lon="6.35031">
        <ele>1869.901611</ele>
        <time>2011-06-14T10:53:06Z</time>
      </trkpt>
      <trkpt lat="46.00734" lon="6.35028">
        <ele>1870.863037</ele>
        <time>2011-06-14T10:53:13Z</time>
      </trkpt>
      <trkpt lat="46.00734" lon="6.35025">
        <ele>1872.785645</ele>
        <time>2011-06-14T10:53:22Z</time>
      </trkpt>
      <trkpt lat="46.00733" lon="6.35019">
        <ele>1874.708252</ele>
        <time>2011-06-14T10:53:31Z</time>
      </trkpt>
      <trkpt lat="46.00732" lon="6.35013">
        <ele>1875.188721</ele>
        <time>2011-06-14T10:53:41Z</time>
      </trkpt>
      <trkpt lat="46.00734" lon="6.35012">
        <ele>1877.592041</ele>
        <time>2011-06-14T10:53:50Z</time>
      </trkpt>
      <trkpt lat="46.00735" lon="6.35008">
        <ele>1879.514648</ele>
        <time>2011-06-14T10:53:57Z</time>
      </trkpt>
      <trkpt lat="46.00736" lon="6.35003">
        <ele>1880.956787</ele>
        <time>2011-06-14T10:54:09Z</time>
      </trkpt>
      <trkpt lat="46.0074" lon="6.35006">
        <ele>1882.87915</ele>
        <time>2011-06-14T10:54:19Z</time>
      </trkpt>
      <trkpt lat="46.00745" lon="6.35006">
        <ele>1884.321533</ele>
        <time>2011-06-14T10:54:30Z</time>
      </trkpt>
      <trkpt lat="46.00745" lon="6.35002">
        <ele>1886.244141</ele>
        <time>2011-06-14T10:54:39Z</time>
      </trkpt>
      <trkpt lat="46.00743" lon="6.34994">
        <ele>1886.724609</ele>
        <time>2011-06-14T10:54:51Z</time>
      </trkpt>
      <trkpt lat="46.00747" lon="6.34993">
        <ele>1889.12793</ele>
        <time>2011-06-14T10:55:00Z</time>
      </trkpt>
      <trkpt lat="46.00747" lon="6.3499">
        <ele>1890.569824</ele>
        <time>2011-06-14T10:55:08Z</time>
      </trkpt>
      <trkpt lat="46.0075" lon="6.34991">
        <ele>1891.53125</ele>
        <time>2011-06-14T10:55:17Z</time>
      </trkpt>
      <trkpt lat="46.00755" lon="6.3499">
        <ele>1893.453857</ele>
        <time>2011-06-14T10:55:28Z</time>
      </trkpt>
      <trkpt lat="46.00755" lon="6.34985">
        <ele>1894.415039</ele>
        <time>2011-06-14T10:55:36Z</time>
      </trkpt>
      <trkpt lat="46.00753" lon="6.34981">
        <ele>1895.857178</ele>
        <time>2011-06-14T10:55:45Z</time>
      </trkpt>
      <trkpt lat="46.00756" lon="6.34979">
        <ele>1899.22168</ele>
        <time>2011-06-14T10:55:55Z</time>
      </trkpt>
      <trkpt lat="46.0076" lon="6.34978">
        <ele>1899.702393</ele>
        <time>2011-06-14T10:56:04Z</time>
      </trkpt>
      <trkpt lat="46.00764" lon="6.34974">
        <ele>1901.625244</ele>
        <time>2011-06-14T10:56:17Z</time>
      </trkpt>
      <trkpt lat="46.00765" lon="6.3497">
        <ele>1904.028564</ele>
        <time>2011-06-14T10:56:26Z</time>
      </trkpt>
      <trkpt lat="46.0077" lon="6.34969">
        <ele>1906.431641</ele>
        <time>2011-06-14T10:56:36Z</time>
      </trkpt>
      <trkpt lat="46.00773" lon="6.34965">
        <ele>1907.393066</ele>
        <time>2011-06-14T10:56:47Z</time>
      </trkpt>
      <trkpt lat="46.00772" lon="6.34962">
        <ele>1908.354248</ele>
        <time>2011-06-14T10:56:55Z</time>
      </trkpt>
      <trkpt lat="46.00768" lon="6.34959">
        <ele>1908.834961</ele>
        <time>2011-06-14T10:57:03Z</time>
      </trkpt>
      <trkpt lat="46.00766" lon="6.34957">
        <ele>1909.315674</ele>
        <time>2011-06-14T10:57:10Z</time>
      </trkpt>
      <trkpt lat="46.00759" lon="6.34954">
        <ele>1909.315674</ele>
        <time>2011-06-14T11:01:40Z</time>
      </trkpt>
      <trkpt lat="46.00758" lon="6.34951">
        <ele>1908.834961</ele>
        <time>2011-06-14T11:01:49Z</time>
      </trkpt>
      <trkpt lat="46.00754" lon="6.34948">
        <ele>1905.470459</ele>
        <time>2011-06-14T11:04:26Z</time>
      </trkpt>
      <trkpt lat="46.00749" lon="6.34943">
        <ele>1904.989746</ele>
        <time>2011-06-14T11:04:34Z</time>
      </trkpt>
      <trkpt lat="46.00746" lon="6.34939">
        <ele>1902.105713</ele>
        <time>2011-06-14T11:04:41Z</time>
      </trkpt>
      <trkpt lat="46.00743" lon="6.34935">
        <ele>1900.18335</ele>
        <time>2011-06-14T11:04:46Z</time>
      </trkpt>
      <trkpt lat="46.00738" lon="6.34932">
        <ele>1899.22168</ele>
        <time>2011-06-14T11:04:55Z</time>
      </trkpt>
      <trkpt lat="46.00736" lon="6.34929">
        <ele>1896.818359</ele>
        <time>2011-06-14T11:05:03Z</time>
      </trkpt>
      <trkpt lat="46.00735" lon="6.34928">
        <ele>1895.857178</ele>
        <time>2011-06-14T11:05:05Z</time>
      </trkpt>
      <trkpt lat="46.00733" lon="6.34927">
        <ele>1894.415039</ele>
        <time>2011-06-14T11:05:08Z</time>
      </trkpt>
      <trkpt lat="46.0073" lon="6.34927">
        <ele>1892.011963</ele>
        <time>2011-06-14T11:05:27Z</time>
      </trkpt>
      <trkpt lat="46.00728" lon="6.34924">
        <ele>1890.569824</ele>
        <time>2011-06-14T11:05:41Z</time>
      </trkpt>
      <trkpt lat="46.00725" lon="6.34924">
        <ele>1888.647461</ele>
        <time>2011-06-14T11:05:58Z</time>
      </trkpt>
      <trkpt lat="46.00725" lon="6.34922">
        <ele>1886.724609</ele>
        <time>2011-06-14T11:06:05Z</time>
      </trkpt>
      <trkpt lat="46.00721" lon="6.34915">
        <ele>1883.840576</ele>
        <time>2011-06-14T11:06:18Z</time>
      </trkpt>
      <trkpt lat="46.00717" lon="6.34906">
        <ele>1883.359863</ele>
        <time>2011-06-14T11:06:29Z</time>
      </trkpt>
      <trkpt lat="46.00715" lon="6.34902">
        <ele>1880.956787</ele>
        <time>2011-06-14T11:06:38Z</time>
      </trkpt>
      <trkpt lat="46.00712" lon="6.34896">
        <ele>1878.072754</ele>
        <time>2011-06-14T11:06:46Z</time>
      </trkpt>
      <trkpt lat="46.00709" lon="6.34895">
        <ele>1877.111572</ele>
        <time>2011-06-14T11:06:54Z</time>
      </trkpt>
      <trkpt lat="46.00709" lon="6.34898">
        <ele>1876.630859</ele>
        <time>2011-06-14T11:07:01Z</time>
      </trkpt>
      <trkpt lat="46.00708" lon="6.34901">
        <ele>1874.708252</ele>
        <time>2011-06-14T11:07:09Z</time>
      </trkpt>
      <trkpt lat="46.00708" lon="6.34904">
        <ele>1873.746826</ele>
        <time>2011-06-14T11:07:16Z</time>
      </trkpt>
      <trkpt lat="46.00708" lon="6.34909">
        <ele>1872.304932</ele>
        <time>2011-06-14T11:07:23Z</time>
      </trkpt>
      <trkpt lat="46.00706" lon="6.3491">
        <ele>1870.382324</ele>
        <time>2011-06-14T11:07:31Z</time>
      </trkpt>
      <trkpt lat="46.00704" lon="6.34907">
        <ele>1868.459717</ele>
        <time>2011-06-14T11:08:03Z</time>
      </trkpt>
      <trkpt lat="46.00702" lon="6.34909">
        <ele>1867.017578</ele>
        <time>2011-06-14T11:08:11Z</time>
      </trkpt>
      <trkpt lat="46.007" lon="6.34908">
        <ele>1864.133545</ele>
        <time>2011-06-14T11:08:18Z</time>
      </trkpt>
      <trkpt lat="46.00698" lon="6.34906">
        <ele>1863.652832</ele>
        <time>2011-06-14T11:08:25Z</time>
      </trkpt>
      <trkpt lat="46.00696" lon="6.3491">
        <ele>1861.730469</ele>
        <time>2011-06-14T11:08:33Z</time>
      </trkpt>
      <trkpt lat="46.00693" lon="6.34913">
        <ele>1859.807617</ele>
        <time>2011-06-14T11:08:42Z</time>
      </trkpt>
      <trkpt lat="46.00692" lon="6.34912">
        <ele>1858.365723</ele>
        <time>2011-06-14T11:08:51Z</time>
      </trkpt>
      <trkpt lat="46.00691" lon="6.34909">
        <ele>1857.404541</ele>
        <time>2011-06-14T11:09:00Z</time>
      </trkpt>
      <trkpt lat="46.00688" lon="6.34907">
        <ele>1855.481934</ele>
        <time>2011-06-14T11:09:08Z</time>
      </trkpt>
      <trkpt lat="46.00686" lon="6.34906">
        <ele>1854.520508</ele>
        <time>2011-06-14T11:09:18Z</time>
      </trkpt>
      <trkpt lat="46.00685" lon="6.34909">
        <ele>1852.5979</ele>
        <time>2011-06-14T11:09:26Z</time>
      </trkpt>
      <trkpt lat="46.00684" lon="6.34912">
        <ele>1850.675049</ele>
        <time>2011-06-14T11:09:30Z</time>
      </trkpt>
      <trkpt lat="46.00682" lon="6.34915">
        <ele>1849.233154</ele>
        <time>2011-06-14T11:09:37Z</time>
      </trkpt>
      <trkpt lat="46.0068" lon="6.3492">
        <ele>1846.349365</ele>
        <time>2011-06-14T11:09:45Z</time>
      </trkpt>
      <trkpt lat="46.00676" lon="6.34921">
        <ele>1844.907227</ele>
        <time>2011-06-14T11:09:55Z</time>
      </trkpt>
      <trkpt lat="46.00676" lon="6.34919">
        <ele>1843.946045</ele>
        <time>2011-06-14T11:09:59Z</time>
      </trkpt>
      <trkpt lat="46.00672" lon="6.34915">
        <ele>1841.062012</ele>
        <time>2011-06-14T11:10:08Z</time>
      </trkpt>
      <trkpt lat="46.00669" lon="6.34917">
        <ele>1839.139404</ele>
        <time>2011-06-14T11:10:17Z</time>
      </trkpt>
      <trkpt lat="46.00666" lon="6.34914">
        <ele>1837.69751</ele>
        <time>2011-06-14T11:10:24Z</time>
      </trkpt>
      <trkpt lat="46.00664" lon="6.34918">
        <ele>1836.255615</ele>
        <time>2011-06-14T11:10:31Z</time>
      </trkpt>
      <trkpt lat="46.00661" lon="6.34917">
        <ele>1833.852051</ele>
        <time>2011-06-14T11:10:39Z</time>
      </trkpt>
      <trkpt lat="46.00662" lon="6.34911">
        <ele>1832.890625</ele>
        <time>2011-06-14T11:12:29Z</time>
      </trkpt>
      <trkpt lat="46.0066" lon="6.34908">
        <ele>1831.44873</ele>
        <time>2011-06-14T11:12:38Z</time>
      </trkpt>
      <trkpt lat="46.00659" lon="6.34904">
        <ele>1829.04541</ele>
        <time>2011-06-14T11:12:44Z</time>
      </trkpt>
      <trkpt lat="46.00658" lon="6.34899">
        <ele>1827.123047</ele>
        <time>2011-06-14T11:12:48Z</time>
      </trkpt>
      <trkpt lat="46.00658" lon="6.34897">
        <ele>1826.161621</ele>
        <time>2011-06-14T11:12:51Z</time>
      </trkpt>
      <trkpt lat="46.00656" lon="6.34892">
        <ele>1823.758301</ele>
        <time>2011-06-14T11:12:59Z</time>
      </trkpt>
      <trkpt lat="46.00654" lon="6.34888">
        <ele>1820.393799</ele>
        <time>2011-06-14T11:13:05Z</time>
      </trkpt>
      <trkpt lat="46.00654" lon="6.34887">
        <ele>1820.393799</ele>
        <time>2011-06-14T11:13:06Z</time>
      </trkpt>
      <trkpt lat="46.00654" lon="6.34879">
        <ele>1819.432373</ele>
        <time>2011-06-14T11:13:14Z</time>
      </trkpt>
      <trkpt lat="46.00653" lon="6.3487">
        <ele>1817.029053</ele>
        <time>2011-06-14T11:13:25Z</time>
      </trkpt>
      <trkpt lat="46.00653" lon="6.34868">
        <ele>1815.587158</ele>
        <time>2011-06-14T11:13:28Z</time>
      </trkpt>
      <trkpt lat="46.00651" lon="6.34863">
        <ele>1814.14502</ele>
        <time>2011-06-14T11:13:37Z</time>
      </trkpt>
      <trkpt lat="46.0065" lon="6.34856">
        <ele>1810.299805</ele>
        <time>2011-06-14T11:13:45Z</time>
      </trkpt>
      <trkpt lat="46.0065" lon="6.34853">
        <ele>1809.338623</ele>
        <time>2011-06-14T11:13:49Z</time>
      </trkpt>
      <trkpt lat="46.00648" lon="6.3485">
        <ele>1807.416016</ele>
        <time>2011-06-14T11:13:56Z</time>
      </trkpt>
      <trkpt lat="46.00645" lon="6.34845">
        <ele>1805.012695</ele>
        <time>2011-06-14T11:14:05Z</time>
      </trkpt>
      <trkpt lat="46.00642" lon="6.34841">
        <ele>1804.051514</ele>
        <time>2011-06-14T11:14:13Z</time>
      </trkpt>
      <trkpt lat="46.00639" lon="6.3484">
        <ele>1802.128418</ele>
        <time>2011-06-14T11:14:22Z</time>
      </trkpt>
      <trkpt lat="46.00637" lon="6.34833">
        <ele>1800.206055</ele>
        <time>2011-06-14T11:14:31Z</time>
      </trkpt>
      <trkpt lat="46.00638" lon="6.34828">
        <ele>1799.725342</ele>
        <time>2011-06-14T11:14:39Z</time>
      </trkpt>
      <trkpt lat="46.00638" lon="6.3482">
        <ele>1797.802734</ele>
        <time>2011-06-14T11:14:50Z</time>
      </trkpt>
      <trkpt lat="46.00638" lon="6.34816">
        <ele>1797.322021</ele>
        <time>2011-06-14T11:14:58Z</time>
      </trkpt>
      <trkpt lat="46.00637" lon="6.34813">
        <ele>1795.880127</ele>
        <time>2011-06-14T11:15:06Z</time>
      </trkpt>
      <trkpt lat="46.00636" lon="6.34815">
        <ele>1793.95752</ele>
        <time>2011-06-14T11:15:10Z</time>
      </trkpt>
      <trkpt lat="46.00634" lon="6.34819">
        <ele>1792.515625</ele>
        <time>2011-06-14T11:15:19Z</time>
      </trkpt>
      <trkpt lat="46.00631" lon="6.34821">
        <ele>1791.073486</ele>
        <time>2011-06-14T11:15:29Z</time>
      </trkpt>
      <trkpt lat="46.00629" lon="6.34823">
        <ele>1788.67041</ele>
        <time>2011-06-14T11:15:36Z</time>
      </trkpt>
      <trkpt lat="46.00627" lon="6.34824">
        <ele>1786.747314</ele>
        <time>2011-06-14T11:15:44Z</time>
      </trkpt>
      <trkpt lat="46.00622" lon="6.34831">
        <ele>1785.786133</ele>
        <time>2011-06-14T11:15:56Z</time>
      </trkpt>
      <trkpt lat="46.00619" lon="6.34836">
        <ele>1782.9021</ele>
        <time>2011-06-14T11:16:05Z</time>
      </trkpt>
      <trkpt lat="46.00618" lon="6.3484">
        <ele>1781.460205</ele>
        <time>2011-06-14T11:16:15Z</time>
      </trkpt>
      <trkpt lat="46.00615" lon="6.34843">
        <ele>1779.537598</ele>
        <time>2011-06-14T11:16:26Z</time>
      </trkpt>
      <trkpt lat="46.00613" lon="6.34846">
        <ele>1779.056885</ele>
        <time>2011-06-14T11:16:33Z</time>
      </trkpt>
      <trkpt lat="46.00612" lon="6.34842">
        <ele>1777.61499</ele>
        <time>2011-06-14T11:16:41Z</time>
      </trkpt>
      <trkpt lat="46.00611" lon="6.34842">
        <ele>1776.653809</ele>
        <time>2011-06-14T11:16:56Z</time>
      </trkpt>
      <trkpt lat="46.00609" lon="6.34841">
        <ele>1775.692383</ele>
        <time>2011-06-14T11:17:05Z</time>
      </trkpt>
      <trkpt lat="46.00609" lon="6.34838">
        <ele>1773.769775</ele>
        <time>2011-06-14T11:17:09Z</time>
      </trkpt>
      <trkpt lat="46.00606" lon="6.34832">
        <ele>1770.885742</ele>
        <time>2011-06-14T11:17:19Z</time>
      </trkpt>
      <trkpt lat="46.00604" lon="6.34826">
        <ele>1769.443848</ele>
        <time>2011-06-14T11:17:28Z</time>
      </trkpt>
      <trkpt lat="46.00603" lon="6.34824">
        <ele>1767.520996</ele>
        <time>2011-06-14T11:17:36Z</time>
      </trkpt>
      <trkpt lat="46.00602" lon="6.34819">
        <ele>1765.598633</ele>
        <time>2011-06-14T11:17:45Z</time>
      </trkpt>
      <trkpt lat="46.00601" lon="6.34813">
        <ele>1763.675781</ele>
        <time>2011-06-14T11:17:52Z</time>
      </trkpt>
      <trkpt lat="46.006" lon="6.34805">
        <ele>1761.272705</ele>
        <time>2011-06-14T11:18:02Z</time>
      </trkpt>
      <trkpt lat="46.00599" lon="6.34799">
        <ele>1758.869385</ele>
        <time>2011-06-14T11:18:09Z</time>
      </trkpt>
      <trkpt lat="46.00598" lon="6.34795">
        <ele>1758.388672</ele>
        <time>2011-06-14T11:18:17Z</time>
      </trkpt>
      <trkpt lat="46.00596" lon="6.3479">
        <ele>1756.466064</ele>
        <time>2011-06-14T11:18:25Z</time>
      </trkpt>
      <trkpt lat="46.00593" lon="6.3479">
        <ele>1754.543213</ele>
        <time>2011-06-14T11:18:32Z</time>
      </trkpt>
      <trkpt lat="46.0059" lon="6.34794">
        <ele>1753.582031</ele>
        <time>2011-06-14T11:18:42Z</time>
      </trkpt>
      <trkpt lat="46.00586" lon="6.34797">
        <ele>1752.139893</ele>
        <time>2011-06-14T11:18:52Z</time>
      </trkpt>
      <trkpt lat="46.00584" lon="6.34796">
        <ele>1750.697998</ele>
        <time>2011-06-14T11:18:55Z</time>
      </trkpt>
      <trkpt lat="46.00585" lon="6.34792">
        <ele>1749.256104</ele>
        <time>2011-06-14T11:19:02Z</time>
      </trkpt>
      <trkpt lat="46.00584" lon="6.34787">
        <ele>1747.333496</ele>
        <time>2011-06-14T11:19:11Z</time>
      </trkpt>
      <trkpt lat="46.00582" lon="6.34784">
        <ele>1744.449463</ele>
        <time>2011-06-14T11:19:19Z</time>
      </trkpt>
      <trkpt lat="46.00582" lon="6.34781">
        <ele>1742.5271</ele>
        <time>2011-06-14T11:19:27Z</time>
      </trkpt>
      <trkpt lat="46.00581" lon="6.34778">
        <ele>1742.046387</ele>
        <time>2011-06-14T11:19:36Z</time>
      </trkpt>
      <trkpt lat="46.00579" lon="6.34775">
        <ele>1739.642822</ele>
        <time>2011-06-14T11:19:45Z</time>
      </trkpt>
      <trkpt lat="46.00577" lon="6.34771">
        <ele>1738.200928</ele>
        <time>2011-06-14T11:19:53Z</time>
      </trkpt>
      <trkpt lat="46.00578" lon="6.34769">
        <ele>1736.758789</ele>
        <time>2011-06-14T11:19:56Z</time>
      </trkpt>
      <trkpt lat="46.00578" lon="6.34764">
        <ele>1733.875</ele>
        <time>2011-06-14T11:20:05Z</time>
      </trkpt>
      <trkpt lat="46.00577" lon="6.34759">
        <ele>1732.433105</ele>
        <time>2011-06-14T11:20:13Z</time>
      </trkpt>
      <trkpt lat="46.00577" lon="6.34754">
        <ele>1731.47168</ele>
        <time>2011-06-14T11:20:21Z</time>
      </trkpt>
      <trkpt lat="46.00576" lon="6.34752">
        <ele>1730.510498</ele>
        <time>2011-06-14T11:20:30Z</time>
      </trkpt>
      <trkpt lat="46.00574" lon="6.34752">
        <ele>1728.587891</ele>
        <time>2011-06-14T11:20:43Z</time>
      </trkpt>
      <trkpt lat="46.00571" lon="6.3475">
        <ele>1725.703857</ele>
        <time>2011-06-14T11:20:50Z</time>
      </trkpt>
      <trkpt lat="46.0057" lon="6.34745">
        <ele>1722.819824</ele>
        <time>2011-06-14T11:20:58Z</time>
      </trkpt>
      <trkpt lat="46.0057" lon="6.34737">
        <ele>1720.897217</ele>
        <time>2011-06-14T11:21:06Z</time>
      </trkpt>
      <trkpt lat="46.00572" lon="6.34737">
        <ele>1720.897217</ele>
        <time>2011-06-14T11:21:13Z</time>
      </trkpt>
      <trkpt lat="46.00574" lon="6.34734">
        <ele>1719.935791</ele>
        <time>2011-06-14T11:21:28Z</time>
      </trkpt>
      <trkpt lat="46.00575" lon="6.3473">
        <ele>1718.013184</ele>
        <time>2011-06-14T11:21:33Z</time>
      </trkpt>
      <trkpt lat="46.00579" lon="6.34722">
        <ele>1716.090576</ele>
        <time>2011-06-14T11:21:43Z</time>
      </trkpt>
      <trkpt lat="46.00576" lon="6.34716">
        <ele>1715.129395</ele>
        <time>2011-06-14T11:21:52Z</time>
      </trkpt>
      <trkpt lat="46.00575" lon="6.34712">
        <ele>1715.610107</ele>
        <time>2011-06-14T11:22:00Z</time>
      </trkpt>
      <trkpt lat="46.00572" lon="6.34706">
        <ele>1716.090576</ele>
        <time>2011-06-14T11:25:05Z</time>
      </trkpt>
      <trkpt lat="46.00571" lon="6.347">
        <ele>1716.090576</ele>
        <time>2011-06-14T11:25:13Z</time>
      </trkpt>
      <trkpt lat="46.00566" lon="6.34699">
        <ele>1718.013184</ele>
        <time>2011-06-14T11:25:24Z</time>
      </trkpt>
      <trkpt lat="46.00567" lon="6.34694">
        <ele>1718.493896</ele>
        <time>2011-06-14T11:25:32Z</time>
      </trkpt>
      <trkpt lat="46.00567" lon="6.34689">
        <ele>1718.974609</ele>
        <time>2011-06-14T11:25:40Z</time>
      </trkpt>
      <trkpt lat="46.00564" lon="6.34684">
        <ele>1719.455322</ele>
        <time>2011-06-14T11:25:49Z</time>
      </trkpt>
      <trkpt lat="46.00563" lon="6.34678">
        <ele>1718.974609</ele>
        <time>2011-06-14T11:25:56Z</time>
      </trkpt>
      <trkpt lat="46.0056" lon="6.34669">
        <ele>1718.974609</ele>
        <time>2011-06-14T11:26:05Z</time>
      </trkpt>
      <trkpt lat="46.00559" lon="6.34661">
        <ele>1718.974609</ele>
        <time>2011-06-14T11:26:14Z</time>
      </trkpt>
      <trkpt lat="46.00554" lon="6.34656">
        <ele>1718.013184</ele>
        <time>2011-06-14T11:26:23Z</time>
      </trkpt>
      <trkpt lat="46.0055" lon="6.34652">
        <ele>1716.090576</ele>
        <time>2011-06-14T11:26:33Z</time>
      </trkpt>
      <trkpt lat="46.00548" lon="6.3465">
        <ele>1715.129395</ele>
        <time>2011-06-14T11:26:37Z</time>
      </trkpt>
      <trkpt lat="46.00545" lon="6.34646">
        <ele>1713.687256</ele>
        <time>2011-06-14T11:26:43Z</time>
      </trkpt>
      <trkpt lat="46.00537" lon="6.34642">
        <ele>1714.167969</ele>
        <time>2011-06-14T11:26:53Z</time>
      </trkpt>
      <trkpt lat="46.00531" lon="6.34642">
        <ele>1712.726074</ele>
        <time>2011-06-14T11:27:01Z</time>
      </trkpt>
      <trkpt lat="46.00526" lon="6.34636">
        <ele>1711.764893</ele>
        <time>2011-06-14T11:27:09Z</time>
      </trkpt>
      <trkpt lat="46.00522" lon="6.34631">
        <ele>1710.322754</ele>
        <time>2011-06-14T11:27:20Z</time>
      </trkpt>
      <trkpt lat="46.00519" lon="6.34626">
        <ele>1708.880859</ele>
        <time>2011-06-14T11:27:30Z</time>
      </trkpt>
      <trkpt lat="46.00521" lon="6.34621">
        <ele>1706.958008</ele>
        <time>2011-06-14T11:27:38Z</time>
      </trkpt>
      <trkpt lat="46.00522" lon="6.34618">
        <ele>1704.554688</ele>
        <time>2011-06-14T11:27:46Z</time>
      </trkpt>
      <trkpt lat="46.0052" lon="6.34613">
        <ele>1703.112793</ele>
        <time>2011-06-14T11:27:53Z</time>
      </trkpt>
      <trkpt lat="46.00517" lon="6.34605">
        <ele>1702.63208</ele>
        <time>2011-06-14T11:28:03Z</time>
      </trkpt>
      <trkpt lat="46.00514" lon="6.34606">
        <ele>1703.112793</ele>
        <time>2011-06-14T11:28:14Z</time>
      </trkpt>
      <trkpt lat="46.00515" lon="6.34603">
        <ele>1704.074219</ele>
        <time>2011-06-14T11:28:22Z</time>
      </trkpt>
      <trkpt lat="46.00514" lon="6.34598">
        <ele>1705.516113</ele>
        <time>2011-06-14T11:28:33Z</time>
      </trkpt>
      <trkpt lat="46.00512" lon="6.34588">
        <ele>1707.438721</ele>
        <time>2011-06-14T11:28:46Z</time>
      </trkpt>
      <trkpt lat="46.00507" lon="6.34582">
        <ele>1706.958008</ele>
        <time>2011-06-14T11:28:55Z</time>
      </trkpt>
      <trkpt lat="46.00503" lon="6.34574">
        <ele>1707.919434</ele>
        <time>2011-06-14T11:29:03Z</time>
      </trkpt>
      <trkpt lat="46.00504" lon="6.34567">
        <ele>1708.880859</ele>
        <time>2011-06-14T11:29:12Z</time>
      </trkpt>
      <trkpt lat="46.00503" lon="6.34564">
        <ele>1709.361572</ele>
        <time>2011-06-14T11:29:20Z</time>
      </trkpt>
      <trkpt lat="46.00501" lon="6.34561">
        <ele>1710.322754</ele>
        <time>2011-06-14T11:29:29Z</time>
      </trkpt>
      <trkpt lat="46.00506" lon="6.34557">
        <ele>1712.245361</ele>
        <time>2011-06-14T11:29:37Z</time>
      </trkpt>
      <trkpt lat="46.00504" lon="6.34553">
        <ele>1713.206787</ele>
        <time>2011-06-14T11:29:44Z</time>
      </trkpt>
      <trkpt lat="46.00503" lon="6.3455">
        <ele>1714.648682</ele>
        <time>2011-06-14T11:29:48Z</time>
      </trkpt>
      <trkpt lat="46.00502" lon="6.34545">
        <ele>1716.090576</ele>
        <time>2011-06-14T11:29:57Z</time>
      </trkpt>
      <trkpt lat="46.00502" lon="6.34538">
        <ele>1718.013184</ele>
        <time>2011-06-14T11:30:08Z</time>
      </trkpt>
      <trkpt lat="46.00504" lon="6.3453">
        <ele>1718.974609</ele>
        <time>2011-06-14T11:30:18Z</time>
      </trkpt>
      <trkpt lat="46.00502" lon="6.34527">
        <ele>1720.897217</ele>
        <time>2011-06-14T11:30:27Z</time>
      </trkpt>
      <trkpt lat="46.005" lon="6.34527">
        <ele>1721.377686</ele>
        <time>2011-06-14T11:30:35Z</time>
      </trkpt>
      <trkpt lat="46.00498" lon="6.34528">
        <ele>1721.858398</ele>
        <time>2011-06-14T11:30:42Z</time>
      </trkpt>
      <trkpt lat="46.00491" lon="6.34527">
        <ele>1721.377686</ele>
        <time>2011-06-14T11:30:50Z</time>
      </trkpt>
      <trkpt lat="46.00484" lon="6.34526">
        <ele>1722.819824</ele>
        <time>2011-06-14T11:30:59Z</time>
      </trkpt>
      <trkpt lat="46.00478" lon="6.34527">
        <ele>1722.819824</ele>
        <time>2011-06-14T11:31:07Z</time>
      </trkpt>
      <trkpt lat="46.00475" lon="6.34523">
        <ele>1724.742676</ele>
        <time>2011-06-14T11:31:17Z</time>
      </trkpt>
      <trkpt lat="46.00475" lon="6.34521">
        <ele>1726.18457</ele>
        <time>2011-06-14T11:31:24Z</time>
      </trkpt>
      <trkpt lat="46.00474" lon="6.34516">
        <ele>1727.626465</ele>
        <time>2011-06-14T11:31:40Z</time>
      </trkpt>
      <trkpt lat="46.00474" lon="6.34514">
        <ele>1730.029785</ele>
        <time>2011-06-14T11:31:47Z</time>
      </trkpt>
      <trkpt lat="46.00473" lon="6.34511">
        <ele>1730.991211</ele>
        <time>2011-06-14T11:31:58Z</time>
      </trkpt>
      <trkpt lat="46.0047" lon="6.3451">
        <ele>1731.952393</ele>
        <time>2011-06-14T11:32:13Z</time>
      </trkpt>
      <trkpt lat="46.00469" lon="6.3451">
        <ele>1732.913574</ele>
        <time>2011-06-14T11:32:22Z</time>
      </trkpt>
      <trkpt lat="46.00467" lon="6.34511">
        <ele>1733.875</ele>
        <time>2011-06-14T11:32:30Z</time>
      </trkpt>
      <trkpt lat="46.00466" lon="6.34512">
        <ele>1734.355713</ele>
        <time>2011-06-14T11:32:38Z</time>
      </trkpt>
      <trkpt lat="46.00464" lon="6.34513">
        <ele>1736.27832</ele>
        <time>2011-06-14T11:32:45Z</time>
      </trkpt>
      <trkpt lat="46.00463" lon="6.34511">
        <ele>1736.758789</ele>
        <time>2011-06-14T11:32:53Z</time>
      </trkpt>
      <trkpt lat="46.00461" lon="6.34509">
        <ele>1737.239502</ele>
        <time>2011-06-14T11:33:00Z</time>
      </trkpt>
      <trkpt lat="46.00456" lon="6.34507">
        <ele>1736.27832</ele>
        <time>2011-06-14T11:33:09Z</time>
      </trkpt>
      <trkpt lat="46.00451" lon="6.34505">
        <ele>1735.316895</ele>
        <time>2011-06-14T11:33:17Z</time>
      </trkpt>
      <trkpt lat="46.00449" lon="6.34502">
        <ele>1735.797607</ele>
        <time>2011-06-14T11:33:25Z</time>
      </trkpt>
      <trkpt lat="46.00446" lon="6.34498">
        <ele>1736.758789</ele>
        <time>2011-06-14T11:33:35Z</time>
      </trkpt>
      <trkpt lat="46.00442" lon="6.34497">
        <ele>1738.200928</ele>
        <time>2011-06-14T11:33:45Z</time>
      </trkpt>
      <trkpt lat="46.00438" lon="6.345">
        <ele>1737.720215</ele>
        <time>2011-06-14T11:33:53Z</time>
      </trkpt>
      <trkpt lat="46.00434" lon="6.34501">
        <ele>1738.681641</ele>
        <time>2011-06-14T11:34:02Z</time>
      </trkpt>
      <trkpt lat="46.0043" lon="6.34502">
        <ele>1740.604248</ele>
        <time>2011-06-14T11:34:12Z</time>
      </trkpt>
      <trkpt lat="46.00426" lon="6.34506">
        <ele>1740.604248</ele>
        <time>2011-06-14T11:34:21Z</time>
      </trkpt>
      <trkpt lat="46.00421" lon="6.34503">
        <ele>1742.5271</ele>
        <time>2011-06-14T11:34:30Z</time>
      </trkpt>
      <trkpt lat="46.00419" lon="6.34497">
        <ele>1742.5271</ele>
        <time>2011-06-14T11:34:39Z</time>
      </trkpt>
      <trkpt lat="46.00415" lon="6.3449">
        <ele>1742.046387</ele>
        <time>2011-06-14T11:34:47Z</time>
      </trkpt>
      <trkpt lat="46.00414" lon="6.34483">
        <ele>1742.5271</ele>
        <time>2011-06-14T11:34:55Z</time>
      </trkpt>
      <trkpt lat="46.00411" lon="6.34475">
        <ele>1742.5271</ele>
        <time>2011-06-14T11:35:05Z</time>
      </trkpt>
      <trkpt lat="46.00409" lon="6.34469">
        <ele>1741.565674</ele>
        <time>2011-06-14T11:35:13Z</time>
      </trkpt>
      <trkpt lat="46.00404" lon="6.34462">
        <ele>1739.642822</ele>
        <time>2011-06-14T11:35:22Z</time>
      </trkpt>
      <trkpt lat="46.004" lon="6.34454">
        <ele>1739.162109</ele>
        <time>2011-06-14T11:35:33Z</time>
      </trkpt>
      <trkpt lat="46.00396" lon="6.34447">
        <ele>1738.200928</ele>
        <time>2011-06-14T11:35:41Z</time>
      </trkpt>
      <trkpt lat="46.00392" lon="6.34438">
        <ele>1738.200928</ele>
        <time>2011-06-14T11:35:50Z</time>
      </trkpt>
      <trkpt lat="46.00386" lon="6.34431">
        <ele>1739.162109</ele>
        <time>2011-06-14T11:36:01Z</time>
      </trkpt>
      <trkpt lat="46.00383" lon="6.34421">
        <ele>1740.604248</ele>
        <time>2011-06-14T11:38:53Z</time>
      </trkpt>
      <trkpt lat="46.00378" lon="6.34416">
        <ele>1742.046387</ele>
        <time>2011-06-14T11:39:03Z</time>
      </trkpt>
      <trkpt lat="46.00377" lon="6.34411">
        <ele>1743.007568</ele>
        <time>2011-06-14T11:39:13Z</time>
      </trkpt>
      <trkpt lat="46.00375" lon="6.34408">
        <ele>1744.930176</ele>
        <time>2011-06-14T11:39:22Z</time>
      </trkpt>
      <trkpt lat="46.00371" lon="6.34407">
        <ele>1746.852783</ele>
        <time>2011-06-14T11:39:30Z</time>
      </trkpt>
      <trkpt lat="46.00368" lon="6.34403">
        <ele>1748.775391</ele>
        <time>2011-06-14T11:39:39Z</time>
      </trkpt>
      <trkpt lat="46.00364" lon="6.34403">
        <ele>1750.697998</ele>
        <time>2011-06-14T11:39:49Z</time>
      </trkpt>
      <trkpt lat="46.00363" lon="6.34404">
        <ele>1751.178711</ele>
        <time>2011-06-14T11:39:53Z</time>
      </trkpt>
      <trkpt lat="46.00362" lon="6.34399">
        <ele>1753.101318</ele>
        <time>2011-06-14T11:40:01Z</time>
      </trkpt>
      <trkpt lat="46.0036" lon="6.34393">
        <ele>1754.062744</ele>
        <time>2011-06-14T11:40:09Z</time>
      </trkpt>
      <trkpt lat="46.00359" lon="6.34391">
        <ele>1754.543213</ele>
        <time>2011-06-14T11:40:16Z</time>
      </trkpt>
      <trkpt lat="46.00357" lon="6.34388">
        <ele>1756.946777</ele>
        <time>2011-06-14T11:40:25Z</time>
      </trkpt>
      <trkpt lat="46.00355" lon="6.3439">
        <ele>1758.388672</ele>
        <time>2011-06-14T11:40:33Z</time>
      </trkpt>
      <trkpt lat="46.00352" lon="6.3439">
        <ele>1759.350098</ele>
        <time>2011-06-14T11:40:41Z</time>
      </trkpt>
      <trkpt lat="46.00349" lon="6.34384">
        <ele>1759.830566</ele>
        <time>2011-06-14T11:40:50Z</time>
      </trkpt>
      <trkpt lat="46.00346" lon="6.34376">
        <ele>1759.830566</ele>
        <time>2011-06-14T11:40:59Z</time>
      </trkpt>
      <trkpt lat="46.00344" lon="6.34369">
        <ele>1758.869385</ele>
        <time>2011-06-14T11:41:08Z</time>
      </trkpt>
      <trkpt lat="46.0034" lon="6.34359">
        <ele>1758.388672</ele>
        <time>2011-06-14T11:41:17Z</time>
      </trkpt>
      <trkpt lat="46.00336" lon="6.34345">
        <ele>1756.946777</ele>
        <time>2011-06-14T11:41:29Z</time>
      </trkpt>
      <trkpt lat="46.00335" lon="6.34334">
        <ele>1756.946777</ele>
        <time>2011-06-14T11:41:38Z</time>
      </trkpt>
      <trkpt lat="46.00334" lon="6.34323">
        <ele>1757.42749</ele>
        <time>2011-06-14T11:41:47Z</time>
      </trkpt>
      <trkpt lat="46.00332" lon="6.3431">
        <ele>1757.908203</ele>
        <time>2011-06-14T11:41:57Z</time>
      </trkpt>
      <trkpt lat="46.0033" lon="6.34301">
        <ele>1757.42749</ele>
        <time>2011-06-14T11:42:06Z</time>
      </trkpt>
      <trkpt lat="46.00326" lon="6.34292">
        <ele>1757.42749</ele>
        <time>2011-06-14T11:42:14Z</time>
      </trkpt>
      <trkpt lat="46.00327" lon="6.34284">
        <ele>1756.946777</ele>
        <time>2011-06-14T11:42:22Z</time>
      </trkpt>
      <trkpt lat="46.00324" lon="6.34276">
        <ele>1754.543213</ele>
        <time>2011-06-14T11:42:31Z</time>
      </trkpt>
      <trkpt lat="46.00324" lon="6.34271">
        <ele>1753.582031</ele>
        <time>2011-06-14T11:42:39Z</time>
      </trkpt>
      <trkpt lat="46.00322" lon="6.34262">
        <ele>1752.139893</ele>
        <time>2011-06-14T11:42:48Z</time>
      </trkpt>
      <trkpt lat="46.00319" lon="6.34255">
        <ele>1752.139893</ele>
        <time>2011-06-14T11:42:55Z</time>
      </trkpt>
      <trkpt lat="46.00316" lon="6.34248">
        <ele>1751.659424</ele>
        <time>2011-06-14T11:43:03Z</time>
      </trkpt>
      <trkpt lat="46.00313" lon="6.3424">
        <ele>1752.620605</ele>
        <time>2011-06-14T11:43:12Z</time>
      </trkpt>
      <trkpt lat="46.00312" lon="6.34231">
        <ele>1754.543213</ele>
        <time>2011-06-14T11:43:22Z</time>
      </trkpt>
      <trkpt lat="46.00314" lon="6.34225">
        <ele>1755.985107</ele>
        <time>2011-06-14T11:43:31Z</time>
      </trkpt>
      <trkpt lat="46.00318" lon="6.34217">
        <ele>1755.985107</ele>
        <time>2011-06-14T11:43:41Z</time>
      </trkpt>
      <trkpt lat="46.00321" lon="6.34207">
        <ele>1757.908203</ele>
        <time>2011-06-14T11:43:52Z</time>
      </trkpt>
      <trkpt lat="46.00323" lon="6.34201">
        <ele>1759.350098</ele>
        <time>2011-06-14T11:44:01Z</time>
      </trkpt>
      <trkpt lat="46.00324" lon="6.34195">
        <ele>1761.272705</ele>
        <time>2011-06-14T11:44:10Z</time>
      </trkpt>
      <trkpt lat="46.00325" lon="6.34188">
        <ele>1763.195313</ele>
        <time>2011-06-14T11:44:20Z</time>
      </trkpt>
      <trkpt lat="46.00329" lon="6.34179">
        <ele>1764.637207</ele>
        <time>2011-06-14T11:44:32Z</time>
      </trkpt>
      <trkpt lat="46.00332" lon="6.34174">
        <ele>1766.559814</ele>
        <time>2011-06-14T11:44:43Z</time>
      </trkpt>
      <trkpt lat="46.00334" lon="6.34166">
        <ele>1768.482422</ele>
        <time>2011-06-14T11:44:53Z</time>
      </trkpt>
      <trkpt lat="46.00337" lon="6.34162">
        <ele>1769.443848</ele>
        <time>2011-06-14T11:45:02Z</time>
      </trkpt>
      <trkpt lat="46.0034" lon="6.34157">
        <ele>1770.405029</ele>
        <time>2011-06-14T11:45:10Z</time>
      </trkpt>
      <trkpt lat="46.00342" lon="6.34151">
        <ele>1772.327881</ele>
        <time>2011-06-14T11:45:20Z</time>
      </trkpt>
      <trkpt lat="46.00342" lon="6.3415">
        <ele>1772.327881</ele>
        <time>2011-06-14T11:45:21Z</time>
      </trkpt>
      <trkpt lat="46.00341" lon="6.34141">
        <ele>1772.808594</ele>
        <time>2011-06-14T11:45:33Z</time>
      </trkpt>
      <trkpt lat="46.00343" lon="6.34132">
        <ele>1776.173096</ele>
        <time>2011-06-14T11:45:42Z</time>
      </trkpt>
      <trkpt lat="46.00343" lon="6.34126">
        <ele>1778.576416</ele>
        <time>2011-06-14T11:45:51Z</time>
      </trkpt>
      <trkpt lat="46.00345" lon="6.34124">
        <ele>1779.056885</ele>
        <time>2011-06-14T11:45:55Z</time>
      </trkpt>
      <trkpt lat="46.00348" lon="6.34119">
        <ele>1779.537598</ele>
        <time>2011-06-14T11:46:06Z</time>
      </trkpt>
      <trkpt lat="46.00348" lon="6.34113">
        <ele>1781.940918</ele>
        <time>2011-06-14T11:46:15Z</time>
      </trkpt>
      <trkpt lat="46.00347" lon="6.34109">
        <ele>1783.863525</ele>
        <time>2011-06-14T11:46:23Z</time>
      </trkpt>
      <trkpt lat="46.00348" lon="6.34105">
        <ele>1785.786133</ele>
        <time>2011-06-14T11:46:33Z</time>
      </trkpt>
      <trkpt lat="46.00348" lon="6.34102">
        <ele>1786.266846</ele>
        <time>2011-06-14T11:46:41Z</time>
      </trkpt>
      <trkpt lat="46.00346" lon="6.34099">
        <ele>1788.67041</ele>
        <time>2011-06-14T11:46:50Z</time>
      </trkpt>
      <trkpt lat="46.0035" lon="6.34095">
        <ele>1790.112305</ele>
        <time>2011-06-14T11:46:59Z</time>
      </trkpt>
      <trkpt lat="46.00346" lon="6.34089">
        <ele>1792.034912</ele>
        <time>2011-06-14T11:47:09Z</time>
      </trkpt>
      <trkpt lat="46.00349" lon="6.34085">
        <ele>1792.996094</ele>
        <time>2011-06-14T11:47:17Z</time>
      </trkpt>
      <trkpt lat="46.0035" lon="6.3408">
        <ele>1794.918701</ele>
        <time>2011-06-14T11:47:25Z</time>
      </trkpt>
      <trkpt lat="46.00348" lon="6.34074">
        <ele>1797.322021</ele>
        <time>2011-06-14T11:47:35Z</time>
      </trkpt>
      <trkpt lat="46.00345" lon="6.34066">
        <ele>1798.763916</ele>
        <time>2011-06-14T11:47:47Z</time>
      </trkpt>
      <trkpt lat="46.00343" lon="6.34058">
        <ele>1800.686523</ele>
        <time>2011-06-14T11:47:58Z</time>
      </trkpt>
      <trkpt lat="46.00339" lon="6.34053">
        <ele>1801.647949</ele>
        <time>2011-06-14T11:48:08Z</time>
      </trkpt>
      <trkpt lat="46.00335" lon="6.34048">
        <ele>1802.609131</ele>
        <time>2011-06-14T11:48:17Z</time>
      </trkpt>
      <trkpt lat="46.00333" lon="6.34041">
        <ele>1804.051514</ele>
        <time>2011-06-14T11:48:27Z</time>
      </trkpt>
      <trkpt lat="46.00331" lon="6.34032">
        <ele>1805.973877</ele>
        <time>2011-06-14T11:48:39Z</time>
      </trkpt>
      <trkpt lat="46.00329" lon="6.34026">
        <ele>1807.416016</ele>
        <time>2011-06-14T11:48:49Z</time>
      </trkpt>
      <trkpt lat="46.00329" lon="6.34021">
        <ele>1809.338623</ele>
        <time>2011-06-14T11:48:58Z</time>
      </trkpt>
      <trkpt lat="46.00328" lon="6.34017">
        <ele>1810.780518</ele>
        <time>2011-06-14T11:49:06Z</time>
      </trkpt>
      <trkpt lat="46.00328" lon="6.34012">
        <ele>1813.183838</ele>
        <time>2011-06-14T11:49:15Z</time>
      </trkpt>
      <trkpt lat="46.00328" lon="6.34009">
        <ele>1814.625732</ele>
        <time>2011-06-14T11:49:24Z</time>
      </trkpt>
      <trkpt lat="46.00327" lon="6.34004">
        <ele>1816.54834</ele>
        <time>2011-06-14T11:49:32Z</time>
      </trkpt>
      <trkpt lat="46.00328" lon="6.33998">
        <ele>1819.432373</ele>
        <time>2011-06-14T11:49:43Z</time>
      </trkpt>
      <trkpt lat="46.00328" lon="6.33992">
        <ele>1821.35498</ele>
        <time>2011-06-14T11:49:54Z</time>
      </trkpt>
      <trkpt lat="46.00328" lon="6.33986">
        <ele>1822.797119</ele>
        <time>2011-06-14T11:50:04Z</time>
      </trkpt>
      <trkpt lat="46.00327" lon="6.33978">
        <ele>1823.758301</ele>
        <time>2011-06-14T11:50:14Z</time>
      </trkpt>
      <trkpt lat="46.00326" lon="6.33971">
        <ele>1824.719727</ele>
        <time>2011-06-14T11:50:23Z</time>
      </trkpt>
      <trkpt lat="46.00324" lon="6.33962">
        <ele>1826.161621</ele>
        <time>2011-06-14T11:50:33Z</time>
      </trkpt>
      <trkpt lat="46.00321" lon="6.33955">
        <ele>1827.603516</ele>
        <time>2011-06-14T11:50:42Z</time>
      </trkpt>
      <trkpt lat="46.0032" lon="6.33947">
        <ele>1829.04541</ele>
        <time>2011-06-14T11:50:52Z</time>
      </trkpt>
      <trkpt lat="46.0032" lon="6.33941">
        <ele>1830.006836</ele>
        <time>2011-06-14T11:51:01Z</time>
      </trkpt>
      <trkpt lat="46.0032" lon="6.33936">
        <ele>1831.929443</ele>
        <time>2011-06-14T11:51:09Z</time>
      </trkpt>
      <trkpt lat="46.00323" lon="6.33933">
        <ele>1832.410156</ele>
        <time>2011-06-14T11:51:18Z</time>
      </trkpt>
      <trkpt lat="46.00327" lon="6.3393">
        <ele>1834.332764</ele>
        <time>2011-06-14T11:51:29Z</time>
      </trkpt>
      <trkpt lat="46.00332" lon="6.33931">
        <ele>1836.255615</ele>
        <time>2011-06-14T11:51:39Z</time>
      </trkpt>
      <trkpt lat="46.00334" lon="6.33929">
        <ele>1837.216797</ele>
        <time>2011-06-14T11:51:47Z</time>
      </trkpt>
      <trkpt lat="46.00335" lon="6.33925">
        <ele>1838.658936</ele>
        <time>2011-06-14T11:51:56Z</time>
      </trkpt>
      <trkpt lat="46.0034" lon="6.33924">
        <ele>1841.062012</ele>
        <time>2011-06-14T11:52:06Z</time>
      </trkpt>
      <trkpt lat="46.00342" lon="6.33921">
        <ele>1842.984619</ele>
        <time>2011-06-14T11:52:16Z</time>
      </trkpt>
      <trkpt lat="46.00341" lon="6.33917">
        <ele>1843.946045</ele>
        <time>2011-06-14T11:52:25Z</time>
      </trkpt>
      <trkpt lat="46.00341" lon="6.33912">
        <ele>1845.387939</ele>
        <time>2011-06-14T11:52:34Z</time>
      </trkpt>
      <trkpt lat="46.00341" lon="6.33908">
        <ele>1846.829834</ele>
        <time>2011-06-14T11:52:42Z</time>
      </trkpt>
      <trkpt lat="46.0034" lon="6.33902">
        <ele>1848.271729</ele>
        <time>2011-06-14T11:52:52Z</time>
      </trkpt>
      <trkpt lat="46.00339" lon="6.33895">
        <ele>1850.675049</ele>
        <time>2011-06-14T11:53:02Z</time>
      </trkpt>
      <trkpt lat="46.00339" lon="6.33887">
        <ele>1852.5979</ele>
        <time>2011-06-14T11:53:14Z</time>
      </trkpt>
      <trkpt lat="46.00339" lon="6.33883">
        <ele>1853.559326</ele>
        <time>2011-06-14T11:53:23Z</time>
      </trkpt>
      <trkpt lat="46.0034" lon="6.33878">
        <ele>1855.481934</ele>
        <time>2011-06-14T11:53:33Z</time>
      </trkpt>
      <trkpt lat="46.0034" lon="6.33872">
        <ele>1857.404541</ele>
        <time>2011-06-14T11:53:43Z</time>
      </trkpt>
      <trkpt lat="46.00339" lon="6.33864">
        <ele>1859.327148</ele>
        <time>2011-06-14T11:53:54Z</time>
      </trkpt>
      <trkpt lat="46.00338" lon="6.33856">
        <ele>1861.249756</ele>
        <time>2011-06-14T11:54:04Z</time>
      </trkpt>
      <trkpt lat="46.00339" lon="6.33849">
        <ele>1862.210938</ele>
        <time>2011-06-14T11:54:14Z</time>
      </trkpt>
      <trkpt lat="46.00338" lon="6.33841">
        <ele>1863.652832</ele>
        <time>2011-06-14T11:54:24Z</time>
      </trkpt>
      <trkpt lat="46.00338" lon="6.3384">
        <ele>1864.614258</ele>
        <time>2011-06-14T11:54:26Z</time>
      </trkpt>
      <trkpt lat="46.00336" lon="6.33832">
        <ele>1865.094971</ele>
        <time>2011-06-14T11:54:35Z</time>
      </trkpt>
      <trkpt lat="46.00337" lon="6.33827">
        <ele>1867.017578</ele>
        <time>2011-06-14T11:54:44Z</time>
      </trkpt>
      <trkpt lat="46.00339" lon="6.33824">
        <ele>1869.421143</ele>
        <time>2011-06-14T11:54:53Z</time>
      </trkpt>
      <trkpt lat="46.00338" lon="6.33821">
        <ele>1870.863037</ele>
        <time>2011-06-14T11:55:01Z</time>
      </trkpt>
      <trkpt lat="46.00337" lon="6.33816">
        <ele>1871.824219</ele>
        <time>2011-06-14T11:55:10Z</time>
      </trkpt>
      <trkpt lat="46.00338" lon="6.33813">
        <ele>1873.266357</ele>
        <time>2011-06-14T11:55:19Z</time>
      </trkpt>
      <trkpt lat="46.00338" lon="6.33812">
        <ele>1874.708252</ele>
        <time>2011-06-14T11:55:27Z</time>
      </trkpt>
      <trkpt lat="46.00339" lon="6.3381">
        <ele>1877.111572</ele>
        <time>2011-06-14T11:56:06Z</time>
      </trkpt>
      <trkpt lat="46.0034" lon="6.33804">
        <ele>1877.111572</ele>
        <time>2011-06-14T11:56:21Z</time>
      </trkpt>
      <trkpt lat="46.0034" lon="6.338">
        <ele>1877.592041</ele>
        <time>2011-06-14T11:56:55Z</time>
      </trkpt>
      <trkpt lat="46.0034" lon="6.33803">
        <ele>1878.072754</ele>
        <time>2011-06-14T11:57:19Z</time>
      </trkpt>
      <trkpt lat="46.00341" lon="6.33799">
        <ele>1879.995361</ele>
        <time>2011-06-14T11:58:04Z</time>
      </trkpt>
      <trkpt lat="46.00342" lon="6.33795">
        <ele>1881.917969</ele>
        <time>2011-06-14T11:58:19Z</time>
      </trkpt>
      <trkpt lat="46.00341" lon="6.33793">
        <ele>1882.398682</ele>
        <time>2011-06-14T11:58:27Z</time>
      </trkpt>
      <trkpt lat="46.0034" lon="6.3379">
        <ele>1885.763428</ele>
        <time>2011-06-14T11:59:55Z</time>
      </trkpt>
      <trkpt lat="46.00338" lon="6.33787">
        <ele>1886.724609</ele>
        <time>2011-06-14T12:00:04Z</time>
      </trkpt>
      <trkpt lat="46.00336" lon="6.33781">
        <ele>1887.205322</ele>
        <time>2011-06-14T12:00:12Z</time>
      </trkpt>
      <trkpt lat="46.00334" lon="6.33776">
        <ele>1888.647461</ele>
        <time>2011-06-14T12:00:21Z</time>
      </trkpt>
      <trkpt lat="46.00332" lon="6.33772">
        <ele>1891.050537</ele>
        <time>2011-06-14T12:00:30Z</time>
      </trkpt>
      <trkpt lat="46.00331" lon="6.33767">
        <ele>1893.453857</ele>
        <time>2011-06-14T12:00:40Z</time>
      </trkpt>
      <trkpt lat="46.00331" lon="6.33764">
        <ele>1894.895752</ele>
        <time>2011-06-14T12:00:58Z</time>
      </trkpt>
      <trkpt lat="46.00329" lon="6.33762">
        <ele>1895.376465</ele>
        <time>2011-06-14T12:01:08Z</time>
      </trkpt>
      <trkpt lat="46.00328" lon="6.33761">
        <ele>1896.818359</ele>
        <time>2011-06-14T12:01:17Z</time>
      </trkpt>
      <trkpt lat="46.00328" lon="6.33757">
        <ele>1898.260254</ele>
        <time>2011-06-14T12:01:26Z</time>
      </trkpt>
      <trkpt lat="46.00329" lon="6.33755">
        <ele>1898.740967</ele>
        <time>2011-06-14T12:01:34Z</time>
      </trkpt>
      <trkpt lat="46.00329" lon="6.33753">
        <ele>1899.702393</ele>
        <time>2011-06-14T12:01:42Z</time>
      </trkpt>
      <trkpt lat="46.00328" lon="6.3375">
        <ele>1900.663818</ele>
        <time>2011-06-14T12:01:53Z</time>
      </trkpt>
      <trkpt lat="46.00329" lon="6.33747">
        <ele>1902.105713</ele>
        <time>2011-06-14T12:02:03Z</time>
      </trkpt>
      <trkpt lat="46.0033" lon="6.33748">
        <ele>1902.586426</ele>
        <time>2011-06-14T12:02:13Z</time>
      </trkpt>
      <trkpt lat="46.00334" lon="6.33747">
        <ele>1904.028564</ele>
        <time>2011-06-14T12:02:21Z</time>
      </trkpt>
      <trkpt lat="46.00331" lon="6.33746">
        <ele>1904.989746</ele>
        <time>2011-06-14T12:02:33Z</time>
      </trkpt>
      <trkpt lat="46.00335" lon="6.33739">
        <ele>1904.509033</ele>
        <time>2011-06-14T12:02:49Z</time>
      </trkpt>
      <trkpt lat="46.00337" lon="6.33738">
        <ele>1905.470459</ele>
        <time>2011-06-14T12:02:58Z</time>
      </trkpt>
      <trkpt lat="46.00339" lon="6.33738">
        <ele>1906.431641</ele>
        <time>2011-06-14T12:03:11Z</time>
      </trkpt>
      <trkpt lat="46.0034" lon="6.3374">
        <ele>1907.393066</ele>
        <time>2011-06-14T12:03:30Z</time>
      </trkpt>
      <trkpt lat="46.00344" lon="6.33743">
        <ele>1908.834961</ele>
        <time>2011-06-14T12:03:47Z</time>
      </trkpt>
      <trkpt lat="46.00347" lon="6.33747">
        <ele>1911.718994</ele>
        <time>2011-06-14T12:04:08Z</time>
      </trkpt>
      <trkpt lat="46.00347" lon="6.33744">
        <ele>1914.12207</ele>
        <time>2011-06-14T12:04:26Z</time>
      </trkpt>
      <trkpt lat="46.00347" lon="6.33742">
        <ele>1916.044922</ele>
        <time>2011-06-14T12:04:33Z</time>
      </trkpt>
      <trkpt lat="46.00348" lon="6.33739">
        <ele>1917.967529</ele>
        <time>2011-06-14T12:04:43Z</time>
      </trkpt>
      <trkpt lat="46.0035" lon="6.33742">
        <ele>1918.928955</ele>
        <time>2011-06-14T12:04:51Z</time>
      </trkpt>
      <trkpt lat="46.00349" lon="6.33752">
        <ele>1919.890137</ele>
        <time>2011-06-14T12:04:56Z</time>
      </trkpt>
      <trkpt lat="46.00352" lon="6.33747">
        <ele>1920.851563</ele>
        <time>2011-06-14T12:05:01Z</time>
      </trkpt>
      <trkpt lat="46.00356" lon="6.3374">
        <ele>1921.812744</ele>
        <time>2011-06-14T12:05:10Z</time>
      </trkpt>
      <trkpt lat="46.00354" lon="6.33734">
        <ele>1924.216064</ele>
        <time>2011-06-14T12:05:22Z</time>
      </trkpt>
      <trkpt lat="46.00354" lon="6.33731">
        <ele>1925.657959</ele>
        <time>2011-06-14T12:05:33Z</time>
      </trkpt>
      <trkpt lat="46.00354" lon="6.33725">
        <ele>1928.061279</ele>
        <time>2011-06-14T12:05:45Z</time>
      </trkpt>
      <trkpt lat="46.00356" lon="6.33721">
        <ele>1929.022461</ele>
        <time>2011-06-14T12:05:53Z</time>
      </trkpt>
      <trkpt lat="46.00358" lon="6.33716">
        <ele>1930.4646</ele>
        <time>2011-06-14T12:06:03Z</time>
      </trkpt>
      <trkpt lat="46.0036" lon="6.33711">
        <ele>1932.387451</ele>
        <time>2011-06-14T12:06:13Z</time>
      </trkpt>
      <trkpt lat="46.00362" lon="6.33707">
        <ele>1933.348633</ele>
        <time>2011-06-14T12:06:21Z</time>
      </trkpt>
      <trkpt lat="46.00364" lon="6.3371">
        <ele>1934.310059</ele>
        <time>2011-06-14T12:06:28Z</time>
      </trkpt>
      <trkpt lat="46.00367" lon="6.33713">
        <ele>1935.751953</ele>
        <time>2011-06-14T12:06:35Z</time>
      </trkpt>
      <trkpt lat="46.0037" lon="6.33712">
        <ele>1937.193848</ele>
        <time>2011-06-14T12:06:43Z</time>
      </trkpt>
      <trkpt lat="46.00371" lon="6.33706">
        <ele>1938.635986</ele>
        <time>2011-06-14T12:06:51Z</time>
      </trkpt>
      <trkpt lat="46.0037" lon="6.33701">
        <ele>1938.155273</ele>
        <time>2011-06-14T12:06:59Z</time>
      </trkpt>
      <trkpt lat="46.00369" lon="6.33695">
        <ele>1939.116455</ele>
        <time>2011-06-14T12:07:08Z</time>
      </trkpt>
      <trkpt lat="46.00371" lon="6.33691">
        <ele>1940.077881</ele>
        <time>2011-06-14T12:07:15Z</time>
      </trkpt>
      <trkpt lat="46.00372" lon="6.3369">
        <ele>1940.55835</ele>
        <time>2011-06-14T12:07:24Z</time>
      </trkpt>
      <trkpt lat="46.00375" lon="6.33688">
        <ele>1941.039063</ele>
        <time>2011-06-14T12:07:32Z</time>
      </trkpt>
      <trkpt lat="46.00374" lon="6.33685">
        <ele>1942.96167</ele>
        <time>2011-06-14T12:09:04Z</time>
      </trkpt>
      <trkpt lat="46.00373" lon="6.33683">
        <ele>1943.442383</ele>
        <time>2011-06-14T12:09:13Z</time>
      </trkpt>
      <trkpt lat="46.00369" lon="6.3368">
        <ele>1944.403564</ele>
        <time>2011-06-14T12:09:23Z</time>
      </trkpt>
      <trkpt lat="46.0037" lon="6.33678">
        <ele>1945.36499</ele>
        <time>2011-06-14T12:09:31Z</time>
      </trkpt>
      <trkpt lat="46.00368" lon="6.33676">
        <ele>1946.806885</ele>
        <time>2011-06-14T12:09:41Z</time>
      </trkpt>
      <trkpt lat="46.00367" lon="6.33672">
        <ele>1948.249023</ele>
        <time>2011-06-14T12:09:51Z</time>
      </trkpt>
      <trkpt lat="46.00366" lon="6.3367">
        <ele>1950.171875</ele>
        <time>2011-06-14T12:10:00Z</time>
      </trkpt>
      <trkpt lat="46.00364" lon="6.33669">
        <ele>1950.652344</ele>
        <time>2011-06-14T12:10:08Z</time>
      </trkpt>
      <trkpt lat="46.00362" lon="6.33666">
        <ele>1951.133057</ele>
        <time>2011-06-14T12:10:15Z</time>
      </trkpt>
      <trkpt lat="46.00359" lon="6.33663">
        <ele>1951.61377</ele>
        <time>2011-06-14T12:10:23Z</time>
      </trkpt>
      <trkpt lat="46.0036" lon="6.33658">
        <ele>1953.055664</ele>
        <time>2011-06-14T12:10:31Z</time>
      </trkpt>
      <trkpt lat="46.00358" lon="6.33651">
        <ele>1953.055664</ele>
        <time>2011-06-14T12:10:41Z</time>
      </trkpt>
      <trkpt lat="46.00357" lon="6.33646">
        <ele>1954.497559</ele>
        <time>2011-06-14T12:10:49Z</time>
      </trkpt>
      <trkpt lat="46.00355" lon="6.33641">
        <ele>1954.978271</ele>
        <time>2011-06-14T12:10:57Z</time>
      </trkpt>
      <trkpt lat="46.00352" lon="6.33637">
        <ele>1955.458984</ele>
        <time>2011-06-14T12:11:05Z</time>
      </trkpt>
      <trkpt lat="46.00347" lon="6.33633">
        <ele>1955.458984</ele>
        <time>2011-06-14T12:11:13Z</time>
      </trkpt>
      <trkpt lat="46.00344" lon="6.33625">
        <ele>1956.420166</ele>
        <time>2011-06-14T12:11:23Z</time>
      </trkpt>
      <trkpt lat="46.00341" lon="6.3362">
        <ele>1957.381592</ele>
        <time>2011-06-14T12:11:32Z</time>
      </trkpt>
      <trkpt lat="46.00337" lon="6.33615">
        <ele>1957.862305</ele>
        <time>2011-06-14T12:11:42Z</time>
      </trkpt>
      <trkpt lat="46.00336" lon="6.33609">
        <ele>1959.304199</ele>
        <time>2011-06-14T12:11:50Z</time>
      </trkpt>
      <trkpt lat="46.00335" lon="6.33602">
        <ele>1959.784668</ele>
        <time>2011-06-14T12:11:58Z</time>
      </trkpt>
      <trkpt lat="46.00338" lon="6.33594">
        <ele>1961.226807</ele>
        <time>2011-06-14T12:12:09Z</time>
      </trkpt>
      <trkpt lat="46.00337" lon="6.33586">
        <ele>1962.187988</ele>
        <time>2011-06-14T12:12:18Z</time>
      </trkpt>
      <trkpt lat="46.00335" lon="6.33581">
        <ele>1963.629883</ele>
        <time>2011-06-14T12:12:27Z</time>
      </trkpt>
      <trkpt lat="46.00333" lon="6.33579">
        <ele>1964.591553</ele>
        <time>2011-06-14T12:12:34Z</time>
      </trkpt>
      <trkpt lat="46.0033" lon="6.33575">
        <ele>1964.591553</ele>
        <time>2011-06-14T12:12:43Z</time>
      </trkpt>
      <trkpt lat="46.00329" lon="6.33573">
        <ele>1964.591553</ele>
        <time>2011-06-14T12:12:52Z</time>
      </trkpt>
      <trkpt lat="46.00327" lon="6.33573">
        <ele>1963.149414</ele>
        <time>2011-06-14T12:13:03Z</time>
      </trkpt>
      <trkpt lat="46.00324" lon="6.33573">
        <ele>1962.668701</ele>
        <time>2011-06-14T12:13:10Z</time>
      </trkpt>
      <trkpt lat="46.00321" lon="6.33571">
        <ele>1961.70752</ele>
        <time>2011-06-14T12:13:19Z</time>
      </trkpt>
      <trkpt lat="46.00321" lon="6.33568">
        <ele>1960.265381</ele>
        <time>2011-06-14T12:13:29Z</time>
      </trkpt>
      <trkpt lat="46.00319" lon="6.33564">
        <ele>1959.784668</ele>
        <time>2011-06-14T12:13:38Z</time>
      </trkpt>
      <trkpt lat="46.00318" lon="6.33562">
        <ele>1962.668701</ele>
        <time>2011-06-14T12:13:57Z</time>
      </trkpt>
      <trkpt lat="46.00317" lon="6.3356">
        <ele>1964.591553</ele>
        <time>2011-06-14T12:14:14Z</time>
      </trkpt>
      <trkpt lat="46.00315" lon="6.33556">
        <ele>1966.033447</ele>
        <time>2011-06-14T12:14:35Z</time>
      </trkpt>
      <trkpt lat="46.00313" lon="6.33549">
        <ele>1967.475342</ele>
        <time>2011-06-14T12:14:46Z</time>
      </trkpt>
      <trkpt lat="46.00313" lon="6.33544">
        <ele>1969.398193</ele>
        <time>2011-06-14T12:14:56Z</time>
      </trkpt>
      <trkpt lat="46.00315" lon="6.33541">
        <ele>1970.359375</ele>
        <time>2011-06-14T12:15:05Z</time>
      </trkpt>
      <trkpt lat="46.00314" lon="6.33536">
        <ele>1970.840088</ele>
        <time>2011-06-14T12:15:12Z</time>
      </trkpt>
      <trkpt lat="46.00314" lon="6.33533">
        <ele>1971.80127</ele>
        <time>2011-06-14T12:15:21Z</time>
      </trkpt>
      <trkpt lat="46.00314" lon="6.33529">
        <ele>1972.281982</ele>
        <time>2011-06-14T12:15:29Z</time>
      </trkpt>
      <trkpt lat="46.00313" lon="6.33523">
        <ele>1974.20459</ele>
        <time>2011-06-14T12:15:39Z</time>
      </trkpt>
      <trkpt lat="46.0031" lon="6.33519">
        <ele>1975.165771</ele>
        <time>2011-06-14T12:15:48Z</time>
      </trkpt>
      <trkpt lat="46.00309" lon="6.33515">
        <ele>1977.088623</ele>
        <time>2011-06-14T12:15:56Z</time>
      </trkpt>
      <trkpt lat="46.00308" lon="6.33513">
        <ele>1978.530518</ele>
        <time>2011-06-14T12:16:14Z</time>
      </trkpt>
      <trkpt lat="46.00307" lon="6.33511">
        <ele>1980.934082</ele>
        <time>2011-06-14T12:16:22Z</time>
      </trkpt>
      <trkpt lat="46.00307" lon="6.33508">
        <ele>1981.895264</ele>
        <time>2011-06-14T12:16:29Z</time>
      </trkpt>
      <trkpt lat="46.00308" lon="6.33507">
        <ele>1982.856445</ele>
        <time>2011-06-14T12:16:32Z</time>
      </trkpt>
      <trkpt lat="46.00311" lon="6.33505">
        <ele>1983.817871</ele>
        <time>2011-06-14T12:16:41Z</time>
      </trkpt>
      <trkpt lat="46.0031" lon="6.33497">
        <ele>1985.259766</ele>
        <time>2011-06-14T12:16:50Z</time>
      </trkpt>
      <trkpt lat="46.00306" lon="6.33487">
        <ele>1985.740479</ele>
        <time>2011-06-14T12:17:00Z</time>
      </trkpt>
      <trkpt lat="46.00304" lon="6.33479">
        <ele>1985.259766</ele>
        <time>2011-06-14T12:17:08Z</time>
      </trkpt>
      <trkpt lat="46.00303" lon="6.3347">
        <ele>1985.740479</ele>
        <time>2011-06-14T12:17:18Z</time>
      </trkpt>
      <trkpt lat="46.00303" lon="6.33462">
        <ele>1987.182373</ele>
        <time>2011-06-14T12:17:26Z</time>
      </trkpt>
      <trkpt lat="46.00303" lon="6.33455">
        <ele>1988.143799</ele>
        <time>2011-06-14T12:17:35Z</time>
      </trkpt>
      <trkpt lat="46.00303" lon="6.33449">
        <ele>1989.585693</ele>
        <time>2011-06-14T12:17:44Z</time>
      </trkpt>
      <trkpt lat="46.00306" lon="6.33438">
        <ele>1988.624512</ele>
        <time>2011-06-14T12:20:04Z</time>
      </trkpt>
      <trkpt lat="46.00305" lon="6.33429">
        <ele>1988.624512</ele>
        <time>2011-06-14T12:20:13Z</time>
      </trkpt>
      <trkpt lat="46.00304" lon="6.33424">
        <ele>1986.70166</ele>
        <time>2011-06-14T12:20:21Z</time>
      </trkpt>
      <trkpt lat="46.00303" lon="6.33415">
        <ele>1985.259766</ele>
        <time>2011-06-14T12:20:30Z</time>
      </trkpt>
      <trkpt lat="46.00303" lon="6.33402">
        <ele>1983.817871</ele>
        <time>2011-06-14T12:20:42Z</time>
      </trkpt>
      <trkpt lat="46.00305" lon="6.33392">
        <ele>1983.817871</ele>
        <time>2011-06-14T12:20:51Z</time>
      </trkpt>
      <trkpt lat="46.00305" lon="6.33384">
        <ele>1982.856445</ele>
        <time>2011-06-14T12:20:59Z</time>
      </trkpt>
      <trkpt lat="46.00304" lon="6.33379">
        <ele>1981.414551</ele>
        <time>2011-06-14T12:21:08Z</time>
      </trkpt>
      <trkpt lat="46.00304" lon="6.33374">
        <ele>1979.972412</ele>
        <time>2011-06-14T12:21:15Z</time>
      </trkpt>
      <trkpt lat="46.00305" lon="6.3337">
        <ele>1979.972412</ele>
        <time>2011-06-14T12:21:23Z</time>
      </trkpt>
      <trkpt lat="46.00307" lon="6.33363">
        <ele>1979.010986</ele>
        <time>2011-06-14T12:21:30Z</time>
      </trkpt>
      <trkpt lat="46.00309" lon="6.33352">
        <ele>1978.530518</ele>
        <time>2011-06-14T12:21:39Z</time>
      </trkpt>
      <trkpt lat="46.00311" lon="6.33339">
        <ele>1976.127197</ele>
        <time>2011-06-14T12:21:50Z</time>
      </trkpt>
      <trkpt lat="46.00312" lon="6.33321">
        <ele>1974.20459</ele>
        <time>2011-06-14T12:22:02Z</time>
      </trkpt>
      <trkpt lat="46.00312" lon="6.33304">
        <ele>1974.20459</ele>
        <time>2011-06-14T12:22:14Z</time>
      </trkpt>
      <trkpt lat="46.00308" lon="6.33296">
        <ele>1975.165771</ele>
        <time>2011-06-14T12:22:23Z</time>
      </trkpt>
      <trkpt lat="46.00306" lon="6.33292">
        <ele>1977.088623</ele>
        <time>2011-06-14T12:22:31Z</time>
      </trkpt>
      <trkpt lat="46.00304" lon="6.33289">
        <ele>1976.60791</ele>
        <time>2011-06-14T12:22:39Z</time>
      </trkpt>
      <trkpt lat="46.00304" lon="6.33284">
        <ele>1976.127197</ele>
        <time>2011-06-14T12:22:46Z</time>
      </trkpt>
      <trkpt lat="46.00303" lon="6.33278">
        <ele>1975.165771</ele>
        <time>2011-06-14T12:22:52Z</time>
      </trkpt>
      <trkpt lat="46.00305" lon="6.3327">
        <ele>1975.165771</ele>
        <time>2011-06-14T12:23:00Z</time>
      </trkpt>
      <trkpt lat="46.00302" lon="6.33262">
        <ele>1977.569092</ele>
        <time>2011-06-14T12:23:09Z</time>
      </trkpt>
      <trkpt lat="46.00299" lon="6.33255">
        <ele>1979.010986</ele>
        <time>2011-06-14T12:23:19Z</time>
      </trkpt>
      <trkpt lat="46.00297" lon="6.33246">
        <ele>1981.414551</ele>
        <time>2011-06-14T12:23:31Z</time>
      </trkpt>
      <trkpt lat="46.00293" lon="6.3324">
        <ele>1982.375977</ele>
        <time>2011-06-14T12:23:42Z</time>
      </trkpt>
      <trkpt lat="46.0029" lon="6.33235">
        <ele>1984.298584</ele>
        <time>2011-06-14T12:23:52Z</time>
      </trkpt>
      <trkpt lat="46.00287" lon="6.33231">
        <ele>1985.259766</ele>
        <time>2011-06-14T12:24:00Z</time>
      </trkpt>
      <trkpt lat="46.00284" lon="6.33225">
        <ele>1985.740479</ele>
        <time>2011-06-14T12:24:09Z</time>
      </trkpt>
      <trkpt lat="46.00284" lon="6.33217">
        <ele>1987.663086</ele>
        <time>2011-06-14T12:24:19Z</time>
      </trkpt>
      <trkpt lat="46.00282" lon="6.3321">
        <ele>1988.624512</ele>
        <time>2011-06-14T12:24:27Z</time>
      </trkpt>
      <trkpt lat="46.00281" lon="6.33205">
        <ele>1991.027588</ele>
        <time>2011-06-14T12:24:37Z</time>
      </trkpt>
      <trkpt lat="46.00285" lon="6.33205">
        <ele>1991.508301</ele>
        <time>2011-06-14T12:24:46Z</time>
      </trkpt>
      <trkpt lat="46.00286" lon="6.33203">
        <ele>1991.989014</ele>
        <time>2011-06-14T12:24:53Z</time>
      </trkpt>
      <trkpt lat="46.00284" lon="6.33198">
        <ele>1993.911621</ele>
        <time>2011-06-14T12:25:02Z</time>
      </trkpt>
      <trkpt lat="46.00282" lon="6.33189">
        <ele>1994.39209</ele>
        <time>2011-06-14T12:25:11Z</time>
      </trkpt>
      <trkpt lat="46.00283" lon="6.33183">
        <ele>1995.353516</ele>
        <time>2011-06-14T12:25:19Z</time>
      </trkpt>
      <trkpt lat="46.0028" lon="6.33175">
        <ele>1995.834229</ele>
        <time>2011-06-14T12:25:27Z</time>
      </trkpt>
      <trkpt lat="46.00277" lon="6.33167">
        <ele>1995.353516</ele>
        <time>2011-06-14T12:25:36Z</time>
      </trkpt>
      <trkpt lat="46.00277" lon="6.33159">
        <ele>1996.315186</ele>
        <time>2011-06-14T12:25:44Z</time>
      </trkpt>
      <trkpt lat="46.0028" lon="6.33151">
        <ele>1997.276367</ele>
        <time>2011-06-14T12:25:53Z</time>
      </trkpt>
      <trkpt lat="46.00281" lon="6.33142">
        <ele>1997.75708</ele>
        <time>2011-06-14T12:26:01Z</time>
      </trkpt>
      <trkpt lat="46.00281" lon="6.33132">
        <ele>1998.718262</ele>
        <time>2011-06-14T12:26:10Z</time>
      </trkpt>
      <trkpt lat="46.00282" lon="6.33123">
        <ele>1999.198975</ele>
        <time>2011-06-14T12:26:18Z</time>
      </trkpt>
      <trkpt lat="46.00284" lon="6.33113">
        <ele>1999.679688</ele>
        <time>2011-06-14T12:26:27Z</time>
      </trkpt>
      <trkpt lat="46.00284" lon="6.33102">
        <ele>1999.198975</ele>
        <time>2011-06-14T12:26:36Z</time>
      </trkpt>
      <trkpt lat="46.00284" lon="6.33099">
        <ele>1998.718262</ele>
        <time>2011-06-14T12:26:38Z</time>
      </trkpt>
      <trkpt lat="46.00288" lon="6.33086">
        <ele>1998.237549</ele>
        <time>2011-06-14T12:26:49Z</time>
      </trkpt>
      <trkpt lat="46.00288" lon="6.33084">
        <ele>1998.237549</ele>
        <time>2011-06-14T12:26:57Z</time>
      </trkpt>
      <trkpt lat="46.00292" lon="6.33077">
        <ele>1999.198975</ele>
        <time>2011-06-14T12:30:21Z</time>
      </trkpt>
      <trkpt lat="46.00293" lon="6.33072">
        <ele>1999.679688</ele>
        <time>2011-06-14T12:30:29Z</time>
      </trkpt>
      <trkpt lat="46.00294" lon="6.33062">
        <ele>1999.679688</ele>
        <time>2011-06-14T12:30:38Z</time>
      </trkpt>
      <trkpt lat="46.00295" lon="6.33053">
        <ele>1999.198975</ele>
        <time>2011-06-14T12:30:46Z</time>
      </trkpt>
      <trkpt lat="46.00295" lon="6.33034">
        <ele>1998.237549</ele>
        <time>2011-06-14T12:30:59Z</time>
      </trkpt>
      <trkpt lat="46.00296" lon="6.33014">
        <ele>1997.276367</ele>
        <time>2011-06-14T12:31:12Z</time>
      </trkpt>
      <trkpt lat="46.00298" lon="6.32994">
        <ele>1995.834229</ele>
        <time>2011-06-14T12:31:25Z</time>
      </trkpt>
      <trkpt lat="46.00299" lon="6.32975">
        <ele>1993.911621</ele>
        <time>2011-06-14T12:31:36Z</time>
      </trkpt>
      <trkpt lat="46.00298" lon="6.3296">
        <ele>1991.027588</ele>
        <time>2011-06-14T12:31:46Z</time>
      </trkpt>
      <trkpt lat="46.00293" lon="6.32947">
        <ele>1990.066406</ele>
        <time>2011-06-14T12:31:56Z</time>
      </trkpt>
      <trkpt lat="46.00291" lon="6.32944">
        <ele>1989.10498</ele>
        <time>2011-06-14T12:32:05Z</time>
      </trkpt>
      <trkpt lat="46.00288" lon="6.32932">
        <ele>1986.70166</ele>
        <time>2011-06-14T12:32:14Z</time>
      </trkpt>
      <trkpt lat="46.00288" lon="6.32928">
        <ele>1985.259766</ele>
        <time>2011-06-14T12:32:17Z</time>
      </trkpt>
      <trkpt lat="46.00289" lon="6.32922">
        <ele>1983.817871</ele>
        <time>2011-06-14T12:32:21Z</time>
      </trkpt>
      <trkpt lat="46.00292" lon="6.32908">
        <ele>1981.414551</ele>
        <time>2011-06-14T12:32:32Z</time>
      </trkpt>
      <trkpt lat="46.00292" lon="6.32904">
        <ele>1979.972412</ele>
        <time>2011-06-14T12:32:35Z</time>
      </trkpt>
      <trkpt lat="46.00292" lon="6.32897">
        <ele>1978.530518</ele>
        <time>2011-06-14T12:32:41Z</time>
      </trkpt>
      <trkpt lat="46.00293" lon="6.32883">
        <ele>1976.60791</ele>
        <time>2011-06-14T12:32:50Z</time>
      </trkpt>
      <trkpt lat="46.00292" lon="6.3287">
        <ele>1973.723877</ele>
        <time>2011-06-14T12:33:02Z</time>
      </trkpt>
      <trkpt lat="46.00292" lon="6.32867">
        <ele>1972.281982</ele>
        <time>2011-06-14T12:33:05Z</time>
      </trkpt>
      <trkpt lat="46.0029" lon="6.32852">
        <ele>1971.80127</ele>
        <time>2011-06-14T12:33:14Z</time>
      </trkpt>
      <trkpt lat="46.00288" lon="6.32842">
        <ele>1972.762695</ele>
        <time>2011-06-14T12:33:23Z</time>
      </trkpt>
      <trkpt lat="46.00288" lon="6.3284">
        <ele>1973.723877</ele>
        <time>2011-06-14T12:33:25Z</time>
      </trkpt>
      <trkpt lat="46.00287" lon="6.32833">
        <ele>1975.165771</ele>
        <time>2011-06-14T12:33:35Z</time>
      </trkpt>
      <trkpt lat="46.0029" lon="6.32828">
        <ele>1977.569092</ele>
        <time>2011-06-14T12:33:45Z</time>
      </trkpt>
      <trkpt lat="46.00289" lon="6.32823">
        <ele>1979.491699</ele>
        <time>2011-06-14T12:33:54Z</time>
      </trkpt>
      <trkpt lat="46.00292" lon="6.3282">
        <ele>1980.453369</ele>
        <time>2011-06-14T12:34:03Z</time>
      </trkpt>
      <trkpt lat="46.00292" lon="6.32816">
        <ele>1982.375977</ele>
        <time>2011-06-14T12:34:11Z</time>
      </trkpt>
      <trkpt lat="46.00291" lon="6.3281">
        <ele>1983.337158</ele>
        <time>2011-06-14T12:34:20Z</time>
      </trkpt>
      <trkpt lat="46.00291" lon="6.32807">
        <ele>1984.779297</ele>
        <time>2011-06-14T12:34:23Z</time>
      </trkpt>
      <trkpt lat="46.00291" lon="6.32804">
        <ele>1986.221191</ele>
        <time>2011-06-14T12:34:32Z</time>
      </trkpt>
      <trkpt lat="46.0029" lon="6.32801">
        <ele>1987.663086</ele>
        <time>2011-06-14T12:34:40Z</time>
      </trkpt>
      <trkpt lat="46.00291" lon="6.32799">
        <ele>1988.143799</ele>
        <time>2011-06-14T12:34:47Z</time>
      </trkpt>
      <trkpt lat="46.00293" lon="6.32797">
        <ele>1989.10498</ele>
        <time>2011-06-14T12:34:54Z</time>
      </trkpt>
      <trkpt lat="46.00294" lon="6.3279">
        <ele>1990.546875</ele>
        <time>2011-06-14T12:35:02Z</time>
      </trkpt>
      <trkpt lat="46.00294" lon="6.3278">
        <ele>1991.508301</ele>
        <time>2011-06-14T12:35:12Z</time>
      </trkpt>
      <trkpt lat="46.00296" lon="6.32769">
        <ele>1992.950195</ele>
        <time>2011-06-14T12:35:23Z</time>
      </trkpt>
      <trkpt lat="46.00297" lon="6.32759">
        <ele>1995.834229</ele>
        <time>2011-06-14T12:35:35Z</time>
      </trkpt>
      <trkpt lat="46.00298" lon="6.32751">
        <ele>1997.276367</ele>
        <time>2011-06-14T12:35:44Z</time>
      </trkpt>
      <trkpt lat="46.00299" lon="6.32741">
        <ele>1997.75708</ele>
        <time>2011-06-14T12:35:54Z</time>
      </trkpt>
      <trkpt lat="46.003" lon="6.32732">
        <ele>2000.1604</ele>
        <time>2011-06-14T12:36:05Z</time>
      </trkpt>
      <trkpt lat="46.00301" lon="6.32723">
        <ele>2001.121582</ele>
        <time>2011-06-14T12:36:14Z</time>
      </trkpt>
      <trkpt lat="46.00304" lon="6.32717">
        <ele>2002.082764</ele>
        <time>2011-06-14T12:36:23Z</time>
      </trkpt>
      <trkpt lat="46.00306" lon="6.3271">
        <ele>2003.524902</ele>
        <time>2011-06-14T12:36:34Z</time>
      </trkpt>
      <trkpt lat="46.00306" lon="6.32703">
        <ele>2006.408691</ele>
        <time>2011-06-14T12:36:44Z</time>
      </trkpt>
      <trkpt lat="46.0031" lon="6.327">
        <ele>2007.370117</ele>
        <time>2011-06-14T12:36:53Z</time>
      </trkpt>
      <trkpt lat="46.00313" lon="6.32701">
        <ele>2007.85083</ele>
        <time>2011-06-14T12:37:02Z</time>
      </trkpt>
      <trkpt lat="46.00313" lon="6.32693">
        <ele>2007.370117</ele>
        <time>2011-06-14T12:38:17Z</time>
      </trkpt>
      <trkpt lat="46.00318" lon="6.32677">
        <ele>2006.889404</ele>
        <time>2011-06-14T12:38:29Z</time>
      </trkpt>
      <trkpt lat="46.00322" lon="6.32666">
        <ele>2006.889404</ele>
        <time>2011-06-14T12:38:37Z</time>
      </trkpt>
      <trkpt lat="46.00324" lon="6.32652">
        <ele>2006.408691</ele>
        <time>2011-06-14T12:38:48Z</time>
      </trkpt>
      <trkpt lat="46.00324" lon="6.32641">
        <ele>2005.927979</ele>
        <time>2011-06-14T12:38:57Z</time>
      </trkpt>
      <trkpt lat="46.00325" lon="6.32631">
        <ele>2004.486084</ele>
        <time>2011-06-14T12:39:06Z</time>
      </trkpt>
      <trkpt lat="46.00327" lon="6.32627">
        <ele>2002.082764</ele>
        <time>2011-06-14T12:39:14Z</time>
      </trkpt>
      <trkpt lat="46.00326" lon="6.3262">
        <ele>2000.1604</ele>
        <time>2011-06-14T12:39:22Z</time>
      </trkpt>
      <trkpt lat="46.00325" lon="6.32614">
        <ele>1999.198975</ele>
        <time>2011-06-14T12:39:29Z</time>
      </trkpt>
      <trkpt lat="46.00327" lon="6.3261">
        <ele>1998.718262</ele>
        <time>2011-06-14T12:39:38Z</time>
      </trkpt>
      <trkpt lat="46.00326" lon="6.32603">
        <ele>1998.718262</ele>
        <time>2011-06-14T12:39:45Z</time>
      </trkpt>
      <trkpt lat="46.00327" lon="6.32595">
        <ele>1998.718262</ele>
        <time>2011-06-14T12:39:54Z</time>
      </trkpt>
      <trkpt lat="46.00331" lon="6.32599">
        <ele>1999.679688</ele>
        <time>2011-06-14T13:16:54Z</time>
      </trkpt>
      <trkpt lat="46.00333" lon="6.32596">
        <ele>2000.640869</ele>
        <time>2011-06-14T13:17:01Z</time>
      </trkpt>
      <trkpt lat="46.00339" lon="6.32598">
        <ele>2001.602295</ele>
        <time>2011-06-14T13:17:11Z</time>
      </trkpt>
      <trkpt lat="46.00346" lon="6.32599">
        <ele>2003.524902</ele>
        <time>2011-06-14T13:17:21Z</time>
      </trkpt>
      <trkpt lat="46.00355" lon="6.32598">
        <ele>2004.486084</ele>
        <time>2011-06-14T13:17:32Z</time>
      </trkpt>
      <trkpt lat="46.00365" lon="6.32596">
        <ele>2005.927979</ele>
        <time>2011-06-14T13:17:43Z</time>
      </trkpt>
      <trkpt lat="46.00373" lon="6.32591">
        <ele>2005.927979</ele>
        <time>2011-06-14T13:17:54Z</time>
      </trkpt>
      <trkpt lat="46.0038" lon="6.32581">
        <ele>2006.408691</ele>
        <time>2011-06-14T13:18:05Z</time>
      </trkpt>
      <trkpt lat="46.00383" lon="6.32572">
        <ele>2006.889404</ele>
        <time>2011-06-14T13:18:13Z</time>
      </trkpt>
      <trkpt lat="46.00384" lon="6.32558">
        <ele>2005.927979</ele>
        <time>2011-06-14T13:18:23Z</time>
      </trkpt>
      <trkpt lat="46.00384" lon="6.32553">
        <ele>2006.408691</ele>
        <time>2011-06-14T13:18:27Z</time>
      </trkpt>
      <trkpt lat="46.00382" lon="6.32533">
        <ele>2005.44751</ele>
        <time>2011-06-14T13:18:41Z</time>
      </trkpt>
      <trkpt lat="46.00381" lon="6.32518">
        <ele>2005.44751</ele>
        <time>2011-06-14T13:18:51Z</time>
      </trkpt>
      <trkpt lat="46.00382" lon="6.32503">
        <ele>2004.486084</ele>
        <time>2011-06-14T13:19:02Z</time>
      </trkpt>
      <trkpt lat="46.00382" lon="6.3249">
        <ele>2003.044189</ele>
        <time>2011-06-14T13:19:12Z</time>
      </trkpt>
      <trkpt lat="46.00382" lon="6.32487">
        <ele>2003.044189</ele>
        <time>2011-06-14T13:19:14Z</time>
      </trkpt>
      <trkpt lat="46.0038" lon="6.32471">
        <ele>2002.082764</ele>
        <time>2011-06-14T13:19:25Z</time>
      </trkpt>
      <trkpt lat="46.00381" lon="6.3245">
        <ele>1999.198975</ele>
        <time>2011-06-14T13:19:39Z</time>
      </trkpt>
      <trkpt lat="46.00378" lon="6.32442">
        <ele>1998.237549</ele>
        <time>2011-06-14T13:19:46Z</time>
      </trkpt>
      <trkpt lat="46.00378" lon="6.32439">
        <ele>1997.75708</ele>
        <time>2011-06-14T13:19:48Z</time>
      </trkpt>
      <trkpt lat="46.00378" lon="6.3243">
        <ele>1996.795654</ele>
        <time>2011-06-14T13:19:57Z</time>
      </trkpt>
      <trkpt lat="46.0038" lon="6.32423">
        <ele>1996.315186</ele>
        <time>2011-06-14T13:20:06Z</time>
      </trkpt>
      <trkpt lat="46.00387" lon="6.32423">
        <ele>1995.834229</ele>
        <time>2011-06-14T13:20:14Z</time>
      </trkpt>
      <trkpt lat="46.00393" lon="6.32424">
        <ele>1995.353516</ele>
        <time>2011-06-14T13:20:24Z</time>
      </trkpt>
      <trkpt lat="46.00393" lon="6.32416">
        <ele>1994.39209</ele>
        <time>2011-06-14T13:20:31Z</time>
      </trkpt>
      <trkpt lat="46.00393" lon="6.32411">
        <ele>1992.469727</ele>
        <time>2011-06-14T13:20:39Z</time>
      </trkpt>
      <trkpt lat="46.00397" lon="6.3241">
        <ele>1991.508301</ele>
        <time>2011-06-14T13:20:50Z</time>
      </trkpt>
      <trkpt lat="46.00398" lon="6.32405">
        <ele>1989.10498</ele>
        <time>2011-06-14T13:20:58Z</time>
      </trkpt>
      <trkpt lat="46.00398" lon="6.324">
        <ele>1987.182373</ele>
        <time>2011-06-14T13:21:07Z</time>
      </trkpt>
      <trkpt lat="46.00402" lon="6.32392">
        <ele>1985.740479</ele>
        <time>2011-06-14T13:21:16Z</time>
      </trkpt>
      <trkpt lat="46.00401" lon="6.32386">
        <ele>1983.337158</ele>
        <time>2011-06-14T13:21:23Z</time>
      </trkpt>
      <trkpt lat="46.004" lon="6.32377">
        <ele>1981.414551</ele>
        <time>2011-06-14T13:21:32Z</time>
      </trkpt>
      <trkpt lat="46.00399" lon="6.32366">
        <ele>1979.010986</ele>
        <time>2011-06-14T13:21:42Z</time>
      </trkpt>
      <trkpt lat="46.00397" lon="6.32352">
        <ele>1977.569092</ele>
        <time>2011-06-14T13:21:52Z</time>
      </trkpt>
      <trkpt lat="46.00398" lon="6.32337">
        <ele>1976.60791</ele>
        <time>2011-06-14T13:22:02Z</time>
      </trkpt>
      <trkpt lat="46.00401" lon="6.32324">
        <ele>1974.20459</ele>
        <time>2011-06-14T13:22:12Z</time>
      </trkpt>
      <trkpt lat="46.00405" lon="6.32312">
        <ele>1972.762695</ele>
        <time>2011-06-14T13:22:22Z</time>
      </trkpt>
      <trkpt lat="46.00406" lon="6.32303">
        <ele>1971.320557</ele>
        <time>2011-06-14T13:22:31Z</time>
      </trkpt>
      <trkpt lat="46.00408" lon="6.32294">
        <ele>1970.359375</ele>
        <time>2011-06-14T13:22:40Z</time>
      </trkpt>
      <trkpt lat="46.00407" lon="6.32285">
        <ele>1968.436768</ele>
        <time>2011-06-14T13:22:48Z</time>
      </trkpt>
      <trkpt lat="46.00407" lon="6.3228">
        <ele>1967.475342</ele>
        <time>2011-06-14T13:22:55Z</time>
      </trkpt>
      <trkpt lat="46.00404" lon="6.32274">
        <ele>1966.033447</ele>
        <time>2011-06-14T13:23:03Z</time>
      </trkpt>
      <trkpt lat="46.00407" lon="6.32264">
        <ele>1965.552979</ele>
        <time>2011-06-14T13:23:12Z</time>
      </trkpt>
      <trkpt lat="46.0041" lon="6.32255">
        <ele>1965.072266</ele>
        <time>2011-06-14T13:23:21Z</time>
      </trkpt>
      <trkpt lat="46.00411" lon="6.32246">
        <ele>1963.629883</ele>
        <time>2011-06-14T13:23:30Z</time>
      </trkpt>
      <trkpt lat="46.00411" lon="6.3224">
        <ele>1962.187988</ele>
        <time>2011-06-14T13:23:39Z</time>
      </trkpt>
      <trkpt lat="46.00413" lon="6.32239">
        <ele>1962.187988</ele>
        <time>2011-06-14T13:23:42Z</time>
      </trkpt>
      <trkpt lat="46.00421" lon="6.32236">
        <ele>1960.265381</ele>
        <time>2011-06-14T13:23:51Z</time>
      </trkpt>
      <trkpt lat="46.00424" lon="6.32226">
        <ele>1956.900879</ele>
        <time>2011-06-14T13:23:59Z</time>
      </trkpt>
      <trkpt lat="46.00424" lon="6.32216">
        <ele>1955.939453</ele>
        <time>2011-06-14T13:24:07Z</time>
      </trkpt>
      <trkpt lat="46.00426" lon="6.32213">
        <ele>1954.497559</ele>
        <time>2011-06-14T13:24:14Z</time>
      </trkpt>
      <trkpt lat="46.00428" lon="6.32207">
        <ele>1952.574951</ele>
        <time>2011-06-14T13:24:22Z</time>
      </trkpt>
      <trkpt lat="46.00432" lon="6.32198">
        <ele>1950.171875</ele>
        <time>2011-06-14T13:24:31Z</time>
      </trkpt>
      <trkpt lat="46.00432" lon="6.32188">
        <ele>1947.287598</ele>
        <time>2011-06-14T13:24:40Z</time>
      </trkpt>
      <trkpt lat="46.00435" lon="6.32181">
        <ele>1946.326416</ele>
        <time>2011-06-14T13:24:47Z</time>
      </trkpt>
      <trkpt lat="46.00437" lon="6.32173">
        <ele>1945.36499</ele>
        <time>2011-06-14T13:24:55Z</time>
      </trkpt>
      <trkpt lat="46.00436" lon="6.32165">
        <ele>1944.403564</ele>
        <time>2011-06-14T13:25:03Z</time>
      </trkpt>
      <trkpt lat="46.00439" lon="6.3216">
        <ele>1942.481201</ele>
        <time>2011-06-14T13:25:10Z</time>
      </trkpt>
      <trkpt lat="46.00438" lon="6.32156">
        <ele>1942.000488</ele>
        <time>2011-06-14T13:25:18Z</time>
      </trkpt>
      <trkpt lat="46.00435" lon="6.32154">
        <ele>1941.519775</ele>
        <time>2011-06-14T13:25:27Z</time>
      </trkpt>
      <trkpt lat="46.00433" lon="6.32152">
        <ele>1940.077881</ele>
        <time>2011-06-14T13:25:36Z</time>
      </trkpt>
      <trkpt lat="46.00435" lon="6.3215">
        <ele>1938.155273</ele>
        <time>2011-06-14T13:25:43Z</time>
      </trkpt>
      <trkpt lat="46.00438" lon="6.32144">
        <ele>1936.232666</ele>
        <time>2011-06-14T13:25:52Z</time>
      </trkpt>
      <trkpt lat="46.00435" lon="6.32138">
        <ele>1934.310059</ele>
        <time>2011-06-14T13:26:00Z</time>
      </trkpt>
      <trkpt lat="46.00433" lon="6.3213">
        <ele>1932.387451</ele>
        <time>2011-06-14T13:26:09Z</time>
      </trkpt>
      <trkpt lat="46.00434" lon="6.32126">
        <ele>1932.86792</ele>
        <time>2011-06-14T13:26:12Z</time>
      </trkpt>
      <trkpt lat="46.00439" lon="6.32119">
        <ele>1932.387451</ele>
        <time>2011-06-14T13:26:20Z</time>
      </trkpt>
      <trkpt lat="46.00439" lon="6.32115">
        <ele>1930.945313</ele>
        <time>2011-06-14T13:26:29Z</time>
      </trkpt>
      <trkpt lat="46.00439" lon="6.32113">
        <ele>1929.983887</ele>
        <time>2011-06-14T13:26:39Z</time>
      </trkpt>
      <trkpt lat="46.00441" lon="6.3211">
        <ele>1929.503174</ele>
        <time>2011-06-14T13:26:51Z</time>
      </trkpt>
      <trkpt lat="46.00443" lon="6.32108">
        <ele>1928.541992</ele>
        <time>2011-06-14T13:26:59Z</time>
      </trkpt>
      <trkpt lat="46.00443" lon="6.32104">
        <ele>1926.619385</ele>
        <time>2011-06-14T13:27:04Z</time>
      </trkpt>
      <trkpt lat="46.00447" lon="6.321">
        <ele>1924.696777</ele>
        <time>2011-06-14T13:27:13Z</time>
      </trkpt>
      <trkpt lat="46.00451" lon="6.32095">
        <ele>1923.735352</ele>
        <time>2011-06-14T13:27:20Z</time>
      </trkpt>
      <trkpt lat="46.00455" lon="6.32089">
        <ele>1920.851563</ele>
        <time>2011-06-14T13:27:27Z</time>
      </trkpt>
      <trkpt lat="46.0046" lon="6.32083">
        <ele>1919.409668</ele>
        <time>2011-06-14T13:27:35Z</time>
      </trkpt>
      <trkpt lat="46.00464" lon="6.32077">
        <ele>1917.967529</ele>
        <time>2011-06-14T13:27:43Z</time>
      </trkpt>
      <trkpt lat="46.00466" lon="6.32068">
        <ele>1916.525635</ele>
        <time>2011-06-14T13:27:51Z</time>
      </trkpt>
      <trkpt lat="46.00472" lon="6.32057">
        <ele>1914.602783</ele>
        <time>2011-06-14T13:28:02Z</time>
      </trkpt>
      <trkpt lat="46.00476" lon="6.32049">
        <ele>1911.238281</ele>
        <time>2011-06-14T13:28:10Z</time>
      </trkpt>
      <trkpt lat="46.0048" lon="6.32037">
        <ele>1909.796143</ele>
        <time>2011-06-14T13:28:21Z</time>
      </trkpt>
      <trkpt lat="46.00485" lon="6.32029">
        <ele>1908.834961</ele>
        <time>2011-06-14T13:28:29Z</time>
      </trkpt>
      <trkpt lat="46.00486" lon="6.32019">
        <ele>1907.393066</ele>
        <time>2011-06-14T13:28:37Z</time>
      </trkpt>
      <trkpt lat="46.00489" lon="6.32001">
        <ele>1905.950928</ele>
        <time>2011-06-14T13:28:49Z</time>
      </trkpt>
      <trkpt lat="46.00492" lon="6.31988">
        <ele>1904.028564</ele>
        <time>2011-06-14T13:28:59Z</time>
      </trkpt>
      <trkpt lat="46.00493" lon="6.31975">
        <ele>1902.586426</ele>
        <time>2011-06-14T13:29:09Z</time>
      </trkpt>
      <trkpt lat="46.00497" lon="6.31966">
        <ele>1901.144531</ele>
        <time>2011-06-14T13:29:18Z</time>
      </trkpt>
      <trkpt lat="46.00497" lon="6.31962">
        <ele>1899.702393</ele>
        <time>2011-06-14T13:29:27Z</time>
      </trkpt>
      <trkpt lat="46.00498" lon="6.31954">
        <ele>1898.740967</ele>
        <time>2011-06-14T13:29:35Z</time>
      </trkpt>
      <trkpt lat="46.00501" lon="6.31944">
        <ele>1896.818359</ele>
        <time>2011-06-14T13:29:44Z</time>
      </trkpt>
      <trkpt lat="46.00504" lon="6.31939">
        <ele>1895.376465</ele>
        <time>2011-06-14T13:29:51Z</time>
      </trkpt>
      <trkpt lat="46.00508" lon="6.31934">
        <ele>1894.895752</ele>
        <time>2011-06-14T13:30:00Z</time>
      </trkpt>
      <trkpt lat="46.0051" lon="6.31928">
        <ele>1893.93457</ele>
        <time>2011-06-14T13:30:08Z</time>
      </trkpt>
      <trkpt lat="46.00513" lon="6.31923">
        <ele>1891.53125</ele>
        <time>2011-06-14T13:30:15Z</time>
      </trkpt>
      <trkpt lat="46.00512" lon="6.31919">
        <ele>1890.089355</ele>
        <time>2011-06-14T13:30:18Z</time>
      </trkpt>
      <trkpt lat="46.00515" lon="6.31915">
        <ele>1888.647461</ele>
        <time>2011-06-14T13:30:24Z</time>
      </trkpt>
      <trkpt lat="46.00517" lon="6.3191">
        <ele>1887.205322</ele>
        <time>2011-06-14T13:30:31Z</time>
      </trkpt>
      <trkpt lat="46.00523" lon="6.31903">
        <ele>1884.802246</ele>
        <time>2011-06-14T13:30:40Z</time>
      </trkpt>
      <trkpt lat="46.00526" lon="6.31895">
        <ele>1882.398682</ele>
        <time>2011-06-14T13:30:49Z</time>
      </trkpt>
      <trkpt lat="46.00528" lon="6.31891">
        <ele>1880.476074</ele>
        <time>2011-06-14T13:30:57Z</time>
      </trkpt>
      <trkpt lat="46.00532" lon="6.31885">
        <ele>1877.111572</ele>
        <time>2011-06-14T13:31:08Z</time>
      </trkpt>
      <trkpt lat="46.00536" lon="6.31883">
        <ele>1876.150146</ele>
        <time>2011-06-14T13:31:15Z</time>
      </trkpt>
      <trkpt lat="46.00539" lon="6.31876">
        <ele>1874.227539</ele>
        <time>2011-06-14T13:31:25Z</time>
      </trkpt>
      <trkpt lat="46.00544" lon="6.31871">
        <ele>1871.824219</ele>
        <time>2011-06-14T13:31:34Z</time>
      </trkpt>
      <trkpt lat="46.0055" lon="6.31871">
        <ele>1869.901611</ele>
        <time>2011-06-14T13:31:43Z</time>
      </trkpt>
      <trkpt lat="46.00553" lon="6.31862">
        <ele>1868.94043</ele>
        <time>2011-06-14T13:31:50Z</time>
      </trkpt>
      <trkpt lat="46.00553" lon="6.31853">
        <ele>1868.94043</ele>
        <time>2011-06-14T13:31:57Z</time>
      </trkpt>
      <trkpt lat="46.00556" lon="6.31841">
        <ele>1868.459717</ele>
        <time>2011-06-14T13:32:08Z</time>
      </trkpt>
      <trkpt lat="46.00559" lon="6.31834">
        <ele>1867.97876</ele>
        <time>2011-06-14T13:32:17Z</time>
      </trkpt>
      <trkpt lat="46.00562" lon="6.31829">
        <ele>1867.017578</ele>
        <time>2011-06-14T13:32:26Z</time>
      </trkpt>
      <trkpt lat="46.00565" lon="6.31824">
        <ele>1865.094971</ele>
        <time>2011-06-14T13:32:38Z</time>
      </trkpt>
      <trkpt lat="46.00566" lon="6.31817">
        <ele>1863.652832</ele>
        <time>2011-06-14T13:32:48Z</time>
      </trkpt>
      <trkpt lat="46.00566" lon="6.31813">
        <ele>1862.210938</ele>
        <time>2011-06-14T13:32:57Z</time>
      </trkpt>
      <trkpt lat="46.00569" lon="6.31805">
        <ele>1860.769043</ele>
        <time>2011-06-14T13:33:06Z</time>
      </trkpt>
      <trkpt lat="46.00566" lon="6.31798">
        <ele>1859.327148</ele>
        <time>2011-06-14T13:33:15Z</time>
      </trkpt>
      <trkpt lat="46.00563" lon="6.31796">
        <ele>1857.885254</ele>
        <time>2011-06-14T13:33:21Z</time>
      </trkpt>
      <trkpt lat="46.00559" lon="6.31791">
        <ele>1856.443115</ele>
        <time>2011-06-14T13:33:30Z</time>
      </trkpt>
      <trkpt lat="46.00557" lon="6.31779">
        <ele>1854.040039</ele>
        <time>2011-06-14T13:33:40Z</time>
      </trkpt>
      <trkpt lat="46.00557" lon="6.31773">
        <ele>1853.078613</ele>
        <time>2011-06-14T13:33:47Z</time>
      </trkpt>
      <trkpt lat="46.00556" lon="6.3177">
        <ele>1852.5979</ele>
        <time>2011-06-14T13:33:49Z</time>
      </trkpt>
      <trkpt lat="46.00555" lon="6.31766">
        <ele>1851.636475</ele>
        <time>2011-06-14T13:33:52Z</time>
      </trkpt>
      <trkpt lat="46.00554" lon="6.31752">
        <ele>1850.675049</ele>
        <time>2011-06-14T13:34:03Z</time>
      </trkpt>
      <trkpt lat="46.00554" lon="6.31745">
        <ele>1853.078613</ele>
        <time>2011-06-14T13:34:12Z</time>
      </trkpt>
      <trkpt lat="46.00552" lon="6.31739">
        <ele>1854.520508</ele>
        <time>2011-06-14T13:34:21Z</time>
      </trkpt>
      <trkpt lat="46.00555" lon="6.31734">
        <ele>1855.001221</ele>
        <time>2011-06-14T13:34:28Z</time>
      </trkpt>
      <trkpt lat="46.00558" lon="6.31728">
        <ele>1855.001221</ele>
        <time>2011-06-14T13:34:37Z</time>
      </trkpt>
      <trkpt lat="46.0056" lon="6.31725">
        <ele>1855.001221</ele>
        <time>2011-06-14T13:34:44Z</time>
      </trkpt>
      <trkpt lat="46.0056" lon="6.31718">
        <ele>1852.5979</ele>
        <time>2011-06-14T13:34:52Z</time>
      </trkpt>
      <trkpt lat="46.00557" lon="6.31708">
        <ele>1849.233154</ele>
        <time>2011-06-14T13:35:01Z</time>
      </trkpt>
      <trkpt lat="46.00556" lon="6.31708">
        <ele>1849.233154</ele>
        <time>2011-06-14T13:35:02Z</time>
      </trkpt>
      <trkpt lat="46.00553" lon="6.31701">
        <ele>1849.233154</ele>
        <time>2011-06-14T13:35:11Z</time>
      </trkpt>
      <trkpt lat="46.00552" lon="6.31694">
        <ele>1847.79126</ele>
        <time>2011-06-14T13:35:19Z</time>
      </trkpt>
      <trkpt lat="46.0055" lon="6.31685">
        <ele>1845.387939</ele>
        <time>2011-06-14T13:35:28Z</time>
      </trkpt>
      <trkpt lat="46.00553" lon="6.31677">
        <ele>1842.984619</ele>
        <time>2011-06-14T13:35:36Z</time>
      </trkpt>
      <trkpt lat="46.00562" lon="6.31666">
        <ele>1842.023438</ele>
        <time>2011-06-14T13:35:49Z</time>
      </trkpt>
      <trkpt lat="46.00564" lon="6.31659">
        <ele>1839.620117</ele>
        <time>2011-06-14T13:35:59Z</time>
      </trkpt>
      <trkpt lat="46.00565" lon="6.31649">
        <ele>1838.178223</ele>
        <time>2011-06-14T13:36:08Z</time>
      </trkpt>
      <trkpt lat="46.00565" lon="6.31646">
        <ele>1836.255615</ele>
        <time>2011-06-14T13:36:11Z</time>
      </trkpt>
      <trkpt lat="46.00565" lon="6.31639">
        <ele>1834.813477</ele>
        <time>2011-06-14T13:36:19Z</time>
      </trkpt>
      <trkpt lat="46.00568" lon="6.31632">
        <ele>1832.890625</ele>
        <time>2011-06-14T13:36:28Z</time>
      </trkpt>
      <trkpt lat="46.00568" lon="6.31626">
        <ele>1832.410156</ele>
        <time>2011-06-14T13:36:36Z</time>
      </trkpt>
      <trkpt lat="46.0057" lon="6.31618">
        <ele>1830.968262</ele>
        <time>2011-06-14T13:36:46Z</time>
      </trkpt>
      <trkpt lat="46.00569" lon="6.31611">
        <ele>1829.526123</ele>
        <time>2011-06-14T13:36:56Z</time>
      </trkpt>
      <trkpt lat="46.00565" lon="6.31602">
        <ele>1826.642334</ele>
        <time>2011-06-14T13:37:07Z</time>
      </trkpt>
      <trkpt lat="46.00568" lon="6.31594">
        <ele>1825.200195</ele>
        <time>2011-06-14T13:37:15Z</time>
      </trkpt>
      <trkpt lat="46.00571" lon="6.31584">
        <ele>1824.719727</ele>
        <time>2011-06-14T13:37:25Z</time>
      </trkpt>
      <trkpt lat="46.00567" lon="6.31577">
        <ele>1821.835693</ele>
        <time>2011-06-14T13:37:35Z</time>
      </trkpt>
      <trkpt lat="46.00562" lon="6.31573">
        <ele>1820.393799</ele>
        <time>2011-06-14T13:37:42Z</time>
      </trkpt>
      <trkpt lat="46.00557" lon="6.31566">
        <ele>1818.95166</ele>
        <time>2011-06-14T13:37:50Z</time>
      </trkpt>
      <trkpt lat="46.00553" lon="6.31559">
        <ele>1817.990234</ele>
        <time>2011-06-14T13:37:59Z</time>
      </trkpt>
      <trkpt lat="46.0055" lon="6.31553">
        <ele>1817.509521</ele>
        <time>2011-06-14T13:38:07Z</time>
      </trkpt>
      <trkpt lat="46.00546" lon="6.31546">
        <ele>1816.067627</ele>
        <time>2011-06-14T13:38:15Z</time>
      </trkpt>
      <trkpt lat="46.00543" lon="6.31535">
        <ele>1814.625732</ele>
        <time>2011-06-14T13:38:24Z</time>
      </trkpt>
      <trkpt lat="46.00541" lon="6.31527">
        <ele>1813.664307</ele>
        <time>2011-06-14T13:38:31Z</time>
      </trkpt>
      <trkpt lat="46.00539" lon="6.31513">
        <ele>1812.222412</ele>
        <time>2011-06-14T13:38:41Z</time>
      </trkpt>
      <trkpt lat="46.00537" lon="6.31499">
        <ele>1811.26123</ele>
        <time>2011-06-14T13:38:50Z</time>
      </trkpt>
      <trkpt lat="46.00534" lon="6.31485">
        <ele>1811.26123</ele>
        <time>2011-06-14T13:39:00Z</time>
      </trkpt>
      <trkpt lat="46.00527" lon="6.31479">
        <ele>1810.299805</ele>
        <time>2011-06-14T13:39:09Z</time>
      </trkpt>
      <trkpt lat="46.00525" lon="6.31477">
        <ele>1809.819092</ele>
        <time>2011-06-14T13:39:11Z</time>
      </trkpt>
      <trkpt lat="46.00517" lon="6.31466">
        <ele>1808.377197</ele>
        <time>2011-06-14T13:39:23Z</time>
      </trkpt>
      <trkpt lat="46.00511" lon="6.31456">
        <ele>1806.935303</ele>
        <time>2011-06-14T13:39:33Z</time>
      </trkpt>
      <trkpt lat="46.00508" lon="6.31445">
        <ele>1806.45459</ele>
        <time>2011-06-14T13:39:43Z</time>
      </trkpt>
      <trkpt lat="46.00504" lon="6.31441">
        <ele>1804.531982</ele>
        <time>2011-06-14T13:39:52Z</time>
      </trkpt>
      <trkpt lat="46.005" lon="6.31439">
        <ele>1803.089844</ele>
        <time>2011-06-14T13:40:00Z</time>
      </trkpt>
      <trkpt lat="46.00496" lon="6.3143">
        <ele>1800.206055</ele>
        <time>2011-06-14T13:40:09Z</time>
      </trkpt>
      <trkpt lat="46.00493" lon="6.31422">
        <ele>1801.647949</ele>
        <time>2011-06-14T13:40:18Z</time>
      </trkpt>
      <trkpt lat="46.0049" lon="6.31419">
        <ele>1802.609131</ele>
        <time>2011-06-14T13:40:26Z</time>
      </trkpt>
      <trkpt lat="46.00486" lon="6.31415">
        <ele>1801.167236</ele>
        <time>2011-06-14T13:40:36Z</time>
      </trkpt>
      <trkpt lat="46.00484" lon="6.31411">
        <ele>1799.725342</ele>
        <time>2011-06-14T13:40:45Z</time>
      </trkpt>
      <trkpt lat="46.00479" lon="6.3141">
        <ele>1799.244629</ele>
        <time>2011-06-14T13:40:53Z</time>
      </trkpt>
      <trkpt lat="46.00475" lon="6.31406">
        <ele>1798.763916</ele>
        <time>2011-06-14T13:41:03Z</time>
      </trkpt>
      <trkpt lat="46.00472" lon="6.31403">
        <ele>1796.841309</ele>
        <time>2011-06-14T13:41:12Z</time>
      </trkpt>
      <trkpt lat="46.0047" lon="6.314">
        <ele>1795.399414</ele>
        <time>2011-06-14T13:41:21Z</time>
      </trkpt>
      <trkpt lat="46.0047" lon="6.31394">
        <ele>1793.476807</ele>
        <time>2011-06-14T13:41:29Z</time>
      </trkpt>
      <trkpt lat="46.00471" lon="6.31389">
        <ele>1792.515625</ele>
        <time>2011-06-14T13:41:37Z</time>
      </trkpt>
      <trkpt lat="46.00471" lon="6.31386">
        <ele>1791.554199</ele>
        <time>2011-06-14T13:41:43Z</time>
      </trkpt>
      <trkpt lat="46.00472" lon="6.31381">
        <ele>1789.631592</ele>
        <time>2011-06-14T13:41:52Z</time>
      </trkpt>
      <trkpt lat="46.00473" lon="6.31374">
        <ele>1787.70874</ele>
        <time>2011-06-14T13:42:01Z</time>
      </trkpt>
      <trkpt lat="46.00473" lon="6.31373">
        <ele>1785.786133</ele>
        <time>2011-06-14T13:42:10Z</time>
      </trkpt>
      <trkpt lat="46.00473" lon="6.31369">
        <ele>1783.863525</ele>
        <time>2011-06-14T13:42:19Z</time>
      </trkpt>
      <trkpt lat="46.00475" lon="6.31365">
        <ele>1782.421631</ele>
        <time>2011-06-14T13:42:30Z</time>
      </trkpt>
      <trkpt lat="46.00477" lon="6.31362">
        <ele>1781.940918</ele>
        <time>2011-06-14T13:42:39Z</time>
      </trkpt>
      <trkpt lat="46.00475" lon="6.31357">
        <ele>1780.979736</ele>
        <time>2011-06-14T13:42:57Z</time>
      </trkpt>
      <trkpt lat="46.00478" lon="6.31353">
        <ele>1780.018311</ele>
        <time>2011-06-14T13:43:04Z</time>
      </trkpt>
      <trkpt lat="46.00482" lon="6.3135">
        <ele>1779.056885</ele>
        <time>2011-06-14T13:43:12Z</time>
      </trkpt>
      <trkpt lat="46.00487" lon="6.31343">
        <ele>1779.056885</ele>
        <time>2011-06-14T13:43:49Z</time>
      </trkpt>
      <trkpt lat="46.0049" lon="6.31345">
        <ele>1778.095703</ele>
        <time>2011-06-14T13:43:56Z</time>
      </trkpt>
      <trkpt lat="46.00493" lon="6.31345">
        <ele>1777.61499</ele>
        <time>2011-06-14T13:44:04Z</time>
      </trkpt>
      <trkpt lat="46.00495" lon="6.31348">
        <ele>1773.769775</ele>
        <time>2011-06-14T13:47:30Z</time>
      </trkpt>
      <trkpt lat="46.00503" lon="6.3135">
        <ele>1772.808594</ele>
        <time>2011-06-14T13:47:43Z</time>
      </trkpt>
      <trkpt lat="46.00503" lon="6.31345">
        <ele>1771.846924</ele>
        <time>2011-06-14T13:47:55Z</time>
      </trkpt>
      <trkpt lat="46.00503" lon="6.31341">
        <ele>1771.846924</ele>
        <time>2011-06-14T13:48:04Z</time>
      </trkpt>
      <trkpt lat="46.00503" lon="6.31344">
        <ele>1770.405029</ele>
        <time>2011-06-14T13:48:23Z</time>
      </trkpt>
      <trkpt lat="46.00506" lon="6.31343">
        <ele>1768.482422</ele>
        <time>2011-06-14T13:48:36Z</time>
      </trkpt>
      <trkpt lat="46.00505" lon="6.3134">
        <ele>1766.079102</ele>
        <time>2011-06-14T13:48:46Z</time>
      </trkpt>
      <trkpt lat="46.00504" lon="6.31337">
        <ele>1765.598633</ele>
        <time>2011-06-14T13:49:47Z</time>
      </trkpt>
      <trkpt lat="46.00507" lon="6.31338">
        <ele>1765.598633</ele>
        <time>2011-06-14T13:50:02Z</time>
      </trkpt>
      <trkpt lat="46.00504" lon="6.31341">
        <ele>1765.11792</ele>
        <time>2011-06-14T13:50:21Z</time>
      </trkpt>
      <trkpt lat="46.00508" lon="6.31338">
        <ele>1762.7146</ele>
        <time>2011-06-14T13:50:39Z</time>
      </trkpt>
      <trkpt lat="46.00506" lon="6.31332">
        <ele>1761.272705</ele>
        <time>2011-06-14T13:50:56Z</time>
      </trkpt>
      <trkpt lat="46.00508" lon="6.31331">
        <ele>1759.350098</ele>
        <time>2011-06-14T13:51:00Z</time>
      </trkpt>
      <trkpt lat="46.00509" lon="6.31332">
        <ele>1758.388672</ele>
        <time>2011-06-14T13:51:12Z</time>
      </trkpt>
      <trkpt lat="46.00508" lon="6.31326">
        <ele>1756.466064</ele>
        <time>2011-06-14T13:51:24Z</time>
      </trkpt>
      <trkpt lat="46.0051" lon="6.31324">
        <ele>1754.543213</ele>
        <time>2011-06-14T13:51:42Z</time>
      </trkpt>
      <trkpt lat="46.00508" lon="6.31321">
        <ele>1752.620605</ele>
        <time>2011-06-14T13:51:49Z</time>
      </trkpt>
      <trkpt lat="46.0051" lon="6.3132">
        <ele>1751.659424</ele>
        <time>2011-06-14T13:51:56Z</time>
      </trkpt>
      <trkpt lat="46.0051" lon="6.31317">
        <ele>1750.217529</ele>
        <time>2011-06-14T13:52:31Z</time>
      </trkpt>
      <trkpt lat="46.00511" lon="6.31312">
        <ele>1749.256104</ele>
        <time>2011-06-14T13:52:56Z</time>
      </trkpt>
      <trkpt lat="46.0051" lon="6.31311">
        <ele>1747.814209</ele>
        <time>2011-06-14T13:53:43Z</time>
      </trkpt>
      <trkpt lat="46.00512" lon="6.31307">
        <ele>1745.410889</ele>
        <time>2011-06-14T13:53:51Z</time>
      </trkpt>
      <trkpt lat="46.00515" lon="6.31306">
        <ele>1743.968994</ele>
        <time>2011-06-14T13:54:01Z</time>
      </trkpt>
      <trkpt lat="46.00517" lon="6.31304">
        <ele>1742.5271</ele>
        <time>2011-06-14T13:54:10Z</time>
      </trkpt>
      <trkpt lat="46.00522" lon="6.31305">
        <ele>1742.046387</ele>
        <time>2011-06-14T13:54:19Z</time>
      </trkpt>
      <trkpt lat="46.00523" lon="6.31304">
        <ele>1741.084961</ele>
        <time>2011-06-14T13:54:28Z</time>
      </trkpt>
      <trkpt lat="46.00524" lon="6.31303">
        <ele>1740.123779</ele>
        <time>2011-06-14T13:54:35Z</time>
      </trkpt>
      <trkpt lat="46.00522" lon="6.31303">
        <ele>1738.200928</ele>
        <time>2011-06-14T13:54:44Z</time>
      </trkpt>
      <trkpt lat="46.00519" lon="6.313">
        <ele>1737.720215</ele>
        <time>2011-06-14T13:54:54Z</time>
      </trkpt>
      <trkpt lat="46.00519" lon="6.31296">
        <ele>1737.239502</ele>
        <time>2011-06-14T13:55:03Z</time>
      </trkpt>
      <trkpt lat="46.00522" lon="6.31292">
        <ele>1736.27832</ele>
        <time>2011-06-14T13:55:16Z</time>
      </trkpt>
      <trkpt lat="46.00526" lon="6.31294">
        <ele>1735.797607</ele>
        <time>2011-06-14T13:55:25Z</time>
      </trkpt>
      <trkpt lat="46.00527" lon="6.31292">
        <ele>1734.355713</ele>
        <time>2011-06-14T13:55:34Z</time>
      </trkpt>
      <trkpt lat="46.0053" lon="6.31291">
        <ele>1732.433105</ele>
        <time>2011-06-14T13:55:42Z</time>
      </trkpt>
      <trkpt lat="46.00531" lon="6.31296">
        <ele>1730.991211</ele>
        <time>2011-06-14T13:55:54Z</time>
      </trkpt>
      <trkpt lat="46.00532" lon="6.31297">
        <ele>1729.549072</ele>
        <time>2011-06-14T13:56:01Z</time>
      </trkpt>
      <trkpt lat="46.00534" lon="6.31297">
        <ele>1728.107178</ele>
        <time>2011-06-14T13:56:04Z</time>
      </trkpt>
      <trkpt lat="46.00538" lon="6.31296">
        <ele>1727.145996</ele>
        <time>2011-06-14T13:56:11Z</time>
      </trkpt>
      <trkpt lat="46.00542" lon="6.31297">
        <ele>1725.223145</ele>
        <time>2011-06-14T13:56:19Z</time>
      </trkpt>
      <trkpt lat="46.00546" lon="6.31298">
        <ele>1723.781006</ele>
        <time>2011-06-14T13:56:25Z</time>
      </trkpt>
      <trkpt lat="46.00549" lon="6.31298">
        <ele>1722.339111</ele>
        <time>2011-06-14T13:56:32Z</time>
      </trkpt>
      <trkpt lat="46.00553" lon="6.313">
        <ele>1721.377686</ele>
        <time>2011-06-14T13:56:38Z</time>
      </trkpt>
      <trkpt lat="46.00558" lon="6.31301">
        <ele>1719.935791</ele>
        <time>2011-06-14T13:56:45Z</time>
      </trkpt>
      <trkpt lat="46.00562" lon="6.31303">
        <ele>1718.013184</ele>
        <time>2011-06-14T13:56:52Z</time>
      </trkpt>
      <trkpt lat="46.00565" lon="6.31303">
        <ele>1716.090576</ele>
        <time>2011-06-14T13:57:00Z</time>
      </trkpt>
      <trkpt lat="46.0057" lon="6.31304">
        <ele>1714.648682</ele>
        <time>2011-06-14T13:57:08Z</time>
      </trkpt>
      <trkpt lat="46.00579" lon="6.31312">
        <ele>1715.129395</ele>
        <time>2011-06-14T13:57:20Z</time>
      </trkpt>
      <trkpt lat="46.00576" lon="6.3132">
        <ele>1715.610107</ele>
        <time>2011-06-14T13:57:27Z</time>
      </trkpt>
      <trkpt lat="46.00575" lon="6.31324">
        <ele>1715.610107</ele>
        <time>2011-06-14T13:57:35Z</time>
      </trkpt>
      <trkpt lat="46.00578" lon="6.31326">
        <ele>1716.571289</ele>
        <time>2011-06-14T13:57:50Z</time>
      </trkpt>
      <trkpt lat="46.00577" lon="6.31328">
        <ele>1714.648682</ele>
        <time>2011-06-14T13:58:06Z</time>
      </trkpt>
      <trkpt lat="46.0058" lon="6.31328">
        <ele>1714.648682</ele>
        <time>2011-06-14T13:58:17Z</time>
      </trkpt>
      <trkpt lat="46.00581" lon="6.31321">
        <ele>1714.648682</ele>
        <time>2011-06-14T13:58:29Z</time>
      </trkpt>
      <trkpt lat="46.0058" lon="6.31318">
        <ele>1712.726074</ele>
        <time>2011-06-14T13:58:38Z</time>
      </trkpt>
      <trkpt lat="46.00578" lon="6.31317">
        <ele>1711.28418</ele>
        <time>2011-06-14T13:58:44Z</time>
      </trkpt>
      <trkpt lat="46.00575" lon="6.31316">
        <ele>1710.322754</ele>
        <time>2011-06-14T13:58:53Z</time>
      </trkpt>
      <trkpt lat="46.00577" lon="6.31319">
        <ele>1709.361572</ele>
        <time>2011-06-14T13:59:03Z</time>
      </trkpt>
      <trkpt lat="46.00579" lon="6.31317">
        <ele>1706.958008</ele>
        <time>2011-06-14T13:59:11Z</time>
      </trkpt>
      <trkpt lat="46.00581" lon="6.31318">
        <ele>1705.516113</ele>
        <time>2011-06-14T13:59:18Z</time>
      </trkpt>
      <trkpt lat="46.00583" lon="6.3132">
        <ele>1704.554688</ele>
        <time>2011-06-14T13:59:26Z</time>
      </trkpt>
      <trkpt lat="46.00585" lon="6.31319">
        <ele>1704.074219</ele>
        <time>2011-06-14T13:59:33Z</time>
      </trkpt>
      <trkpt lat="46.00591" lon="6.31323">
        <ele>1702.63208</ele>
        <time>2011-06-14T13:59:41Z</time>
      </trkpt>
      <trkpt lat="46.00597" lon="6.31326">
        <ele>1700.709473</ele>
        <time>2011-06-14T13:59:51Z</time>
      </trkpt>
      <trkpt lat="46.00607" lon="6.31327">
        <ele>1698.306152</ele>
        <time>2011-06-14T14:00:09Z</time>
      </trkpt>
      <trkpt lat="46.00613" lon="6.31329">
        <ele>1697.825684</ele>
        <time>2011-06-14T14:00:15Z</time>
      </trkpt>
      <trkpt lat="46.00615" lon="6.3133">
        <ele>1696.383789</ele>
        <time>2011-06-14T14:00:21Z</time>
      </trkpt>
      <trkpt lat="46.00616" lon="6.31333">
        <ele>1696.383789</ele>
        <time>2011-06-14T14:00:27Z</time>
      </trkpt>
      <trkpt lat="46.00626" lon="6.31335">
        <ele>1694.94165</ele>
        <time>2011-06-14T14:00:36Z</time>
      </trkpt>
      <trkpt lat="46.00628" lon="6.31337">
        <ele>1694.460938</ele>
        <time>2011-06-14T14:00:44Z</time>
      </trkpt>
      <trkpt lat="46.00634" lon="6.3134">
        <ele>1693.019043</ele>
        <time>2011-06-14T14:00:52Z</time>
      </trkpt>
      <trkpt lat="46.00638" lon="6.31342">
        <ele>1692.057861</ele>
        <time>2011-06-14T14:00:58Z</time>
      </trkpt>
      <trkpt lat="46.00641" lon="6.3135">
        <ele>1690.615479</ele>
        <time>2011-06-14T14:01:05Z</time>
      </trkpt>
      <trkpt lat="46.00648" lon="6.31354">
        <ele>1689.173584</ele>
        <time>2011-06-14T14:01:14Z</time>
      </trkpt>
      <trkpt lat="46.00655" lon="6.3136">
        <ele>1687.731689</ele>
        <time>2011-06-14T14:01:22Z</time>
      </trkpt>
      <trkpt lat="46.0066" lon="6.31363">
        <ele>1685.328369</ele>
        <time>2011-06-14T14:01:31Z</time>
      </trkpt>
      <trkpt lat="46.00667" lon="6.31367">
        <ele>1683.886475</ele>
        <time>2011-06-14T14:01:39Z</time>
      </trkpt>
      <trkpt lat="46.00671" lon="6.3137">
        <ele>1683.405762</ele>
        <time>2011-06-14T14:01:45Z</time>
      </trkpt>
      <trkpt lat="46.00673" lon="6.31376">
        <ele>1682.44458</ele>
        <time>2011-06-14T14:01:54Z</time>
      </trkpt>
      <trkpt lat="46.00674" lon="6.31378">
        <ele>1681.002686</ele>
        <time>2011-06-14T14:02:03Z</time>
      </trkpt>
      <trkpt lat="46.00677" lon="6.31384">
        <ele>1678.118652</ele>
        <time>2011-06-14T14:06:12Z</time>
      </trkpt>
      <trkpt lat="46.00676" lon="6.3138">
        <ele>1677.637939</ele>
        <time>2011-06-14T14:06:18Z</time>
      </trkpt>
      <trkpt lat="46.00675" lon="6.31373">
        <ele>1676.196045</ele>
        <time>2011-06-14T14:06:26Z</time>
      </trkpt>
      <trkpt lat="46.00674" lon="6.31366">
        <ele>1675.234375</ele>
        <time>2011-06-14T14:06:35Z</time>
      </trkpt>
      <trkpt lat="46.00668" lon="6.31357">
        <ele>1672.831299</ele>
        <time>2011-06-14T14:06:43Z</time>
      </trkpt>
      <trkpt lat="46.00667" lon="6.3135">
        <ele>1671.869873</ele>
        <time>2011-06-14T14:06:51Z</time>
      </trkpt>
      <trkpt lat="46.00663" lon="6.31335">
        <ele>1669.466797</ele>
        <time>2011-06-14T14:07:08Z</time>
      </trkpt>
      <trkpt lat="46.0066" lon="6.3133">
        <ele>1668.505371</ele>
        <time>2011-06-14T14:07:16Z</time>
      </trkpt>
      <trkpt lat="46.00657" lon="6.31316">
        <ele>1665.621582</ele>
        <time>2011-06-14T14:07:29Z</time>
      </trkpt>
      <trkpt lat="46.00654" lon="6.31309">
        <ele>1664.660156</ele>
        <time>2011-06-14T14:07:36Z</time>
      </trkpt>
      <trkpt lat="46.00651" lon="6.31304">
        <ele>1662.737549</ele>
        <time>2011-06-14T14:07:43Z</time>
      </trkpt>
      <trkpt lat="46.00648" lon="6.31294">
        <ele>1659.853271</ele>
        <time>2011-06-14T14:07:55Z</time>
      </trkpt>
      <trkpt lat="46.00645" lon="6.31284">
        <ele>1658.411377</ele>
        <time>2011-06-14T14:08:07Z</time>
      </trkpt>
      <trkpt lat="46.00641" lon="6.31279">
        <ele>1656.969482</ele>
        <time>2011-06-14T14:08:15Z</time>
      </trkpt>
      <trkpt lat="46.00639" lon="6.31273">
        <ele>1656.48877</ele>
        <time>2011-06-14T14:08:22Z</time>
      </trkpt>
      <trkpt lat="46.00635" lon="6.31264">
        <ele>1652.643555</ele>
        <time>2011-06-14T14:08:40Z</time>
      </trkpt>
      <trkpt lat="46.00633" lon="6.31259">
        <ele>1652.162842</ele>
        <time>2011-06-14T14:08:49Z</time>
      </trkpt>
      <trkpt lat="46.00631" lon="6.31254">
        <ele>1651.20166</ele>
        <time>2011-06-14T14:08:56Z</time>
      </trkpt>
      <trkpt lat="46.00628" lon="6.31247">
        <ele>1649.759766</ele>
        <time>2011-06-14T14:09:05Z</time>
      </trkpt>
      <trkpt lat="46.00626" lon="6.31242">
        <ele>1648.79834</ele>
        <time>2011-06-14T14:09:14Z</time>
      </trkpt>
      <trkpt lat="46.00624" lon="6.31237">
        <ele>1647.356445</ele>
        <time>2011-06-14T14:09:23Z</time>
      </trkpt>
      <trkpt lat="46.0062" lon="6.3123">
        <ele>1645.914551</ele>
        <time>2011-06-14T14:09:33Z</time>
      </trkpt>
      <trkpt lat="46.00617" lon="6.31226">
        <ele>1644.472412</ele>
        <time>2011-06-14T14:09:41Z</time>
      </trkpt>
      <trkpt lat="46.00615" lon="6.31221">
        <ele>1643.991699</ele>
        <time>2011-06-14T14:09:50Z</time>
      </trkpt>
      <trkpt lat="46.00614" lon="6.31215">
        <ele>1642.549805</ele>
        <time>2011-06-14T14:09:58Z</time>
      </trkpt>
      <trkpt lat="46.00612" lon="6.31204">
        <ele>1640.146484</ele>
        <time>2011-06-14T14:10:08Z</time>
      </trkpt>
      <trkpt lat="46.00609" lon="6.31195">
        <ele>1638.223877</ele>
        <time>2011-06-14T14:10:17Z</time>
      </trkpt>
      <trkpt lat="46.00607" lon="6.31187">
        <ele>1636.781738</ele>
        <time>2011-06-14T14:10:26Z</time>
      </trkpt>
      <trkpt lat="46.00605" lon="6.31181">
        <ele>1636.30127</ele>
        <time>2011-06-14T14:10:35Z</time>
      </trkpt>
      <trkpt lat="46.00604" lon="6.31175">
        <ele>1635.339844</ele>
        <time>2011-06-14T14:10:42Z</time>
      </trkpt>
      <trkpt lat="46.00604" lon="6.31168">
        <ele>1633.417236</ele>
        <time>2011-06-14T14:10:49Z</time>
      </trkpt>
      <trkpt lat="46.00603" lon="6.31161">
        <ele>1632.456055</ele>
        <time>2011-06-14T14:10:54Z</time>
      </trkpt>
      <trkpt lat="46.00603" lon="6.31153">
        <ele>1631.01416</ele>
        <time>2011-06-14T14:11:01Z</time>
      </trkpt>
      <trkpt lat="46.00602" lon="6.31143">
        <ele>1628.61084</ele>
        <time>2011-06-14T14:11:14Z</time>
      </trkpt>
      <trkpt lat="46.006" lon="6.31138">
        <ele>1627.168701</ele>
        <time>2011-06-14T14:11:20Z</time>
      </trkpt>
      <trkpt lat="46.00594" lon="6.31127">
        <ele>1625.24585</ele>
        <time>2011-06-14T14:11:29Z</time>
      </trkpt>
      <trkpt lat="46.0059" lon="6.31115">
        <ele>1624.284668</ele>
        <time>2011-06-14T14:11:37Z</time>
      </trkpt>
      <trkpt lat="46.00592" lon="6.31104">
        <ele>1622.842773</ele>
        <time>2011-06-14T14:11:50Z</time>
      </trkpt>
      <trkpt lat="46.00592" lon="6.31096">
        <ele>1621.881348</ele>
        <time>2011-06-14T14:11:57Z</time>
      </trkpt>
      <trkpt lat="46.0059" lon="6.31085">
        <ele>1620.439453</ele>
        <time>2011-06-14T14:12:05Z</time>
      </trkpt>
      <trkpt lat="46.00591" lon="6.31079">
        <ele>1619.478271</ele>
        <time>2011-06-14T14:12:11Z</time>
      </trkpt>
      <trkpt lat="46.00584" lon="6.31065">
        <ele>1617.074951</ele>
        <time>2011-06-14T14:12:23Z</time>
      </trkpt>
      <trkpt lat="46.00582" lon="6.31054">
        <ele>1616.113525</ele>
        <time>2011-06-14T14:12:29Z</time>
      </trkpt>
      <trkpt lat="46.00579" lon="6.31045">
        <ele>1614.671631</ele>
        <time>2011-06-14T14:12:34Z</time>
      </trkpt>
      <trkpt lat="46.0058" lon="6.31038">
        <ele>1613.710205</ele>
        <time>2011-06-14T14:12:41Z</time>
      </trkpt>
      <trkpt lat="46.00579" lon="6.31034">
        <ele>1612.749023</ele>
        <time>2011-06-14T14:12:46Z</time>
      </trkpt>
      <trkpt lat="46.00578" lon="6.31028">
        <ele>1612.268311</ele>
        <time>2011-06-14T14:12:53Z</time>
      </trkpt>
      <trkpt lat="46.00577" lon="6.31021">
        <ele>1610.345459</ele>
        <time>2011-06-14T14:13:01Z</time>
      </trkpt>
      <trkpt lat="46.00572" lon="6.31008">
        <ele>1608.422852</ele>
        <time>2011-06-14T14:13:14Z</time>
      </trkpt>
      <trkpt lat="46.00559" lon="6.30998">
        <ele>1606.980957</ele>
        <time>2011-06-14T14:13:28Z</time>
      </trkpt>
      <trkpt lat="46.00554" lon="6.30989">
        <ele>1606.019531</ele>
        <time>2011-06-14T14:13:35Z</time>
      </trkpt>
      <trkpt lat="46.00553" lon="6.3098">
        <ele>1604.577637</ele>
        <time>2011-06-14T14:13:42Z</time>
      </trkpt>
      <trkpt lat="46.0055" lon="6.30972">
        <ele>1603.135742</ele>
        <time>2011-06-14T14:13:49Z</time>
      </trkpt>
      <trkpt lat="46.00546" lon="6.30967">
        <ele>1602.655029</ele>
        <time>2011-06-14T14:13:56Z</time>
      </trkpt>
      <trkpt lat="46.00543" lon="6.30958">
        <ele>1601.213135</ele>
        <time>2011-06-14T14:14:04Z</time>
      </trkpt>
      <trkpt lat="46.00542" lon="6.3095">
        <ele>1600.251953</ele>
        <time>2011-06-14T14:14:13Z</time>
      </trkpt>
      <trkpt lat="46.0054" lon="6.30946">
        <ele>1600.251953</ele>
        <time>2011-06-14T14:14:18Z</time>
      </trkpt>
      <trkpt lat="46.00538" lon="6.30939">
        <ele>1598.809814</ele>
        <time>2011-06-14T14:14:27Z</time>
      </trkpt>
      <trkpt lat="46.00545" lon="6.30937">
        <ele>1596.887207</ele>
        <time>2011-06-14T14:14:36Z</time>
      </trkpt>
      <trkpt lat="46.00553" lon="6.30939">
        <ele>1594.964355</ele>
        <time>2011-06-14T14:14:44Z</time>
      </trkpt>
      <trkpt lat="46.00556" lon="6.30945">
        <ele>1594.483643</ele>
        <time>2011-06-14T14:14:49Z</time>
      </trkpt>
      <trkpt lat="46.00567" lon="6.30945">
        <ele>1592.561279</ele>
        <time>2011-06-14T14:14:57Z</time>
      </trkpt>
      <trkpt lat="46.00576" lon="6.30947">
        <ele>1591.599854</ele>
        <time>2011-06-14T14:15:05Z</time>
      </trkpt>
      <trkpt lat="46.00578" lon="6.30946">
        <ele>1592.080566</ele>
        <time>2011-06-14T14:15:06Z</time>
      </trkpt>
      <trkpt lat="46.00581" lon="6.30947">
        <ele>1590.638428</ele>
        <time>2011-06-14T14:15:12Z</time>
      </trkpt>
      <trkpt lat="46.00583" lon="6.30947">
        <ele>1589.196533</ele>
        <time>2011-06-14T14:15:36Z</time>
      </trkpt>
      <trkpt lat="46.00589" lon="6.30943">
        <ele>1588.235352</ele>
        <time>2011-06-14T14:15:42Z</time>
      </trkpt>
      <trkpt lat="46.00596" lon="6.30947">
        <ele>1586.793213</ele>
        <time>2011-06-14T14:15:51Z</time>
      </trkpt>
      <trkpt lat="46.00603" lon="6.30949">
        <ele>1584.87085</ele>
        <time>2011-06-14T14:15:59Z</time>
      </trkpt>
      <trkpt lat="46.00614" lon="6.3095">
        <ele>1583.909424</ele>
        <time>2011-06-14T14:16:05Z</time>
      </trkpt>
      <trkpt lat="46.00619" lon="6.3095">
        <ele>1581.986816</ele>
        <time>2011-06-14T14:16:18Z</time>
      </trkpt>
      <trkpt lat="46.00625" lon="6.30954">
        <ele>1580.544922</ele>
        <time>2011-06-14T14:16:24Z</time>
      </trkpt>
      <trkpt lat="46.00631" lon="6.30953">
        <ele>1580.064209</ele>
        <time>2011-06-14T14:16:29Z</time>
      </trkpt>
      <trkpt lat="46.00643" lon="6.30958">
        <ele>1578.141357</ele>
        <time>2011-06-14T14:16:39Z</time>
      </trkpt>
      <trkpt lat="46.00655" lon="6.30968">
        <ele>1576.21875</ele>
        <time>2011-06-14T14:16:50Z</time>
      </trkpt>
      <trkpt lat="46.00655" lon="6.30978">
        <ele>1575.257324</ele>
        <time>2011-06-14T14:16:59Z</time>
      </trkpt>
      <trkpt lat="46.00664" lon="6.30986">
        <ele>1574.296143</ele>
        <time>2011-06-14T14:17:10Z</time>
      </trkpt>
      <trkpt lat="46.00673" lon="6.3099">
        <ele>1572.854248</ele>
        <time>2011-06-14T14:17:18Z</time>
      </trkpt>
      <trkpt lat="46.00678" lon="6.30995">
        <ele>1571.892822</ele>
        <time>2011-06-14T14:17:25Z</time>
      </trkpt>
      <trkpt lat="46.00681" lon="6.30999">
        <ele>1570.450928</ele>
        <time>2011-06-14T14:17:32Z</time>
      </trkpt>
      <trkpt lat="46.00683" lon="6.31005">
        <ele>1569.009033</ele>
        <time>2011-06-14T14:17:41Z</time>
      </trkpt>
      <trkpt lat="46.0069" lon="6.31006">
        <ele>1566.605713</ele>
        <time>2011-06-14T14:17:51Z</time>
      </trkpt>
      <trkpt lat="46.00698" lon="6.31009">
        <ele>1565.163818</ele>
        <time>2011-06-14T14:17:57Z</time>
      </trkpt>
      <trkpt lat="46.00709" lon="6.31019">
        <ele>1564.202393</ele>
        <time>2011-06-14T14:18:05Z</time>
      </trkpt>
      <trkpt lat="46.00715" lon="6.31026">
        <ele>1562.279541</ele>
        <time>2011-06-14T14:18:11Z</time>
      </trkpt>
      <trkpt lat="46.00722" lon="6.3103">
        <ele>1560.356934</ele>
        <time>2011-06-14T14:18:20Z</time>
      </trkpt>
      <trkpt lat="46.00727" lon="6.31033">
        <ele>1559.876221</ele>
        <time>2011-06-14T14:18:24Z</time>
      </trkpt>
      <trkpt lat="46.0073" lon="6.31044">
        <ele>1558.915039</ele>
        <time>2011-06-14T14:18:34Z</time>
      </trkpt>
      <trkpt lat="46.00731" lon="6.3105">
        <ele>1557.473145</ele>
        <time>2011-06-14T14:18:42Z</time>
      </trkpt>
      <trkpt lat="46.00735" lon="6.31051">
        <ele>1556.511719</ele>
        <time>2011-06-14T14:19:08Z</time>
      </trkpt>
      <trkpt lat="46.00741" lon="6.31049">
        <ele>1554.589111</ele>
        <time>2011-06-14T14:19:15Z</time>
      </trkpt>
      <trkpt lat="46.00746" lon="6.3105">
        <ele>1553.62793</ele>
        <time>2011-06-14T14:19:21Z</time>
      </trkpt>
      <trkpt lat="46.00753" lon="6.31053">
        <ele>1553.147217</ele>
        <time>2011-06-14T14:19:28Z</time>
      </trkpt>
      <trkpt lat="46.00756" lon="6.31055">
        <ele>1552.185791</ele>
        <time>2011-06-14T14:19:36Z</time>
      </trkpt>
      <trkpt lat="46.00762" lon="6.31056">
        <ele>1551.705322</ele>
        <time>2011-06-14T14:19:41Z</time>
      </trkpt>
      <trkpt lat="46.00767" lon="6.31059">
        <ele>1549.302002</ele>
        <time>2011-06-14T14:19:49Z</time>
      </trkpt>
      <trkpt lat="46.00777" lon="6.31064">
        <ele>1546.898438</ele>
        <time>2011-06-14T14:19:59Z</time>
      </trkpt>
      <trkpt lat="46.00789" lon="6.31068">
        <ele>1546.417969</ele>
        <time>2011-06-14T14:20:06Z</time>
      </trkpt>
      <trkpt lat="46.00788" lon="6.3107">
        <ele>1545.456543</ele>
        <time>2011-06-14T14:20:13Z</time>
      </trkpt>
      <trkpt lat="46.00791" lon="6.31069">
        <ele>1544.97583</ele>
        <time>2011-06-14T14:20:19Z</time>
      </trkpt>
      <trkpt lat="46.00795" lon="6.31072">
        <ele>1543.053223</ele>
        <time>2011-06-14T14:20:25Z</time>
      </trkpt>
      <trkpt lat="46.00799" lon="6.31072">
        <ele>1543.053223</ele>
        <time>2011-06-14T14:20:30Z</time>
      </trkpt>
      <trkpt lat="46.00805" lon="6.31078">
        <ele>1541.611328</ele>
        <time>2011-06-14T14:20:37Z</time>
      </trkpt>
      <trkpt lat="46.00807" lon="6.31084">
        <ele>1541.611328</ele>
        <time>2011-06-14T14:20:42Z</time>
      </trkpt>
      <trkpt lat="46.00815" lon="6.31089">
        <ele>1539.208008</ele>
        <time>2011-06-14T14:20:49Z</time>
      </trkpt>
      <trkpt lat="46.0082" lon="6.31093">
        <ele>1539.208008</ele>
        <time>2011-06-14T14:20:54Z</time>
      </trkpt>
      <trkpt lat="46.00822" lon="6.31096">
        <ele>1538.246826</ele>
        <time>2011-06-14T14:20:59Z</time>
      </trkpt>
      <trkpt lat="46.00826" lon="6.31101">
        <ele>1537.2854</ele>
        <time>2011-06-14T14:21:05Z</time>
      </trkpt>
      <trkpt lat="46.0083" lon="6.31105">
        <ele>1536.324219</ele>
        <time>2011-06-14T14:21:10Z</time>
      </trkpt>
      <trkpt lat="46.00838" lon="6.31109">
        <ele>1535.362793</ele>
        <time>2011-06-14T14:21:15Z</time>
      </trkpt>
      <trkpt lat="46.00849" lon="6.31117">
        <ele>1532.959473</ele>
        <time>2011-06-14T14:21:24Z</time>
      </trkpt>
      <trkpt lat="46.00851" lon="6.31123">
        <ele>1532.479004</ele>
        <time>2011-06-14T14:21:32Z</time>
      </trkpt>
      <trkpt lat="46.00854" lon="6.31127">
        <ele>1531.036865</ele>
        <time>2011-06-14T14:21:38Z</time>
      </trkpt>
      <trkpt lat="46.00855" lon="6.3113">
        <ele>1530.075439</ele>
        <time>2011-06-14T14:21:50Z</time>
      </trkpt>
      <trkpt lat="46.00858" lon="6.31134">
        <ele>1529.114014</ele>
        <time>2011-06-14T14:21:59Z</time>
      </trkpt>
      <trkpt lat="46.00864" lon="6.3114">
        <ele>1528.152832</ele>
        <time>2011-06-14T14:22:06Z</time>
      </trkpt>
      <trkpt lat="46.00873" lon="6.31149">
        <ele>1525.749512</ele>
        <time>2011-06-14T14:22:17Z</time>
      </trkpt>
      <trkpt lat="46.00877" lon="6.31156">
        <ele>1524.78833</ele>
        <time>2011-06-14T14:22:25Z</time>
      </trkpt>
      <trkpt lat="46.00881" lon="6.31161">
        <ele>1523.826904</ele>
        <time>2011-06-14T14:22:32Z</time>
      </trkpt>
      <trkpt lat="46.00887" lon="6.31165">
        <ele>1521.423584</ele>
        <time>2011-06-14T14:22:41Z</time>
      </trkpt>
      <trkpt lat="46.00889" lon="6.31169">
        <ele>1520.462402</ele>
        <time>2011-06-14T14:22:47Z</time>
      </trkpt>
      <trkpt lat="46.0089" lon="6.31175">
        <ele>1519.981689</ele>
        <time>2011-06-14T14:22:56Z</time>
      </trkpt>
      <trkpt lat="46.00894" lon="6.31177">
        <ele>1518.539795</ele>
        <time>2011-06-14T14:23:04Z</time>
      </trkpt>
      <trkpt lat="46.00899" lon="6.31183">
        <ele>1517.0979</ele>
        <time>2011-06-14T14:23:12Z</time>
      </trkpt>
      <trkpt lat="46.009" lon="6.31187">
        <ele>1515.655762</ele>
        <time>2011-06-14T14:23:18Z</time>
      </trkpt>
      <trkpt lat="46.00898" lon="6.31188">
        <ele>1514.694336</ele>
        <time>2011-06-14T14:23:26Z</time>
      </trkpt>
      <trkpt lat="46.00899" lon="6.31191">
        <ele>1513.73291</ele>
        <time>2011-06-14T14:23:33Z</time>
      </trkpt>
      <trkpt lat="46.00899" lon="6.31195">
        <ele>1513.252441</ele>
        <time>2011-06-14T14:23:42Z</time>
      </trkpt>
      <trkpt lat="46.00904" lon="6.31197">
        <ele>1512.771729</ele>
        <time>2011-06-14T14:23:49Z</time>
      </trkpt>
      <trkpt lat="46.00905" lon="6.31201">
        <ele>1513.252441</ele>
        <time>2011-06-14T14:23:57Z</time>
      </trkpt>
      <trkpt lat="46.00912" lon="6.31205">
        <ele>1511.329834</ele>
        <time>2011-06-14T14:24:06Z</time>
      </trkpt>
      <trkpt lat="46.00915" lon="6.31213">
        <ele>1510.849121</ele>
        <time>2011-06-14T14:24:13Z</time>
      </trkpt>
      <trkpt lat="46.00922" lon="6.31222">
        <ele>1509.407227</ele>
        <time>2011-06-14T14:24:23Z</time>
      </trkpt>
      <trkpt lat="46.00924" lon="6.31226">
        <ele>1508.445801</ele>
        <time>2011-06-14T14:24:31Z</time>
      </trkpt>
      <trkpt lat="46.00926" lon="6.3123">
        <ele>1507.484619</ele>
        <time>2011-06-14T14:24:39Z</time>
      </trkpt>
      <trkpt lat="46.00926" lon="6.31233">
        <ele>1506.04248</ele>
        <time>2011-06-14T14:24:48Z</time>
      </trkpt>
      <trkpt lat="46.00932" lon="6.31239">
        <ele>1505.081299</ele>
        <time>2011-06-14T14:24:55Z</time>
      </trkpt>
      <trkpt lat="46.00935" lon="6.31248">
        <ele>1504.120117</ele>
        <time>2011-06-14T14:25:06Z</time>
      </trkpt>
      <trkpt lat="46.0094" lon="6.31252">
        <ele>1503.158691</ele>
        <time>2011-06-14T14:25:14Z</time>
      </trkpt>
      <trkpt lat="46.00942" lon="6.31257">
        <ele>1502.197266</ele>
        <time>2011-06-14T14:25:22Z</time>
      </trkpt>
      <trkpt lat="46.00945" lon="6.31261">
        <ele>1501.236084</ele>
        <time>2011-06-14T14:25:28Z</time>
      </trkpt>
      <trkpt lat="46.00951" lon="6.31266">
        <ele>1500.274902</ele>
        <time>2011-06-14T14:25:34Z</time>
      </trkpt>
      <trkpt lat="46.00956" lon="6.31271">
        <ele>1499.313232</ele>
        <time>2011-06-14T14:25:40Z</time>
      </trkpt>
      <trkpt lat="46.00959" lon="6.31276">
        <ele>1496.909912</ele>
        <time>2011-06-14T14:25:47Z</time>
      </trkpt>
      <trkpt lat="46.00963" lon="6.31284">
        <ele>1495.468018</ele>
        <time>2011-06-14T14:25:58Z</time>
      </trkpt>
      <trkpt lat="46.0097" lon="6.3129">
        <ele>1494.026123</ele>
        <time>2011-06-14T14:26:07Z</time>
      </trkpt>
      <trkpt lat="46.00974" lon="6.31291">
        <ele>1493.064697</ele>
        <time>2011-06-14T14:26:16Z</time>
      </trkpt>
      <trkpt lat="46.00976" lon="6.31294">
        <ele>1492.584229</ele>
        <time>2011-06-14T14:26:23Z</time>
      </trkpt>
      <trkpt lat="46.00988" lon="6.31302">
        <ele>1489.700195</ele>
        <time>2011-06-14T14:26:36Z</time>
      </trkpt>
      <trkpt lat="46.00992" lon="6.31304">
        <ele>1488.739014</ele>
        <time>2011-06-14T14:26:44Z</time>
      </trkpt>
      <trkpt lat="46.00999" lon="6.31308">
        <ele>1487.296875</ele>
        <time>2011-06-14T14:26:50Z</time>
      </trkpt>
      <trkpt lat="46.01006" lon="6.31315">
        <ele>1485.85498</ele>
        <time>2011-06-14T14:26:56Z</time>
      </trkpt>
      <trkpt lat="46.0101" lon="6.3132">
        <ele>1485.374268</ele>
        <time>2011-06-14T14:27:01Z</time>
      </trkpt>
      <trkpt lat="46.0102" lon="6.31328">
        <ele>1483.932129</ele>
        <time>2011-06-14T14:27:09Z</time>
      </trkpt>
      <trkpt lat="46.01025" lon="6.3133">
        <ele>1482.490234</ele>
        <time>2011-06-14T14:27:14Z</time>
      </trkpt>
      <trkpt lat="46.01027" lon="6.31334">
        <ele>1481.04834</ele>
        <time>2011-06-14T14:27:21Z</time>
      </trkpt>
      <trkpt lat="46.01027" lon="6.31336">
        <ele>1480.086914</ele>
        <time>2011-06-14T14:27:32Z</time>
      </trkpt>
      <trkpt lat="46.01033" lon="6.3134">
        <ele>1478.64502</ele>
        <time>2011-06-14T14:27:38Z</time>
      </trkpt>
      <trkpt lat="46.01042" lon="6.31344">
        <ele>1477.683594</ele>
        <time>2011-06-14T14:27:47Z</time>
      </trkpt>
      <trkpt lat="46.01049" lon="6.31346">
        <ele>1476.241699</ele>
        <time>2011-06-14T14:27:54Z</time>
      </trkpt>
      <trkpt lat="46.01056" lon="6.31349">
        <ele>1474.799805</ele>
        <time>2011-06-14T14:28:01Z</time>
      </trkpt>
      <trkpt lat="46.01058" lon="6.31352">
        <ele>1474.319092</ele>
        <time>2011-06-14T14:28:06Z</time>
      </trkpt>
      <trkpt lat="46.0106" lon="6.3136">
        <ele>1472.396484</ele>
        <time>2011-06-14T14:28:15Z</time>
      </trkpt>
      <trkpt lat="46.01067" lon="6.31363">
        <ele>1470.95459</ele>
        <time>2011-06-14T14:28:27Z</time>
      </trkpt>
      <trkpt lat="46.01075" lon="6.31369">
        <ele>1469.512695</ele>
        <time>2011-06-14T14:28:35Z</time>
      </trkpt>
      <trkpt lat="46.01079" lon="6.31372">
        <ele>1469.031982</ele>
        <time>2011-06-14T14:28:40Z</time>
      </trkpt>
      <trkpt lat="46.0108" lon="6.31375">
        <ele>1468.55127</ele>
        <time>2011-06-14T14:28:47Z</time>
      </trkpt>
      <trkpt lat="46.01081" lon="6.31378">
        <ele>1467.109131</ele>
        <time>2011-06-14T14:28:55Z</time>
      </trkpt>
      <trkpt lat="46.01081" lon="6.31383">
        <ele>1467.109131</ele>
        <time>2011-06-14T14:29:09Z</time>
      </trkpt>
      <trkpt lat="46.01088" lon="6.31391">
        <ele>1465.667236</ele>
        <time>2011-06-14T14:29:18Z</time>
      </trkpt>
      <trkpt lat="46.01093" lon="6.31405">
        <ele>1464.225098</ele>
        <time>2011-06-14T14:29:27Z</time>
      </trkpt>
      <trkpt lat="46.01093" lon="6.31408">
        <ele>1463.744385</ele>
        <time>2011-06-14T14:29:33Z</time>
      </trkpt>
      <trkpt lat="46.01095" lon="6.31417">
        <ele>1461.341309</ele>
        <time>2011-06-14T14:29:44Z</time>
      </trkpt>
      <trkpt lat="46.01102" lon="6.31428">
        <ele>1459.89917</ele>
        <time>2011-06-14T14:29:53Z</time>
      </trkpt>
      <trkpt lat="46.01107" lon="6.31438">
        <ele>1458.457275</ele>
        <time>2011-06-14T14:30:02Z</time>
      </trkpt>
      <trkpt lat="46.01109" lon="6.31444">
        <ele>1457.015381</ele>
        <time>2011-06-14T14:30:08Z</time>
      </trkpt>
      <trkpt lat="46.01112" lon="6.31453">
        <ele>1455.092773</ele>
        <time>2011-06-14T14:30:17Z</time>
      </trkpt>
      <trkpt lat="46.01111" lon="6.3146">
        <ele>1453.650879</ele>
        <time>2011-06-14T14:30:23Z</time>
      </trkpt>
      <trkpt lat="46.01121" lon="6.31468">
        <ele>1451.728027</ele>
        <time>2011-06-14T14:30:33Z</time>
      </trkpt>
      <trkpt lat="46.01122" lon="6.31472">
        <ele>1449.80542</ele>
        <time>2011-06-14T14:30:41Z</time>
      </trkpt>
      <trkpt lat="46.01125" lon="6.31476">
        <ele>1447.882813</ele>
        <time>2011-06-14T14:30:49Z</time>
      </trkpt>
      <trkpt lat="46.01128" lon="6.31482">
        <ele>1446.440918</ele>
        <time>2011-06-14T14:31:00Z</time>
      </trkpt>
      <trkpt lat="46.0113" lon="6.31487">
        <ele>1445.479492</ele>
        <time>2011-06-14T14:31:08Z</time>
      </trkpt>
      <trkpt lat="46.01133" lon="6.31491">
        <ele>1444.998779</ele>
        <time>2011-06-14T14:31:15Z</time>
      </trkpt>
      <trkpt lat="46.01135" lon="6.31494">
        <ele>1443.556885</ele>
        <time>2011-06-14T14:31:18Z</time>
      </trkpt>
      <trkpt lat="46.01135" lon="6.31501">
        <ele>1443.556885</ele>
        <time>2011-06-14T14:31:25Z</time>
      </trkpt>
      <trkpt lat="46.01139" lon="6.31509">
        <ele>1442.595703</ele>
        <time>2011-06-14T14:31:31Z</time>
      </trkpt>
      <trkpt lat="46.01147" lon="6.3152">
        <ele>1441.153564</ele>
        <time>2011-06-14T14:31:40Z</time>
      </trkpt>
      <trkpt lat="46.01148" lon="6.31529">
        <ele>1440.192383</ele>
        <time>2011-06-14T14:31:48Z</time>
      </trkpt>
      <trkpt lat="46.01149" lon="6.31536">
        <ele>1438.269775</ele>
        <time>2011-06-14T14:31:55Z</time>
      </trkpt>
      <trkpt lat="46.01149" lon="6.31548">
        <ele>1436.827637</ele>
        <time>2011-06-14T14:32:04Z</time>
      </trkpt>
      <trkpt lat="46.01145" lon="6.31555">
        <ele>1435.866211</ele>
        <time>2011-06-14T14:32:13Z</time>
      </trkpt>
      <trkpt lat="46.0114" lon="6.31572">
        <ele>1432.501709</ele>
        <time>2011-06-14T14:32:29Z</time>
      </trkpt>
      <trkpt lat="46.01142" lon="6.31578">
        <ele>1432.020996</ele>
        <time>2011-06-14T14:32:36Z</time>
      </trkpt>
      <trkpt lat="46.01144" lon="6.31582">
        <ele>1431.059814</ele>
        <time>2011-06-14T14:32:43Z</time>
      </trkpt>
      <trkpt lat="46.01145" lon="6.31588">
        <ele>1430.579102</ele>
        <time>2011-06-14T14:32:50Z</time>
      </trkpt>
      <trkpt lat="46.01146" lon="6.31594">
        <ele>1429.617676</ele>
        <time>2011-06-14T14:32:58Z</time>
      </trkpt>
      <trkpt lat="46.01147" lon="6.31595">
        <ele>1427.695068</ele>
        <time>2011-06-14T14:33:06Z</time>
      </trkpt>
      <trkpt lat="46.0115" lon="6.31595">
        <ele>1428.175781</ele>
        <time>2011-06-14T14:33:12Z</time>
      </trkpt>
      <trkpt lat="46.01154" lon="6.31596">
        <ele>1427.695068</ele>
        <time>2011-06-14T14:33:26Z</time>
      </trkpt>
      <trkpt lat="46.01159" lon="6.31595">
        <ele>1426.253174</ele>
        <time>2011-06-14T14:33:34Z</time>
      </trkpt>
      <trkpt lat="46.01161" lon="6.31593">
        <ele>1424.811279</ele>
        <time>2011-06-14T14:33:40Z</time>
      </trkpt>
      <trkpt lat="46.01165" lon="6.31587">
        <ele>1421.927246</ele>
        <time>2011-06-14T14:33:51Z</time>
      </trkpt>
      <trkpt lat="46.0117" lon="6.31581">
        <ele>1420.485352</ele>
        <time>2011-06-14T14:33:58Z</time>
      </trkpt>
      <trkpt lat="46.01172" lon="6.31576">
        <ele>1419.523926</ele>
        <time>2011-06-14T14:34:03Z</time>
      </trkpt>
      <trkpt lat="46.01176" lon="6.31566">
        <ele>1418.5625</ele>
        <time>2011-06-14T14:34:14Z</time>
      </trkpt>
      <trkpt lat="46.01175" lon="6.31557">
        <ele>1416.639893</ele>
        <time>2011-06-14T14:34:33Z</time>
      </trkpt>
      <trkpt lat="46.01177" lon="6.3155">
        <ele>1414.236572</ele>
        <time>2011-06-14T14:34:42Z</time>
      </trkpt>
      <trkpt lat="46.01184" lon="6.31547">
        <ele>1413.275391</ele>
        <time>2011-06-14T14:34:49Z</time>
      </trkpt>
      <trkpt lat="46.01192" lon="6.31535">
        <ele>1412.313965</ele>
        <time>2011-06-14T14:35:00Z</time>
      </trkpt>
      <trkpt lat="46.01191" lon="6.31527">
        <ele>1412.313965</ele>
        <time>2011-06-14T14:35:08Z</time>
      </trkpt>
      <trkpt lat="46.01195" lon="6.31512">
        <ele>1411.833496</ele>
        <time>2011-06-14T14:35:19Z</time>
      </trkpt>
      <trkpt lat="46.01199" lon="6.31507">
        <ele>1411.352783</ele>
        <time>2011-06-14T14:35:27Z</time>
      </trkpt>
      <trkpt lat="46.01201" lon="6.31509">
        <ele>1409.910645</ele>
        <time>2011-06-14T14:35:35Z</time>
      </trkpt>
      <trkpt lat="46.01203" lon="6.3151">
        <ele>1408.46875</ele>
        <time>2011-06-14T14:35:43Z</time>
      </trkpt>
      <trkpt lat="46.01205" lon="6.31512">
        <ele>1406.06543</ele>
        <time>2011-06-14T14:35:49Z</time>
      </trkpt>
      <trkpt lat="46.01206" lon="6.31519">
        <ele>1405.584961</ele>
        <time>2011-06-14T14:35:56Z</time>
      </trkpt>
      <trkpt lat="46.0121" lon="6.31521">
        <ele>1404.143066</ele>
        <time>2011-06-14T14:36:02Z</time>
      </trkpt>
      <trkpt lat="46.01213" lon="6.31514">
        <ele>1402.219971</ele>
        <time>2011-06-14T14:36:11Z</time>
      </trkpt>
      <trkpt lat="46.01216" lon="6.31511">
        <ele>1400.778076</ele>
        <time>2011-06-14T14:36:15Z</time>
      </trkpt>
      <trkpt lat="46.01217" lon="6.31504">
        <ele>1399.336182</ele>
        <time>2011-06-14T14:36:24Z</time>
      </trkpt>
      <trkpt lat="46.01217" lon="6.31495">
        <ele>1398.855469</ele>
        <time>2011-06-14T14:36:32Z</time>
      </trkpt>
      <trkpt lat="46.01218" lon="6.3149">
        <ele>1398.374756</ele>
        <time>2011-06-14T14:36:40Z</time>
      </trkpt>
      <trkpt lat="46.01221" lon="6.3149">
        <ele>1395.97168</ele>
        <time>2011-06-14T14:36:48Z</time>
      </trkpt>
      <trkpt lat="46.01223" lon="6.31494">
        <ele>1394.049072</ele>
        <time>2011-06-14T14:36:54Z</time>
      </trkpt>
      <trkpt lat="46.01225" lon="6.31503">
        <ele>1394.529541</ele>
        <time>2011-06-14T14:37:01Z</time>
      </trkpt>
      <trkpt lat="46.01229" lon="6.31513">
        <ele>1392.607178</ele>
        <time>2011-06-14T14:37:07Z</time>
      </trkpt>
      <trkpt lat="46.0123" lon="6.31517">
        <ele>1392.126465</ele>
        <time>2011-06-14T14:37:10Z</time>
      </trkpt>
      <trkpt lat="46.01231" lon="6.31536">
        <ele>1389.723145</ele>
        <time>2011-06-14T14:37:22Z</time>
      </trkpt>
      <trkpt lat="46.01231" lon="6.31546">
        <ele>1387.31958</ele>
        <time>2011-06-14T14:37:33Z</time>
      </trkpt>
      <trkpt lat="46.01231" lon="6.31552">
        <ele>1386.358398</ele>
        <time>2011-06-14T14:37:41Z</time>
      </trkpt>
      <trkpt lat="46.01234" lon="6.31564">
        <ele>1383.474365</ele>
        <time>2011-06-14T14:37:51Z</time>
      </trkpt>
      <trkpt lat="46.01234" lon="6.3157">
        <ele>1382.993652</ele>
        <time>2011-06-14T14:37:57Z</time>
      </trkpt>
      <trkpt lat="46.01238" lon="6.31576">
        <ele>1381.551758</ele>
        <time>2011-06-14T14:38:05Z</time>
      </trkpt>
      <trkpt lat="46.01243" lon="6.31587">
        <ele>1379.62915</ele>
        <time>2011-06-14T14:38:16Z</time>
      </trkpt>
      <trkpt lat="46.01242" lon="6.31597">
        <ele>1378.187256</ele>
        <time>2011-06-14T14:38:26Z</time>
      </trkpt>
      <trkpt lat="46.01244" lon="6.31603">
        <ele>1376.264648</ele>
        <time>2011-06-14T14:38:34Z</time>
      </trkpt>
      <trkpt lat="46.01246" lon="6.31615">
        <ele>1373.861328</ele>
        <time>2011-06-14T14:38:44Z</time>
      </trkpt>
      <trkpt lat="46.01248" lon="6.31622">
        <ele>1373.380859</ele>
        <time>2011-06-14T14:38:52Z</time>
      </trkpt>
      <trkpt lat="46.01253" lon="6.31631">
        <ele>1372.419434</ele>
        <time>2011-06-14T14:38:58Z</time>
      </trkpt>
      <trkpt lat="46.01254" lon="6.31633">
        <ele>1372.419434</ele>
        <time>2011-06-14T14:39:00Z</time>
      </trkpt>
      <trkpt lat="46.01258" lon="6.31647">
        <ele>1370.977295</ele>
        <time>2011-06-14T14:39:09Z</time>
      </trkpt>
      <trkpt lat="46.01258" lon="6.31656">
        <ele>1368.093262</ele>
        <time>2011-06-14T14:39:18Z</time>
      </trkpt>
      <trkpt lat="46.01258" lon="6.31665">
        <ele>1367.13208</ele>
        <time>2011-06-14T14:39:26Z</time>
      </trkpt>
      <trkpt lat="46.0126" lon="6.31681">
        <ele>1365.209473</ele>
        <time>2011-06-14T14:39:36Z</time>
      </trkpt>
      <trkpt lat="46.01262" lon="6.3169">
        <ele>1363.767334</ele>
        <time>2011-06-14T14:39:44Z</time>
      </trkpt>
      <trkpt lat="46.0126" lon="6.31695">
        <ele>1363.767334</ele>
        <time>2011-06-14T14:39:49Z</time>
      </trkpt>
      <trkpt lat="46.01262" lon="6.31702">
        <ele>1361.844971</ele>
        <time>2011-06-14T14:39:57Z</time>
      </trkpt>
      <trkpt lat="46.01267" lon="6.3171">
        <ele>1359.922119</ele>
        <time>2011-06-14T14:40:06Z</time>
      </trkpt>
      <trkpt lat="46.01269" lon="6.31716">
        <ele>1358.960938</ele>
        <time>2011-06-14T14:40:13Z</time>
      </trkpt>
      <trkpt lat="46.0127" lon="6.31725">
        <ele>1357.519043</ele>
        <time>2011-06-14T14:40:21Z</time>
      </trkpt>
      <trkpt lat="46.0127" lon="6.31729">
        <ele>1356.076904</ele>
        <time>2011-06-14T14:40:29Z</time>
      </trkpt>
      <trkpt lat="46.01271" lon="6.31736">
        <ele>1355.115479</ele>
        <time>2011-06-14T14:40:38Z</time>
      </trkpt>
      <trkpt lat="46.01273" lon="6.31742">
        <ele>1354.634766</ele>
        <time>2011-06-14T14:40:46Z</time>
      </trkpt>
      <trkpt lat="46.01275" lon="6.31743">
        <ele>1354.154297</ele>
        <time>2011-06-14T14:41:33Z</time>
      </trkpt>
      <trkpt lat="46.01279" lon="6.31745">
        <ele>1353.192871</ele>
        <time>2011-06-14T14:41:41Z</time>
      </trkpt>
      <trkpt lat="46.01279" lon="6.31751">
        <ele>1352.712158</ele>
        <time>2011-06-14T14:41:49Z</time>
      </trkpt>
      <trkpt lat="46.01281" lon="6.31757">
        <ele>1351.750977</ele>
        <time>2011-06-14T14:41:56Z</time>
      </trkpt>
      <trkpt lat="46.01285" lon="6.31768">
        <ele>1349.828369</ele>
        <time>2011-06-14T14:42:06Z</time>
      </trkpt>
      <trkpt lat="46.01287" lon="6.31779">
        <ele>1349.347656</ele>
        <time>2011-06-14T14:42:14Z</time>
      </trkpt>
      <trkpt lat="46.01289" lon="6.31787">
        <ele>1346.944336</ele>
        <time>2011-06-14T14:42:20Z</time>
      </trkpt>
      <trkpt lat="46.01289" lon="6.31794">
        <ele>1346.944336</ele>
        <time>2011-06-14T14:42:25Z</time>
      </trkpt>
      <trkpt lat="46.01295" lon="6.31801">
        <ele>1345.502441</ele>
        <time>2011-06-14T14:42:33Z</time>
      </trkpt>
      <trkpt lat="46.01297" lon="6.31807">
        <ele>1343.579834</ele>
        <time>2011-06-14T14:42:40Z</time>
      </trkpt>
      <trkpt lat="46.01299" lon="6.31813">
        <ele>1342.618652</ele>
        <time>2011-06-14T14:42:46Z</time>
      </trkpt>
      <trkpt lat="46.01301" lon="6.31818">
        <ele>1341.176514</ele>
        <time>2011-06-14T14:42:51Z</time>
      </trkpt>
      <trkpt lat="46.01299" lon="6.31826">
        <ele>1339.734375</ele>
        <time>2011-06-14T14:42:58Z</time>
      </trkpt>
      <trkpt lat="46.01297" lon="6.31834">
        <ele>1338.29248</ele>
        <time>2011-06-14T14:43:06Z</time>
      </trkpt>
      <trkpt lat="46.01297" lon="6.31843">
        <ele>1336.369873</ele>
        <time>2011-06-14T14:43:14Z</time>
      </trkpt>
      <trkpt lat="46.01301" lon="6.31852">
        <ele>1334.447266</ele>
        <time>2011-06-14T14:43:22Z</time>
      </trkpt>
      <trkpt lat="46.01307" lon="6.31859">
        <ele>1333.005127</ele>
        <time>2011-06-14T14:43:29Z</time>
      </trkpt>
      <trkpt lat="46.01311" lon="6.31868">
        <ele>1331.563232</ele>
        <time>2011-06-14T14:43:35Z</time>
      </trkpt>
      <trkpt lat="46.01314" lon="6.31877">
        <ele>1330.121338</ele>
        <time>2011-06-14T14:43:43Z</time>
      </trkpt>
      <trkpt lat="46.01318" lon="6.31889">
        <ele>1328.679443</ele>
        <time>2011-06-14T14:43:50Z</time>
      </trkpt>
      <trkpt lat="46.01318" lon="6.319">
        <ele>1327.718018</ele>
        <time>2011-06-14T14:43:57Z</time>
      </trkpt>
      <trkpt lat="46.01318" lon="6.31912">
        <ele>1326.276123</ele>
        <time>2011-06-14T14:44:05Z</time>
      </trkpt>
      <trkpt lat="46.01316" lon="6.31917">
        <ele>1325.314697</ele>
        <time>2011-06-14T14:44:10Z</time>
      </trkpt>
      <trkpt lat="46.01318" lon="6.31922">
        <ele>1323.872559</ele>
        <time>2011-06-14T14:44:17Z</time>
      </trkpt>
      <trkpt lat="46.01322" lon="6.31919">
        <ele>1322.430664</ele>
        <time>2011-06-14T14:44:24Z</time>
      </trkpt>
      <trkpt lat="46.01326" lon="6.31918">
        <ele>1321.469238</ele>
        <time>2011-06-14T14:44:30Z</time>
      </trkpt>
      <trkpt lat="46.01328" lon="6.31915">
        <ele>1319.546875</ele>
        <time>2011-06-14T14:44:37Z</time>
      </trkpt>
      <trkpt lat="46.01333" lon="6.31908">
        <ele>1317.624023</ele>
        <time>2011-06-14T14:44:47Z</time>
      </trkpt>
      <trkpt lat="46.01337" lon="6.31902">
        <ele>1315.70166</ele>
        <time>2011-06-14T14:44:55Z</time>
      </trkpt>
      <trkpt lat="46.01343" lon="6.31892">
        <ele>1313.778809</ele>
        <time>2011-06-14T14:45:04Z</time>
      </trkpt>
      <trkpt lat="46.01346" lon="6.31878">
        <ele>1311.856445</ele>
        <time>2011-06-14T14:45:15Z</time>
      </trkpt>
      <trkpt lat="46.01345" lon="6.31869">
        <ele>1310.89502</ele>
        <time>2011-06-14T14:45:22Z</time>
      </trkpt>
      <trkpt lat="46.01344" lon="6.31861">
        <ele>1310.414307</ele>
        <time>2011-06-14T14:45:28Z</time>
      </trkpt>
      <trkpt lat="46.01346" lon="6.31852">
        <ele>1308.491699</ele>
        <time>2011-06-14T14:45:36Z</time>
      </trkpt>
      <trkpt lat="46.01347" lon="6.31843">
        <ele>1307.530273</ele>
        <time>2011-06-14T14:45:43Z</time>
      </trkpt>
      <trkpt lat="46.01349" lon="6.31837">
        <ele>1306.088135</ele>
        <time>2011-06-14T14:45:50Z</time>
      </trkpt>
      <trkpt lat="46.01352" lon="6.31832">
        <ele>1304.165771</ele>
        <time>2011-06-14T14:45:54Z</time>
      </trkpt>
      <trkpt lat="46.01358" lon="6.31821">
        <ele>1302.24292</ele>
        <time>2011-06-14T14:46:03Z</time>
      </trkpt>
      <trkpt lat="46.01359" lon="6.31812">
        <ele>1301.762451</ele>
        <time>2011-06-14T14:46:12Z</time>
      </trkpt>
      <trkpt lat="46.01367" lon="6.31807">
        <ele>1300.801025</ele>
        <time>2011-06-14T14:46:19Z</time>
      </trkpt>
      <trkpt lat="46.0137" lon="6.31799">
        <ele>1298.878418</ele>
        <time>2011-06-14T14:46:26Z</time>
      </trkpt>
      <trkpt lat="46.01376" lon="6.31789">
        <ele>1296.475342</ele>
        <time>2011-06-14T14:46:35Z</time>
      </trkpt>
      <trkpt lat="46.01378" lon="6.31778">
        <ele>1295.513916</ele>
        <time>2011-06-14T14:46:43Z</time>
      </trkpt>
      <trkpt lat="46.01381" lon="6.31768">
        <ele>1293.110596</ele>
        <time>2011-06-14T14:46:52Z</time>
      </trkpt>
      <trkpt lat="46.01383" lon="6.31759">
        <ele>1292.149414</ele>
        <time>2011-06-14T14:47:00Z</time>
      </trkpt>
      <trkpt lat="46.01387" lon="6.31747">
        <ele>1289.265137</ele>
        <time>2011-06-14T14:47:09Z</time>
      </trkpt>
      <trkpt lat="46.01387" lon="6.31741">
        <ele>1287.823242</ele>
        <time>2011-06-14T14:47:15Z</time>
      </trkpt>
      <trkpt lat="46.01388" lon="6.31731">
        <ele>1286.861816</ele>
        <time>2011-06-14T14:47:24Z</time>
      </trkpt>
      <trkpt lat="46.01393" lon="6.31729">
        <ele>1285.900635</ele>
        <time>2011-06-14T14:47:33Z</time>
      </trkpt>
      <trkpt lat="46.01395" lon="6.31732">
        <ele>1285.419922</ele>
        <time>2011-06-14T14:47:41Z</time>
      </trkpt>
      <trkpt lat="46.01397" lon="6.31732">
        <ele>1284.939453</ele>
        <time>2011-06-14T14:48:47Z</time>
      </trkpt>
      <trkpt lat="46.014" lon="6.31731">
        <ele>1284.939453</ele>
        <time>2011-06-14T14:49:03Z</time>
      </trkpt>
      <trkpt lat="46.01405" lon="6.31726">
        <ele>1282.536133</ele>
        <time>2011-06-14T14:49:12Z</time>
      </trkpt>
      <trkpt lat="46.01408" lon="6.31723">
        <ele>1281.574707</ele>
        <time>2011-06-14T14:49:18Z</time>
      </trkpt>
      <trkpt lat="46.01415" lon="6.31713">
        <ele>1280.613525</ele>
        <time>2011-06-14T14:49:27Z</time>
      </trkpt>
      <trkpt lat="46.01421" lon="6.31704">
        <ele>1278.210205</ele>
        <time>2011-06-14T14:49:36Z</time>
      </trkpt>
      <trkpt lat="46.01422" lon="6.31692">
        <ele>1276.287598</ele>
        <time>2011-06-14T14:49:44Z</time>
      </trkpt>
      <trkpt lat="46.0142" lon="6.31685">
        <ele>1275.806641</ele>
        <time>2011-06-14T14:49:48Z</time>
      </trkpt>
      <trkpt lat="46.01423" lon="6.31676">
        <ele>1273.403564</ele>
        <time>2011-06-14T14:49:55Z</time>
      </trkpt>
      <trkpt lat="46.01431" lon="6.31664">
        <ele>1271.000244</ele>
        <time>2011-06-14T14:50:05Z</time>
      </trkpt>
      <trkpt lat="46.01435" lon="6.3166">
        <ele>1270.519531</ele>
        <time>2011-06-14T14:50:12Z</time>
      </trkpt>
      <trkpt lat="46.01437" lon="6.3165">
        <ele>1268.596924</ele>
        <time>2011-06-14T14:50:23Z</time>
      </trkpt>
      <trkpt lat="46.01438" lon="6.31645">
        <ele>1267.155029</ele>
        <time>2011-06-14T14:50:27Z</time>
      </trkpt>
      <trkpt lat="46.01438" lon="6.31636">
        <ele>1264.751709</ele>
        <time>2011-06-14T14:50:35Z</time>
      </trkpt>
      <trkpt lat="46.01438" lon="6.31629">
        <ele>1263.309814</ele>
        <time>2011-06-14T14:50:39Z</time>
      </trkpt>
      <trkpt lat="46.01439" lon="6.31618">
        <ele>1261.86792</ele>
        <time>2011-06-14T14:50:47Z</time>
      </trkpt>
      <trkpt lat="46.0144" lon="6.31611">
        <ele>1259.464355</ele>
        <time>2011-06-14T14:50:52Z</time>
      </trkpt>
      <trkpt lat="46.01446" lon="6.31598">
        <ele>1258.50293</ele>
        <time>2011-06-14T14:51:00Z</time>
      </trkpt>
      <trkpt lat="46.01451" lon="6.31593">
        <ele>1257.541748</ele>
        <time>2011-06-14T14:51:05Z</time>
      </trkpt>
      <trkpt lat="46.0146" lon="6.31588">
        <ele>1255.619141</ele>
        <time>2011-06-14T14:51:12Z</time>
      </trkpt>
      <trkpt lat="46.0146" lon="6.31587">
        <ele>1255.138428</ele>
        <time>2011-06-14T14:51:13Z</time>
      </trkpt>
      <trkpt lat="46.01464" lon="6.31583">
        <ele>1253.696533</ele>
        <time>2011-06-14T14:51:16Z</time>
      </trkpt>
      <trkpt lat="46.01471" lon="6.31571">
        <ele>1251.773926</ele>
        <time>2011-06-14T14:51:25Z</time>
      </trkpt>
      <trkpt lat="46.01472" lon="6.31565">
        <ele>1250.332031</ele>
        <time>2011-06-14T14:51:28Z</time>
      </trkpt>
      <trkpt lat="46.01472" lon="6.31557">
        <ele>1248.889893</ele>
        <time>2011-06-14T14:51:32Z</time>
      </trkpt>
      <trkpt lat="46.01473" lon="6.31553">
        <ele>1248.40918</ele>
        <time>2011-06-14T14:51:34Z</time>
      </trkpt>
      <trkpt lat="46.01476" lon="6.31535">
        <ele>1247.928711</ele>
        <time>2011-06-14T14:51:43Z</time>
      </trkpt>
      <trkpt lat="46.01479" lon="6.31527">
        <ele>1245.525391</ele>
        <time>2011-06-14T14:51:49Z</time>
      </trkpt>
      <trkpt lat="46.01481" lon="6.31526">
        <ele>1245.044678</ele>
        <time>2011-06-14T14:51:51Z</time>
      </trkpt>
      <trkpt lat="46.01483" lon="6.31523">
        <ele>1243.602539</ele>
        <time>2011-06-14T14:51:54Z</time>
      </trkpt>
      <trkpt lat="46.01484" lon="6.3152">
        <ele>1242.160645</ele>
        <time>2011-06-14T14:51:57Z</time>
      </trkpt>
      <trkpt lat="46.01487" lon="6.31514">
        <ele>1242.160645</ele>
        <time>2011-06-14T14:52:01Z</time>
      </trkpt>
      <trkpt lat="46.01489" lon="6.3151">
        <ele>1240.718506</ele>
        <time>2011-06-14T14:52:03Z</time>
      </trkpt>
      <trkpt lat="46.01494" lon="6.31498">
        <ele>1237.834717</ele>
        <time>2011-06-14T14:52:12Z</time>
      </trkpt>
      <trkpt lat="46.01504" lon="6.31489">
        <ele>1235.912109</ele>
        <time>2011-06-14T14:52:21Z</time>
      </trkpt>
      <trkpt lat="46.01509" lon="6.3148">
        <ele>1234.950928</ele>
        <time>2011-06-14T14:52:28Z</time>
      </trkpt>
      <trkpt lat="46.01514" lon="6.31472">
        <ele>1232.066895</ele>
        <time>2011-06-14T14:52:36Z</time>
      </trkpt>
      <trkpt lat="46.0152" lon="6.31461">
        <ele>1229.663574</ele>
        <time>2011-06-14T14:52:45Z</time>
      </trkpt>
      <trkpt lat="46.01527" lon="6.31455">
        <ele>1228.22168</ele>
        <time>2011-06-14T14:52:53Z</time>
      </trkpt>
      <trkpt lat="46.01535" lon="6.31449">
        <ele>1227.260254</ele>
        <time>2011-06-14T14:53:01Z</time>
      </trkpt>
      <trkpt lat="46.0154" lon="6.31442">
        <ele>1226.298828</ele>
        <time>2011-06-14T14:53:08Z</time>
      </trkpt>
      <trkpt lat="46.01545" lon="6.31433">
        <ele>1223.415039</ele>
        <time>2011-06-14T14:53:17Z</time>
      </trkpt>
      <trkpt lat="46.0155" lon="6.31423">
        <ele>1221.011719</ele>
        <time>2011-06-14T14:53:24Z</time>
      </trkpt>
      <trkpt lat="46.01556" lon="6.31413">
        <ele>1220.050293</ele>
        <time>2011-06-14T14:53:32Z</time>
      </trkpt>
      <trkpt lat="46.01562" lon="6.31404">
        <ele>1219.089111</ele>
        <time>2011-06-14T14:53:39Z</time>
      </trkpt>
      <trkpt lat="46.01565" lon="6.31393">
        <ele>1217.646973</ele>
        <time>2011-06-14T14:53:47Z</time>
      </trkpt>
      <trkpt lat="46.01569" lon="6.31383">
        <ele>1215.724609</ele>
        <time>2011-06-14T14:53:54Z</time>
      </trkpt>
      <trkpt lat="46.01572" lon="6.31371">
        <ele>1215.243896</ele>
        <time>2011-06-14T14:54:02Z</time>
      </trkpt>
      <trkpt lat="46.01573" lon="6.31367">
        <ele>1213.801758</ele>
        <time>2011-06-14T14:54:05Z</time>
      </trkpt>
      <trkpt lat="46.01575" lon="6.31356">
        <ele>1212.359863</ele>
        <time>2011-06-14T14:54:12Z</time>
      </trkpt>
      <trkpt lat="46.01578" lon="6.31345">
        <ele>1211.398438</ele>
        <time>2011-06-14T14:54:19Z</time>
      </trkpt>
      <trkpt lat="46.01574" lon="6.31344">
        <ele>1212.359863</ele>
        <time>2011-06-14T14:57:44Z</time>
      </trkpt>
      <trkpt lat="46.01574" lon="6.31338">
        <ele>1211.87915</ele>
        <time>2011-06-14T14:57:57Z</time>
      </trkpt>
      <trkpt lat="46.01578" lon="6.31334">
        <ele>1212.840576</ele>
        <time>2011-06-14T14:58:07Z</time>
      </trkpt>
      <trkpt lat="46.01581" lon="6.31332">
        <ele>1212.359863</ele>
        <time>2011-06-14T14:58:16Z</time>
      </trkpt>
      <trkpt lat="46.01586" lon="6.31325">
        <ele>1210.917725</ele>
        <time>2011-06-14T14:58:23Z</time>
      </trkpt>
      <trkpt lat="46.01588" lon="6.31314">
        <ele>1209.956299</ele>
        <time>2011-06-14T14:58:30Z</time>
      </trkpt>
      <trkpt lat="46.01593" lon="6.31304">
        <ele>1207.553223</ele>
        <time>2011-06-14T14:58:37Z</time>
      </trkpt>
      <trkpt lat="46.01599" lon="6.31293">
        <ele>1207.07251</ele>
        <time>2011-06-14T14:58:46Z</time>
      </trkpt>
      <trkpt lat="46.01604" lon="6.31287">
        <ele>1205.630615</ele>
        <time>2011-06-14T14:58:55Z</time>
      </trkpt>
      <trkpt lat="46.0161" lon="6.31281">
        <ele>1205.149902</ele>
        <time>2011-06-14T14:59:06Z</time>
      </trkpt>
      <trkpt lat="46.01614" lon="6.31276">
        <ele>1204.669189</ele>
        <time>2011-06-14T14:59:17Z</time>
      </trkpt>
      <trkpt lat="46.01617" lon="6.31274">
        <ele>1204.188721</ele>
        <time>2011-06-14T14:59:25Z</time>
      </trkpt>
      <trkpt lat="46.01619" lon="6.31273">
        <ele>1203.708008</ele>
        <time>2011-06-14T14:59:33Z</time>
      </trkpt>
      <trkpt lat="46.01623" lon="6.3127">
        <ele>1203.708008</ele>
        <time>2011-06-14T14:59:40Z</time>
      </trkpt>
      <trkpt lat="46.01629" lon="6.31274">
        <ele>1203.227295</ele>
        <time>2011-06-14T14:59:50Z</time>
      </trkpt>
      <trkpt lat="46.01636" lon="6.31284">
        <ele>1203.227295</ele>
        <time>2011-06-14T15:00:00Z</time>
      </trkpt>
      <trkpt lat="46.01642" lon="6.31288">
        <ele>1202.746582</ele>
        <time>2011-06-14T15:00:07Z</time>
      </trkpt>
      <trkpt lat="46.01645" lon="6.31291">
        <ele>1202.265869</ele>
        <time>2011-06-14T15:00:11Z</time>
      </trkpt>
      <trkpt lat="46.01657" lon="6.31295">
        <ele>1201.7854</ele>
        <time>2011-06-14T15:00:23Z</time>
      </trkpt>
      <trkpt lat="46.01667" lon="6.31295">
        <ele>1200.823975</ele>
        <time>2011-06-14T15:00:33Z</time>
      </trkpt>
      <trkpt lat="46.01675" lon="6.31294">
        <ele>1200.343506</ele>
        <time>2011-06-14T15:00:42Z</time>
      </trkpt>
      <trkpt lat="46.01683" lon="6.31293">
        <ele>1199.862793</ele>
        <time>2011-06-14T15:00:50Z</time>
      </trkpt>
      <trkpt lat="46.01691" lon="6.31292">
        <ele>1198.901367</ele>
        <time>2011-06-14T15:00:58Z</time>
      </trkpt>
      <trkpt lat="46.017" lon="6.31294">
        <ele>1198.901367</ele>
        <time>2011-06-14T15:01:05Z</time>
      </trkpt>
      <trkpt lat="46.01709" lon="6.31294">
        <ele>1198.901367</ele>
        <time>2011-06-14T15:01:13Z</time>
      </trkpt>
      <trkpt lat="46.0172" lon="6.31294">
        <ele>1198.901367</ele>
        <time>2011-06-14T15:01:23Z</time>
      </trkpt>
      <trkpt lat="46.01736" lon="6.31292">
        <ele>1197.459473</ele>
        <time>2011-06-14T15:01:34Z</time>
      </trkpt>
      <trkpt lat="46.01746" lon="6.31295">
        <ele>1196.498291</ele>
        <time>2011-06-14T15:01:43Z</time>
      </trkpt>
      <trkpt lat="46.01759" lon="6.31298">
        <ele>1194.575195</ele>
        <time>2011-06-14T15:01:53Z</time>
      </trkpt>
      <trkpt lat="46.01773" lon="6.31301">
        <ele>1193.133301</ele>
        <time>2011-06-14T15:02:02Z</time>
      </trkpt>
      <trkpt lat="46.01782" lon="6.31303">
        <ele>1190.72998</ele>
        <time>2011-06-14T15:02:10Z</time>
      </trkpt>
      <trkpt lat="46.01792" lon="6.31301">
        <ele>1188.807617</ele>
        <time>2011-06-14T15:02:17Z</time>
      </trkpt>
      <trkpt lat="46.01799" lon="6.31294">
        <ele>1185.442871</ele>
        <time>2011-06-14T15:02:26Z</time>
      </trkpt>
      <trkpt lat="46.01804" lon="6.31293">
        <ele>1183.039551</ele>
        <time>2011-06-14T15:02:32Z</time>
      </trkpt>
      <trkpt lat="46.0181" lon="6.31287">
        <ele>1180.636475</ele>
        <time>2011-06-14T15:02:42Z</time>
      </trkpt>
      <trkpt lat="46.01813" lon="6.31281">
        <ele>1179.194092</ele>
        <time>2011-06-14T15:02:49Z</time>
      </trkpt>
      <trkpt lat="46.01819" lon="6.3128">
        <ele>1177.752197</ele>
        <time>2011-06-14T15:02:56Z</time>
      </trkpt>
      <trkpt lat="46.01824" lon="6.31271">
        <ele>1175.82959</ele>
        <time>2011-06-14T15:03:07Z</time>
      </trkpt>
      <trkpt lat="46.01831" lon="6.31262">
        <ele>1173.426514</ele>
        <time>2011-06-14T15:03:16Z</time>
      </trkpt>
      <trkpt lat="46.01841" lon="6.31256">
        <ele>1171.503662</ele>
        <time>2011-06-14T15:03:28Z</time>
      </trkpt>
      <trkpt lat="46.01847" lon="6.31249">
        <ele>1169.100586</ele>
        <time>2011-06-14T15:03:37Z</time>
      </trkpt>
      <trkpt lat="46.01855" lon="6.31239">
        <ele>1167.177979</ele>
        <time>2011-06-14T15:03:46Z</time>
      </trkpt>
      <trkpt lat="46.01861" lon="6.31229">
        <ele>1163.812988</ele>
        <time>2011-06-14T15:03:53Z</time>
      </trkpt>
      <trkpt lat="46.01863" lon="6.31227">
        <ele>1163.33252</ele>
        <time>2011-06-14T15:03:55Z</time>
      </trkpt>
      <trkpt lat="46.01874" lon="6.3122">
        <ele>1160.448486</ele>
        <time>2011-06-14T15:04:04Z</time>
      </trkpt>
      <trkpt lat="46.01882" lon="6.31215">
        <ele>1158.04541</ele>
        <time>2011-06-14T15:04:12Z</time>
      </trkpt>
      <trkpt lat="46.01891" lon="6.31208">
        <ele>1157.083984</ele>
        <time>2011-06-14T15:04:20Z</time>
      </trkpt>
      <trkpt lat="46.01895" lon="6.31205">
        <ele>1156.603271</ele>
        <time>2011-06-14T15:04:23Z</time>
      </trkpt>
      <trkpt lat="46.01904" lon="6.31199">
        <ele>1153.23877</ele>
        <time>2011-06-14T15:04:33Z</time>
      </trkpt>
      <trkpt lat="46.01912" lon="6.31194">
        <ele>1152.277344</ele>
        <time>2011-06-14T15:04:41Z</time>
      </trkpt>
      <trkpt lat="46.01921" lon="6.3119">
        <ele>1150.835449</ele>
        <time>2011-06-14T15:04:48Z</time>
      </trkpt>
      <trkpt lat="46.01931" lon="6.31187">
        <ele>1148.912842</ele>
        <time>2011-06-14T15:04:56Z</time>
      </trkpt>
      <trkpt lat="46.01951" lon="6.31181">
        <ele>1147.951416</ele>
        <time>2011-06-14T15:05:09Z</time>
      </trkpt>
      <trkpt lat="46.01966" lon="6.31173">
        <ele>1145.548096</ele>
        <time>2011-06-14T15:05:20Z</time>
      </trkpt>
      <trkpt lat="46.01979" lon="6.31166">
        <ele>1144.106201</ele>
        <time>2011-06-14T15:05:31Z</time>
      </trkpt>
      <trkpt lat="46.01994" lon="6.31152">
        <ele>1141.702881</ele>
        <time>2011-06-14T15:05:44Z</time>
      </trkpt>
      <trkpt lat="46.02005" lon="6.3114">
        <ele>1141.222168</ele>
        <time>2011-06-14T15:05:54Z</time>
      </trkpt>
      <trkpt lat="46.02015" lon="6.31132">
        <ele>1139.780273</ele>
        <time>2011-06-14T15:06:04Z</time>
      </trkpt>
      <trkpt lat="46.02027" lon="6.31119">
        <ele>1138.338379</ele>
        <time>2011-06-14T15:06:14Z</time>
      </trkpt>
      <trkpt lat="46.02037" lon="6.31105">
        <ele>1136.89624</ele>
        <time>2011-06-14T15:06:24Z</time>
      </trkpt>
      <trkpt lat="46.02051" lon="6.31087">
        <ele>1135.454346</ele>
        <time>2011-06-14T15:06:37Z</time>
      </trkpt>
      <trkpt lat="46.02065" lon="6.31075">
        <ele>1134.012451</ele>
        <time>2011-06-14T15:06:49Z</time>
      </trkpt>
      <trkpt lat="46.02076" lon="6.31066">
        <ele>1132.570557</ele>
        <time>2011-06-14T15:06:59Z</time>
      </trkpt>
      <trkpt lat="46.02084" lon="6.31057">
        <ele>1129.686279</ele>
        <time>2011-06-14T15:07:07Z</time>
      </trkpt>
      <trkpt lat="46.02092" lon="6.31046">
        <ele>1127.763672</ele>
        <time>2011-06-14T15:07:16Z</time>
      </trkpt>
      <trkpt lat="46.02103" lon="6.31039">
        <ele>1125.360352</ele>
        <time>2011-06-14T15:07:26Z</time>
      </trkpt>
      <trkpt lat="46.02113" lon="6.31032">
        <ele>1122.476563</ele>
        <time>2011-06-14T15:07:35Z</time>
      </trkpt>
      <trkpt lat="46.02115" lon="6.31031">
        <ele>1121.99585</ele>
        <time>2011-06-14T15:07:37Z</time>
      </trkpt>
      <trkpt lat="46.02127" lon="6.31015">
        <ele>1120.073242</ele>
        <time>2011-06-14T15:07:50Z</time>
      </trkpt>
      <trkpt lat="46.02133" lon="6.30998">
        <ele>1118.150635</ele>
        <time>2011-06-14T15:08:01Z</time>
      </trkpt>
      <trkpt lat="46.02141" lon="6.30977">
        <ele>1116.228027</ele>
        <time>2011-06-14T15:08:14Z</time>
      </trkpt>
      <trkpt lat="46.02147" lon="6.30966">
        <ele>1114.305176</ele>
        <time>2011-06-14T15:08:22Z</time>
      </trkpt>
      <trkpt lat="46.02152" lon="6.30952">
        <ele>1112.382568</ele>
        <time>2011-06-14T15:08:31Z</time>
      </trkpt>
      <trkpt lat="46.02158" lon="6.30939">
        <ele>1109.979248</ele>
        <time>2011-06-14T15:08:40Z</time>
      </trkpt>
      <trkpt lat="46.02167" lon="6.30931">
        <ele>1109.018066</ele>
        <time>2011-06-14T15:08:48Z</time>
      </trkpt>
      <trkpt lat="46.02174" lon="6.30928">
        <ele>1108.056885</ele>
        <time>2011-06-14T15:08:53Z</time>
      </trkpt>
      <trkpt lat="46.02177" lon="6.3093">
        <ele>1106.614746</ele>
        <time>2011-06-14T15:08:56Z</time>
      </trkpt>
      <trkpt lat="46.02177" lon="6.30932">
        <ele>1107.095459</ele>
        <time>2011-06-14T15:08:57Z</time>
      </trkpt>
      <trkpt lat="46.02174" lon="6.30945">
        <ele>1107.576172</ele>
        <time>2011-06-14T15:09:06Z</time>
      </trkpt>
      <trkpt lat="46.02174" lon="6.30954">
        <ele>1107.095459</ele>
        <time>2011-06-14T15:09:15Z</time>
      </trkpt>
    </trkseg>
  </trk>
</gpx>